Wetterdaten: Donnerstag, 11.01.2018
Datum Zeit Temp. A. Pool Temp. Feuchte A. Luftdruck Regen Wind Richtung Richtung Sonnenschein ET UV Solar Taupunkt Windchill Windben Empfang
11.01.2018 00:00 3,8 C 5,0 C 97 % 1012,8 hPa 0,0 l/m 1,2 km/h (1 Bft) O-SO 117 0 min 0,000 mm 0,0 UV-I 0 W/m 3,4 C 3,8 C 3,2 km/h (1 Bft) 94,00 %
11.01.2018 00:02 3,8 C 5,0 C 97 % 1012,7 hPa 0,0 l/m 2,1 km/h (1 Bft) O-SO 113 0 min 0,000 mm 0,0 UV-I 0 W/m 3,4 C 3,8 C 4,8 km/h (1 Bft) 11,11 %
11.01.2018 00:04 5,3 C 5,0 C 83 % 1012,7 hPa 0,0 l/m 0,8 km/h (0 Bft) O-SO 113 0 min 0,000 mm 0,0 UV-I 0 W/m 2,7 C 5,3 C 3,2 km/h (1 Bft) 86,36 %
11.01.2018 00:06 5,2 C 5,0 C 84 % 1012,7 hPa 0,0 l/m 3,7 km/h (1 Bft) O-SO 113 0 min 0,000 mm 0,0 UV-I 0 W/m 2,7 C 5,2 C 4,8 km/h (1 Bft) 95,74 %
11.01.2018 00:08 5,2 C 5,0 C 84 % 1012,7 hPa 0,0 l/m 2,4 km/h (1 Bft) O-SO 113 0 min 0,000 mm 0,0 UV-I 0 W/m 2,7 C 5,2 C 4,8 km/h (1 Bft) 100,00 %
11.01.2018 00:10 5,2 C 5,0 C 85 % 1012,7 hPa 0,0 l/m 3,4 km/h (1 Bft) O-SO 115 0 min 0,000 mm 0,0 UV-I 0 W/m 2,9 C 5,2 C 4,8 km/h (1 Bft) 95,74 %
11.01.2018 00:12 5,1 C 5,0 C 86 % 1012,7 hPa 0,0 l/m 4,9 km/h (1 Bft) O-SO 111 0 min 0,000 mm 0,0 UV-I 0 W/m 3,0 C 5,1 C 6,4 km/h (2 Bft) 97,92 %
11.01.2018 00:14 5,1 C 5,0 C 85 % 1012,8 hPa 0,0 l/m 6,0 km/h (2 Bft) O-SO 121 0 min 0,000 mm 0,0 UV-I 0 W/m 2,8 C 5,1 C 9,7 km/h (2 Bft) 97,14 %
11.01.2018 00:16 5,1 C 5,0 C 84 % 1012,7 hPa 0,0 l/m 3,7 km/h (1 Bft) O-SO 121 0 min 0,000 mm 0,0 UV-I 0 W/m 2,6 C 5,1 C 6,4 km/h (2 Bft) 97,44 %
11.01.2018 00:18 3,8 C 5,0 C 97 % 1012,8 hPa 0,0 l/m 3,2 km/h (1 Bft) O-SO 121 0 min 0,000 mm 0,0 UV-I 0 W/m 3,4 C 3,8 C 3,2 km/h (1 Bft) 96,67 %
11.01.2018 00:20 3,8 C 5,0 C 97 % 1012,8 hPa 0,0 l/m 3,0 km/h (1 Bft) O 88 0 min 0,000 mm 0,0 UV-I 0 W/m 3,4 C 3,8 C 4,8 km/h (1 Bft) 96,00 %
11.01.2018 00:22 3,8 C 5,0 C 97 % 1012,8 hPa 0,0 l/m 2,4 km/h (1 Bft) O 88 0 min 0,000 mm 0,0 UV-I 0 W/m 3,4 C 3,8 C 4,8 km/h (1 Bft) 95,83 %
11.01.2018 00:24 3,8 C 5,0 C 97 % 1012,8 hPa 0,0 l/m 2,6 km/h (1 Bft) O 88 0 min 0,000 mm 0,0 UV-I 0 W/m 3,4 C 3,8 C 4,8 km/h (1 Bft) 96,00 %
11.01.2018 00:26 3,8 C 5,0 C 97 % 1012,8 hPa 0,0 l/m 2,8 km/h (1 Bft) O 88 0 min 0,000 mm 0,0 UV-I 0 W/m 3,4 C 3,8 C 4,8 km/h (1 Bft) 95,12 %
11.01.2018 00:30 3,8 C 5,0 C 97 % 1012,7 hPa 0,0 l/m 3,2 km/h (1 Bft) O 90 0 min 0,000 mm 0,0 UV-I 0 W/m 3,4 C 3,8 C 4,8 km/h (1 Bft) 96,49 %
11.01.2018 00:35 3,8 C 5,0 C 96 % 1012,7 hPa 0,0 l/m 3,2 km/h (1 Bft) O 90 0 min 0,000 mm 0,0 UV-I 0 W/m 3,2 C 3,8 C 6,4 km/h (2 Bft) 97,37 %
11.01.2018 00:38 3,8 C 5,0 C 96 % 1012,7 hPa 0,0 l/m 5,9 km/h (2 Bft) O 90 0 min 0,000 mm 0,0 UV-I 0 W/m 3,2 C 3,8 C 6,4 km/h (2 Bft) 92,31 %
11.01.2018 00:40 3,9 C 5,0 C 96 % 1012,8 hPa 0,0 l/m 3,6 km/h (1 Bft) O-SO 109 0 min 0,000 mm 0,0 UV-I 0 W/m 3,3 C 3,9 C 6,4 km/h (2 Bft) 100,00 %
11.01.2018 00:42 3,9 C 5,0 C 96 % 1012,8 hPa 0,0 l/m 3,3 km/h (1 Bft) O-SO 109 0 min 0,000 mm 0,0 UV-I 0 W/m 3,3 C 3,9 C 4,8 km/h (1 Bft) 100,00 %
11.01.2018 00:44 3,8 C 5,0 C 96 % 1012,8 hPa 0,0 l/m 3,5 km/h (1 Bft) SO 144 0 min 0,000 mm 0,0 UV-I 0 W/m 3,2 C 3,8 C 6,4 km/h (2 Bft) 100,00 %
11.01.2018 00:46 3,9 C 5,0 C 96 % 1012,8 hPa 0,0 l/m 4,0 km/h (1 Bft) O-SO 121 0 min 0,000 mm 0,0 UV-I 0 W/m 3,3 C 3,9 C 4,8 km/h (1 Bft) 100,00 %
11.01.2018 00:48 3,9 C 5,0 C 96 % 1012,8 hPa 0,0 l/m 2,0 km/h (1 Bft) SO 124 0 min 0,000 mm 0,0 UV-I 0 W/m 3,3 C 3,9 C 4,8 km/h (1 Bft) 100,00 %
11.01.2018 00:50 3,9 C 5,0 C 96 % 1012,9 hPa 0,0 l/m 1,7 km/h (1 Bft) SO 125 0 min 0,000 mm 0,0 UV-I 0 W/m 3,3 C 3,9 C 4,8 km/h (1 Bft) 100,00 %
11.01.2018 00:52 3,8 C 5,0 C 96 % 1012,9 hPa 0,0 l/m 4,6 km/h (1 Bft) O-SO 119 0 min 0,000 mm 0,0 UV-I 0 W/m 3,2 C 3,8 C 4,8 km/h (1 Bft) 100,00 %
11.01.2018 00:54 3,8 C 5,0 C 96 % 1012,9 hPa 0,0 l/m 3,3 km/h (1 Bft) O-SO 121 0 min 0,000 mm 0,0 UV-I 0 W/m 3,2 C 3,8 C 6,4 km/h (2 Bft) 100,00 %
11.01.2018 00:56 3,8 C 5,0 C 96 % 1012,9 hPa 0,0 l/m 2,2 km/h (1 Bft) O-SO 121 0 min 0,000 mm 0,0 UV-I 0 W/m 3,2 C 3,8 C 4,8 km/h (1 Bft) 100,00 %
11.01.2018 00:58 3,8 C 5,0 C 96 % 1012,9 hPa 0,0 l/m 3,3 km/h (1 Bft) O-SO 121 0 min 0,000 mm 0,0 UV-I 0 W/m 3,2 C 3,8 C 6,4 km/h (2 Bft) 98,00 %
11.01.2018 01:00 3,8 C 5,0 C 96 % 1012,9 hPa 0,0 l/m 2,0 km/h (1 Bft) O-SO 121 0 min 0,000 mm 0,0 UV-I 0 W/m 3,2 C 3,8 C 4,8 km/h (1 Bft) 100,00 %
11.01.2018 01:02 3,8 C 5,0 C 96 % 1012,8 hPa 0,0 l/m 3,3 km/h (1 Bft) O-SO 121 0 min 0,000 mm 0,0 UV-I 0 W/m 3,2 C 3,8 C 4,8 km/h (1 Bft) 97,37 %
11.01.2018 01:04 3,8 C 5,0 C 96 % 1012,9 hPa 0,0 l/m 3,5 km/h (1 Bft) O-SO 121 0 min 0,000 mm 0,0 UV-I 0 W/m 3,2 C 3,8 C 4,8 km/h (1 Bft) 100,00 %
11.01.2018 01:06 3,8 C 5,0 C 96 % 1012,8 hPa 0,0 l/m 3,7 km/h (1 Bft) O-SO 121 0 min 0,000 mm 0,0 UV-I 0 W/m 3,2 C 3,8 C 6,4 km/h (2 Bft) 100,00 %
11.01.2018 01:08 3,8 C 5,0 C 96 % 1012,9 hPa 0,0 l/m 3,7 km/h (1 Bft) O-SO 121 0 min 0,000 mm 0,0 UV-I 0 W/m 3,2 C 3,8 C 6,4 km/h (2 Bft) 100,00 %
11.01.2018 01:10 3,8 C 5,0 C 96 % 1012,8 hPa 0,0 l/m 4,6 km/h (1 Bft) SO 136 0 min 0,000 mm 0,0 UV-I 0 W/m 3,2 C 3,8 C 6,4 km/h (2 Bft) 100,00 %
11.01.2018 01:12 3,8 C 5,0 C 96 % 1012,9 hPa 0,0 l/m 3,3 km/h (1 Bft) O-SO 121 0 min 0,000 mm 0,0 UV-I 0 W/m 3,2 C 3,8 C 6,4 km/h (2 Bft) 93,88 %
11.01.2018 01:14 3,8 C 5,0 C 96 % 1012,9 hPa 0,0 l/m 2,4 km/h (1 Bft) SO 140 0 min 0,000 mm 0,0 UV-I 0 W/m 3,2 C 3,8 C 4,8 km/h (1 Bft) 100,00 %
11.01.2018 01:16 3,8 C 5,0 C 96 % 1012,9 hPa 0,0 l/m 2,3 km/h (1 Bft) SO 140 0 min 0,000 mm 0,0 UV-I 0 W/m 3,2 C 3,8 C 3,2 km/h (1 Bft) 100,00 %
11.01.2018 01:18 3,8 C 5,0 C 96 % 1012,9 hPa 0,0 l/m 2,7 km/h (1 Bft) SO 132 0 min 0,000 mm 0,0 UV-I 0 W/m 3,2 C 3,8 C 4,8 km/h (1 Bft) 100,00 %
11.01.2018 01:20 3,8 C 5,0 C 96 % 1012,8 hPa 0,0 l/m 3,8 km/h (1 Bft) SO 132 0 min 0,000 mm 0,0 UV-I 0 W/m 3,2 C 3,8 C 6,4 km/h (2 Bft) 100,00 %
11.01.2018 01:22 3,8 C 5,0 C 96 % 1012,9 hPa 0,0 l/m 2,0 km/h (1 Bft) SO 132 0 min 0,000 mm 0,0 UV-I 0 W/m 3,2 C 3,8 C 4,8 km/h (1 Bft) 100,00 %
11.01.2018 01:24 3,8 C 5,0 C 96 % 1012,9 hPa 0,0 l/m 3,8 km/h (1 Bft) O-SO 123 0 min 0,000 mm 0,0 UV-I 0 W/m 3,2 C 3,8 C 6,4 km/h (2 Bft) 100,00 %
11.01.2018 01:26 3,8 C 5,0 C 96 % 1012,9 hPa 0,0 l/m 4,3 km/h (1 Bft) O-SO 123 0 min 0,000 mm 0,0 UV-I 0 W/m 3,2 C 3,8 C 4,8 km/h (1 Bft) 100,00 %
11.01.2018 01:28 3,8 C 5,0 C 96 % 1012,9 hPa 0,0 l/m 2,7 km/h (1 Bft) O-SO 123 0 min 0,000 mm 0,0 UV-I 0 W/m 3,2 C 3,8 C 4,8 km/h (1 Bft) 100,00 %
11.01.2018 01:30 3,8 C 5,0 C 96 % 1012,9 hPa 0,0 l/m 2,4 km/h (1 Bft) O-SO 123 0 min 0,000 mm 0,0 UV-I 0 W/m 3,2 C 3,8 C 4,8 km/h (1 Bft) 98,00 %
11.01.2018 01:32 3,8 C 5,0 C 96 % 1012,9 hPa 0,0 l/m 3,8 km/h (1 Bft) O-SO 123 0 min 0,000 mm 0,0 UV-I 0 W/m 3,2 C 3,8 C 6,4 km/h (2 Bft) 100,00 %
11.01.2018 01:34 3,8 C 5,0 C 96 % 1012,9 hPa 0,0 l/m 2,4 km/h (1 Bft) SO 132 0 min 0,000 mm 0,0 UV-I 0 W/m 3,2 C 3,8 C 4,8 km/h (1 Bft) 97,87 %
11.01.2018 01:36 3,8 C 5,0 C 96 % 1012,9 hPa 0,0 l/m 1,3 km/h (1 Bft) SO 132 0 min 0,000 mm 0,0 UV-I 0 W/m 3,2 C 3,8 C 3,2 km/h (1 Bft) 100,00 %
11.01.2018 01:38 3,8 C 5,0 C 96 % 1012,9 hPa 0,0 l/m 1,2 km/h (1 Bft) SO 132 0 min 0,000 mm 0,0 UV-I 0 W/m 3,2 C 3,8 C 3,2 km/h (1 Bft) 97,37 %
11.01.2018 01:40 3,8 C 5,0 C 95 % 1012,9 hPa 0,0 l/m 2,8 km/h (1 Bft) SO 132 0 min 0,000 mm 0,0 UV-I 0 W/m 3,1 C 3,8 C 4,8 km/h (1 Bft) 98,11 %
11.01.2018 01:42 3,8 C 5,0 C 95 % 1012,9 hPa 0,0 l/m 2,8 km/h (1 Bft) SO 132 0 min 0,000 mm 0,0 UV-I 0 W/m 3,1 C 3,8 C 4,8 km/h (1 Bft) 97,87 %
11.01.2018 01:44 3,8 C 5,0 C 95 % 1013,0 hPa 0,0 l/m 2,1 km/h (1 Bft) SO 132 0 min 0,000 mm 0,0 UV-I 0 W/m 3,1 C 3,8 C 4,8 km/h (1 Bft) 97,37 %
11.01.2018 01:46 3,8 C 5,0 C 95 % 1013,0 hPa 0,0 l/m 2,0 km/h (1 Bft) SO 132 0 min 0,000 mm 0,0 UV-I 0 W/m 3,1 C 3,8 C 4,8 km/h (1 Bft) 95,74 %
11.01.2018 01:48 3,8 C 5,0 C 95 % 1013,0 hPa 0,0 l/m 2,1 km/h (1 Bft) SO 132 0 min 0,000 mm 0,0 UV-I 0 W/m 3,1 C 3,8 C 3,2 km/h (1 Bft) 97,87 %
11.01.2018 01:50 3,8 C 5,0 C 95 % 1013,0 hPa 0,0 l/m 0,4 km/h (0 Bft) SO 132 0 min 0,000 mm 0,0 UV-I 0 W/m 3,1 C 3,8 C 1,6 km/h (1 Bft) 96,00 %
11.01.2018 01:52 3,8 C 5,0 C 95 % 1013,0 hPa 0,0 l/m 0,4 km/h (0 Bft) SO 132 0 min 0,000 mm 0,0 UV-I 0 W/m 3,1 C 3,8 C 1,6 km/h (1 Bft) 98,00 %
11.01.2018 01:54 3,8 C 5,0 C 95 % 1013,0 hPa 0,0 l/m 0,6 km/h (0 Bft) SO 132 0 min 0,000 mm 0,0 UV-I 0 W/m 3,1 C 3,8 C 1,6 km/h (1 Bft) 97,87 %
11.01.2018 01:56 3,8 C 5,0 C 96 % 1013,0 hPa 0,0 l/m 0,0 km/h (0 Bft) SO 132 0 min 0,000 mm 0,0 UV-I 0 W/m 3,2 C 3,8 C 0,0 km/h (0 Bft) 98,00 %
11.01.2018 01:58 3,8 C 5,0 C 95 % 1013,0 hPa 0,0 l/m 0,0 km/h (0 Bft) SO 132 0 min 0,000 mm 0,0 UV-I 0 W/m 3,1 C 3,8 C 0,0 km/h (0 Bft) 97,44 %
11.01.2018 02:00 3,8 C 5,0 C 95 % 1013,0 hPa 0,0 l/m 0,4 km/h (0 Bft) SO 132 0 min 0,000 mm 0,0 UV-I 0 W/m 3,1 C 3,8 C 4,8 km/h (1 Bft) 97,87 %
11.01.2018 02:02 3,8 C 5,0 C 95 % 1013,1 hPa 0,0 l/m 5,1 km/h (1 Bft) O-SO 116 0 min 0,000 mm 0,0 UV-I 0 W/m 3,1 C 3,8 C 6,4 km/h (2 Bft) 98,18 %
11.01.2018 02:04 3,8 C 5,0 C 95 % 1013,1 hPa 0,0 l/m 2,0 km/h (1 Bft) O-SO 116 0 min 0,000 mm 0,0 UV-I 0 W/m 3,1 C 3,8 C 4,8 km/h (1 Bft) 97,22 %
11.01.2018 02:06 3,8 C 5,0 C 95 % 1013,1 hPa 0,0 l/m 4,6 km/h (1 Bft) O 91 0 min 0,000 mm 0,0 UV-I 0 W/m 3,1 C 3,8 C 9,7 km/h (2 Bft) 98,00 %
11.01.2018 02:08 3,8 C 5,0 C 95 % 1013,2 hPa 0,0 l/m 5,4 km/h (1 Bft) O 91 0 min 0,000 mm 0,0 UV-I 0 W/m 3,1 C 3,8 C 9,7 km/h (2 Bft) 94,64 %
11.01.2018 02:10 3,8 C 5,0 C 95 % 1013,2 hPa 0,0 l/m 3,7 km/h (1 Bft) O 91 0 min 0,000 mm 0,0 UV-I 0 W/m 3,1 C 3,8 C 6,4 km/h (2 Bft) 94,74 %
11.01.2018 02:12 3,8 C 5,0 C 95 % 1013,1 hPa 0,0 l/m 2,0 km/h (1 Bft) O 91 0 min 0,000 mm 0,0 UV-I 0 W/m 3,1 C 3,8 C 3,2 km/h (1 Bft) 95,74 %
11.01.2018 02:14 3,8 C 5,0 C 95 % 1013,2 hPa 0,0 l/m 1,8 km/h (1 Bft) O 91 0 min 0,000 mm 0,0 UV-I 0 W/m 3,1 C 3,8 C 3,2 km/h (1 Bft) 98,00 %
11.01.2018 02:16 3,8 C 5,0 C 95 % 1013,1 hPa 0,0 l/m 3,0 km/h (1 Bft) O 91 0 min 0,000 mm 0,0 UV-I 0 W/m 3,1 C 3,8 C 4,8 km/h (1 Bft) 100,00 %
11.01.2018 02:18 3,8 C 5,0 C 95 % 1013,1 hPa 0,0 l/m 4,1 km/h (1 Bft) O-NO 67 0 min 0,000 mm 0,0 UV-I 0 W/m 3,1 C 3,8 C 8,0 km/h (2 Bft) 100,00 %
11.01.2018 02:20 3,8 C 5,0 C 95 % 1013,2 hPa 0,0 l/m 6,0 km/h (2 Bft) O-NO 77 0 min 0,000 mm 0,0 UV-I 0 W/m 3,1 C 3,8 C 8,0 km/h (2 Bft) 97,87 %
11.01.2018 02:22 3,8 C 5,0 C 95 % 1013,1 hPa 0,0 l/m 4,7 km/h (1 Bft) O 81 0 min 0,000 mm 0,0 UV-I 0 W/m 3,1 C 3,8 C 6,4 km/h (2 Bft) 100,00 %
11.01.2018 02:24 3,8 C 5,0 C 95 % 1013,1 hPa 0,0 l/m 3,2 km/h (1 Bft) SO 136 0 min 0,000 mm 0,0 UV-I 0 W/m 3,1 C 3,8 C 4,8 km/h (1 Bft) 98,11 %
11.01.2018 02:26 3,8 C 5,0 C 95 % 1013,0 hPa 0,0 l/m 2,1 km/h (1 Bft) SO 136 0 min 0,000 mm 0,0 UV-I 0 W/m 3,1 C 3,8 C 4,8 km/h (1 Bft) 100,00 %
11.01.2018 02:28 3,8 C 5,0 C 95 % 1013,0 hPa 0,0 l/m 0,6 km/h (0 Bft) SO 136 0 min 0,000 mm 0,0 UV-I 0 W/m 3,1 C 3,8 C 3,2 km/h (1 Bft) 100,00 %
11.01.2018 02:30 3,7 C 5,0 C 95 % 1013,0 hPa 0,0 l/m 4,3 km/h (1 Bft) O 100 0 min 0,000 mm 0,0 UV-I 0 W/m 3,0 C 3,7 C 6,4 km/h (2 Bft) 100,00 %
11.01.2018 02:32 3,7 C 5,0 C 95 % 1013,0 hPa 0,0 l/m 4,8 km/h (1 Bft) O 96 0 min 0,000 mm 0,0 UV-I 0 W/m 3,0 C 3,7 C 6,4 km/h (2 Bft) 100,00 %
11.01.2018 02:34 3,7 C 5,0 C 95 % 1013,0 hPa 0,0 l/m 4,9 km/h (1 Bft) O 84 0 min 0,000 mm 0,0 UV-I 0 W/m 3,0 C 3,7 C 6,4 km/h (2 Bft) 100,00 %
11.01.2018 02:36 3,7 C 5,0 C 95 % 1013,1 hPa 0,0 l/m 3,5 km/h (1 Bft) O-SO 121 0 min 0,000 mm 0,0 UV-I 0 W/m 3,0 C 3,7 C 4,8 km/h (1 Bft) 100,00 %
11.01.2018 02:38 3,7 C 5,0 C 95 % 1013,0 hPa 0,0 l/m 3,4 km/h (1 Bft) O-SO 121 0 min 0,000 mm 0,0 UV-I 0 W/m 3,0 C 3,7 C 4,8 km/h (1 Bft) 100,00 %
11.01.2018 02:40 3,7 C 5,0 C 95 % 1013,0 hPa 0,0 l/m 5,4 km/h (1 Bft) O 101 0 min 0,000 mm 0,0 UV-I 0 W/m 3,0 C 3,7 C 6,4 km/h (2 Bft) 100,00 %
11.01.2018 02:42 3,7 C 5,0 C 95 % 1013,0 hPa 0,0 l/m 5,1 km/h (1 Bft) O-SO 120 0 min 0,000 mm 0,0 UV-I 0 W/m 3,0 C 3,7 C 6,4 km/h (2 Bft) 98,00 %
11.01.2018 02:44 3,7 C 5,0 C 95 % 1013,0 hPa 0,0 l/m 4,3 km/h (1 Bft) O-SO 118 0 min 0,000 mm 0,0 UV-I 0 W/m 3,0 C 3,7 C 4,8 km/h (1 Bft) 100,00 %
11.01.2018 02:46 3,7 C 5,0 C 95 % 1013,0 hPa 0,0 l/m 3,1 km/h (1 Bft) O-SO 118 0 min 0,000 mm 0,0 UV-I 0 W/m 3,0 C 3,7 C 4,8 km/h (1 Bft) 100,00 %
11.01.2018 02:48 3,7 C 5,0 C 95 % 1013,0 hPa 0,0 l/m 3,7 km/h (1 Bft) O-SO 118 0 min 0,000 mm 0,0 UV-I 0 W/m 3,0 C 3,7 C 6,4 km/h (2 Bft) 100,00 %
11.01.2018 02:50 3,7 C 5,0 C 95 % 1013,0 hPa 0,0 l/m 3,8 km/h (1 Bft) O-SO 118 0 min 0,000 mm 0,0 UV-I 0 W/m 3,0 C 3,7 C 4,8 km/h (1 Bft) 100,00 %
11.01.2018 02:52 3,7 C 5,0 C 95 % 1013,0 hPa 0,0 l/m 3,2 km/h (1 Bft) O-SO 118 0 min 0,000 mm 0,0 UV-I 0 W/m 3,0 C 3,7 C 4,8 km/h (1 Bft) 100,00 %
11.01.2018 02:54 3,7 C 5,0 C 95 % 1013,1 hPa 0,0 l/m 3,1 km/h (1 Bft) O-SO 118 0 min 0,000 mm 0,0 UV-I 0 W/m 3,0 C 3,7 C 4,8 km/h (1 Bft) 100,00 %
11.01.2018 02:56 3,7 C 5,0 C 95 % 1013,0 hPa 0,0 l/m 1,2 km/h (1 Bft) O-SO 118 0 min 0,000 mm 0,0 UV-I 0 W/m 3,0 C 3,7 C 3,2 km/h (1 Bft) 100,00 %
11.01.2018 02:58 3,7 C 5,0 C 95 % 1013,1 hPa 0,0 l/m 1,8 km/h (1 Bft) O-SO 118 0 min 0,000 mm 0,0 UV-I 0 W/m 3,0 C 3,7 C 3,2 km/h (1 Bft) 98,00 %
11.01.2018 03:00 3,7 C 5,0 C 95 % 1013,1 hPa 0,0 l/m 1,4 km/h (1 Bft) O-SO 118 0 min 0,000 mm 0,0 UV-I 0 W/m 3,0 C 3,7 C 3,2 km/h (1 Bft) 100,00 %
11.01.2018 03:02 3,7 C 5,0 C 95 % 1013,1 hPa 0,0 l/m 2,0 km/h (1 Bft) O-SO 118 0 min 0,000 mm 0,0 UV-I 0 W/m 3,0 C 3,7 C 3,2 km/h (1 Bft) 97,87 %
11.01.2018 03:04 3,7 C 5,0 C 95 % 1013,1 hPa 0,0 l/m 2,6 km/h (1 Bft) O-SO 118 0 min 0,000 mm 0,0 UV-I 0 W/m 3,0 C 3,7 C 4,8 km/h (1 Bft) 98,21 %
11.01.2018 03:06 3,7 C 5,0 C 95 % 1013,1 hPa 0,0 l/m 0,9 km/h (0 Bft) O-SO 118 0 min 0,000 mm 0,0 UV-I 0 W/m 3,0 C 3,7 C 3,2 km/h (1 Bft) 100,00 %
11.01.2018 03:08 3,7 C 5,0 C 95 % 1013,1 hPa 0,0 l/m 0,1 km/h (0 Bft) O-SO 118 0 min 0,000 mm 0,0 UV-I 0 W/m 3,0 C 3,7 C 1,6 km/h (1 Bft) 97,56 %
11.01.2018 03:10 3,7 C 5,0 C 95 % 1013,1 hPa 0,0 l/m 1,9 km/h (1 Bft) O-SO 118 0 min 0,000 mm 0,0 UV-I 0 W/m 3,0 C 3,7 C 3,2 km/h (1 Bft) 98,00 %
11.01.2018 03:12 3,6 C 5,0 C 95 % 1013,1 hPa 0,0 l/m 2,4 km/h (1 Bft) O-SO 118 0 min 0,000 mm 0,0 UV-I 0 W/m 2,9 C 3,6 C 3,2 km/h (1 Bft) 97,87 %
11.01.2018 03:14 3,6 C 5,0 C 95 % 1013,1 hPa 0,0 l/m 2,9 km/h (1 Bft) O-SO 117 0 min 0,000 mm 0,0 UV-I 0 W/m 2,9 C 3,6 C 6,4 km/h (2 Bft) 100,00 %
11.01.2018 03:16 3,6 C 5,0 C 95 % 1013,1 hPa 0,0 l/m 2,3 km/h (1 Bft) SO 127 0 min 0,000 mm 0,0 UV-I 0 W/m 2,9 C 3,6 C 6,4 km/h (2 Bft) 100,00 %
11.01.2018 03:18 3,6 C 5,0 C 95 % 1013,1 hPa 0,0 l/m 1,8 km/h (1 Bft) SO 140 0 min 0,000 mm 0,0 UV-I 0 W/m 2,9 C 3,6 C 4,8 km/h (1 Bft) 100,00 %
11.01.2018 03:20 3,6 C 5,0 C 95 % 1013,1 hPa 0,0 l/m 2,7 km/h (1 Bft) SO 138 0 min 0,000 mm 0,0 UV-I 0 W/m 2,9 C 3,6 C 4,8 km/h (1 Bft) 95,74 %
11.01.2018 03:22 3,6 C 5,0 C 95 % 1013,1 hPa 0,0 l/m 4,3 km/h (1 Bft) SO 129 0 min 0,000 mm 0,0 UV-I 0 W/m 2,9 C 3,6 C 6,4 km/h (2 Bft) 96,23 %
11.01.2018 03:24 3,6 C 5,0 C 95 % 1013,1 hPa 0,0 l/m 2,0 km/h (1 Bft) SO 129 0 min 0,000 mm 0,0 UV-I 0 W/m 2,9 C 3,6 C 3,2 km/h (1 Bft) 97,56 %
11.01.2018 03:26 3,6 C 5,0 C 96 % 1013,1 hPa 0,0 l/m 2,0 km/h (1 Bft) SO 129 0 min 0,000 mm 0,0 UV-I 0 W/m 3,0 C 3,6 C 4,8 km/h (1 Bft) 98,00 %
11.01.2018 03:28 3,6 C 5,0 C 96 % 1013,1 hPa 0,0 l/m 1,5 km/h (1 Bft) SO 129 0 min 0,000 mm 0,0 UV-I 0 W/m 3,0 C 3,6 C 3,2 km/h (1 Bft) 94,74 %
11.01.2018 03:30 3,6 C 5,0 C 96 % 1013,1 hPa 0,0 l/m 2,4 km/h (1 Bft) SO 129 0 min 0,000 mm 0,0 UV-I 0 W/m 3,0 C 3,6 C 4,8 km/h (1 Bft) 98,00 %
11.01.2018 03:32 3,6 C 5,0 C 96 % 1013,1 hPa 0,0 l/m 1,0 km/h (0 Bft) SO 129 0 min 0,000 mm 0,0 UV-I 0 W/m 3,0 C 3,6 C 3,2 km/h (1 Bft) 98,00 %
11.01.2018 03:34 3,6 C 5,0 C 96 % 1013,1 hPa 0,0 l/m 3,2 km/h (1 Bft) SO 128 0 min 0,000 mm 0,0 UV-I 0 W/m 3,0 C 3,6 C 4,8 km/h (1 Bft) 98,00 %
11.01.2018 03:36 3,6 C 5,0 C 96 % 1013,2 hPa 0,0 l/m 3,2 km/h (1 Bft) SO 128 0 min 0,000 mm 0,0 UV-I 0 W/m 3,0 C 3,6 C 4,8 km/h (1 Bft) 97,56 %
11.01.2018 03:38 3,6 C 5,0 C 96 % 1013,1 hPa 0,0 l/m 3,0 km/h (1 Bft) SO 128 0 min 0,000 mm 0,0 UV-I 0 W/m 3,0 C 3,6 C 4,8 km/h (1 Bft) 97,37 %
11.01.2018 03:40 3,6 C 5,0 C 96 % 1013,1 hPa 0,0 l/m 0,4 km/h (0 Bft) SO 128 0 min 0,000 mm 0,0 UV-I 0 W/m 3,0 C 3,6 C 1,6 km/h (1 Bft) 96,77 %
11.01.2018 03:42 3,6 C 5,0 C 96 % 1013,1 hPa 0,0 l/m 1,0 km/h (0 Bft) SO 128 0 min 0,000 mm 0,0 UV-I 0 W/m 3,0 C 3,6 C 3,2 km/h (1 Bft) 91,49 %
11.01.2018 03:44 3,6 C 5,0 C 96 % 1013,1 hPa 0,0 l/m 0,3 km/h (0 Bft) SO 128 0 min 0,000 mm 0,0 UV-I 0 W/m 3,0 C 3,6 C 1,6 km/h (1 Bft) 97,37 %
11.01.2018 03:46 3,6 C 5,0 C 96 % 1013,1 hPa 0,0 l/m 0,0 km/h (0 Bft) SO 128 0 min 0,000 mm 0,0 UV-I 0 W/m 3,0 C 3,6 C 0,0 km/h (0 Bft) 91,49 %
11.01.2018 03:48 3,6 C 5,0 C 96 % 1013,1 hPa 0,0 l/m 0,0 km/h (0 Bft) SO 128 0 min 0,000 mm 0,0 UV-I 0 W/m 3,0 C 3,6 C 0,0 km/h (0 Bft) 93,62 %
11.01.2018 03:50 3,5 C 5,0 C 96 % 1013,1 hPa 0,0 l/m 0,0 km/h (0 Bft) SO 128 0 min 0,000 mm 0,0 UV-I 0 W/m 2,9 C 3,5 C 0,0 km/h (0 Bft) 95,24 %
11.01.2018 03:52 3,6 C 5,0 C 96 % 1013,1 hPa 0,0 l/m 0,0 km/h (0 Bft) SO 128 0 min 0,000 mm 0,0 UV-I 0 W/m 3,0 C 3,6 C 0,0 km/h (0 Bft) 94,00 %
11.01.2018 03:54 3,6 C 5,0 C 96 % 1013,1 hPa 0,0 l/m 0,0 km/h (0 Bft) SO 128 0 min 0,000 mm 0,0 UV-I 0 W/m 3,0 C 3,6 C 1,6 km/h (1 Bft) 96,00 %
11.01.2018 03:56 3,6 C 5,0 C 96 % 1013,1 hPa 0,0 l/m 1,1 km/h (1 Bft) SO 128 0 min 0,000 mm 0,0 UV-I 0 W/m 3,0 C 3,6 C 3,2 km/h (1 Bft) 94,00 %
11.01.2018 03:58 3,6 C 5,0 C 96 % 1013,1 hPa 0,0 l/m 2,7 km/h (1 Bft) SO 129 0 min 0,000 mm 0,0 UV-I 0 W/m 3,0 C 3,6 C 4,8 km/h (1 Bft) 95,74 %
11.01.2018 04:00 3,5 C 5,0 C 96 % 1013,2 hPa 0,0 l/m 2,5 km/h (1 Bft) SO 129 0 min 0,000 mm 0,0 UV-I 0 W/m 2,9 C 3,5 C 4,8 km/h (1 Bft) 93,62 %
11.01.2018 04:02 3,6 C 5,0 C 96 % 1013,1 hPa 0,0 l/m 6,0 km/h (2 Bft) O-NO 69 0 min 0,000 mm 0,0 UV-I 0 W/m 3,0 C 3,6 C 11,3 km/h (2 Bft) 95,74 %
11.01.2018 04:04 3,5 C 5,0 C 96 % 1013,1 hPa 0,0 l/m 5,0 km/h (1 Bft) O-SO 103 0 min 0,000 mm 0,0 UV-I 0 W/m 2,9 C 3,5 C 6,4 km/h (2 Bft) 96,00 %
11.01.2018 04:06 3,6 C 5,0 C 95 % 1013,2 hPa 0,0 l/m 3,1 km/h (1 Bft) O-SO 103 0 min 0,000 mm 0,0 UV-I 0 W/m 2,9 C 3,6 C 4,8 km/h (1 Bft) 94,74 %
11.01.2018 04:08 3,6 C 5,0 C 95 % 1013,1 hPa 0,0 l/m 3,3 km/h (1 Bft) O-NO 61 0 min 0,000 mm 0,0 UV-I 0 W/m 2,9 C 3,6 C 6,4 km/h (2 Bft) 95,74 %
11.01.2018 04:10 3,6 C 5,0 C 95 % 1013,1 hPa 0,0 l/m 4,5 km/h (1 Bft) O-NO 76 0 min 0,000 mm 0,0 UV-I 0 W/m 2,9 C 3,6 C 11,3 km/h (2 Bft) 97,14 %
11.01.2018 04:12 3,6 C 5,0 C 95 % 1013,2 hPa 0,0 l/m 6,2 km/h (2 Bft) O 79 0 min 0,000 mm 0,0 UV-I 0 W/m 2,9 C 3,6 C 8,0 km/h (2 Bft) 94,12 %
11.01.2018 04:14 3,5 C 5,0 C 95 % 1013,2 hPa 0,0 l/m 4,1 km/h (1 Bft) O 96 0 min 0,000 mm 0,0 UV-I 0 W/m 2,8 C 3,5 C 6,4 km/h (2 Bft) 95,74 %
11.01.2018 04:16 3,5 C 5,0 C 95 % 1013,2 hPa 0,0 l/m 2,2 km/h (1 Bft) O 96 0 min 0,000 mm 0,0 UV-I 0 W/m 2,8 C 3,5 C 3,2 km/h (1 Bft) 94,29 %
11.01.2018 04:18 3,5 C 5,0 C 95 % 1013,2 hPa 0,0 l/m 0,6 km/h (0 Bft) O 96 0 min 0,000 mm 0,0 UV-I 0 W/m 2,8 C 3,5 C 1,6 km/h (1 Bft) 97,73 %
11.01.2018 04:20 3,5 C 5,0 C 95 % 1013,2 hPa 0,0 l/m 0,2 km/h (0 Bft) O 96 0 min 0,000 mm 0,0 UV-I 0 W/m 2,8 C 3,5 C 1,6 km/h (1 Bft) 96,00 %
11.01.2018 04:22 3,6 C 5,0 C 95 % 1013,1 hPa 0,0 l/m 0,0 km/h (0 Bft) O 96 0 min 0,000 mm 0,0 UV-I 0 W/m 2,9 C 3,6 C 0,0 km/h (0 Bft) 97,87 %
11.01.2018 04:24 3,6 C 5,0 C 95 % 1013,2 hPa 0,0 l/m 0,0 km/h (0 Bft) O 96 0 min 0,000 mm 0,0 UV-I 0 W/m 2,9 C 3,6 C 0,0 km/h (0 Bft) 96,23 %
11.01.2018 04:26 3,6 C 5,0 C 95 % 1013,1 hPa 0,0 l/m 0,0 km/h (0 Bft) O 96 0 min 0,000 mm 0,0 UV-I 0 W/m 2,9 C 3,6 C 0,0 km/h (0 Bft) 95,74 %
11.01.2018 04:28 3,6 C 5,0 C 95 % 1013,1 hPa 0,0 l/m 0,1 km/h (0 Bft) O 96 0 min 0,000 mm 0,0 UV-I 0 W/m 2,9 C 3,6 C 1,6 km/h (1 Bft) 100,00 %
11.01.2018 04:30 3,6 C 5,0 C 95 % 1013,1 hPa 0,0 l/m 1,9 km/h (1 Bft) O 96 0 min 0,000 mm 0,0 UV-I 0 W/m 2,9 C 3,6 C 4,8 km/h (1 Bft) 100,00 %
11.01.2018 04:32 3,6 C 5,0 C 95 % 1013,1 hPa 0,0 l/m 3,5 km/h (1 Bft) O 96 0 min 0,000 mm 0,0 UV-I 0 W/m 2,9 C 3,6 C 6,4 km/h (2 Bft) 100,00 %
11.01.2018 04:34 3,5 C 5,0 C 95 % 1013,1 hPa 0,0 l/m 2,3 km/h (1 Bft) O 96 0 min 0,000 mm 0,0 UV-I 0 W/m 2,8 C 3,5 C 4,8 km/h (1 Bft) 100,00 %
11.01.2018 04:36 3,5 C 5,0 C 95 % 1013,1 hPa 0,0 l/m 1,6 km/h (1 Bft) O 96 0 min 0,000 mm 0,0 UV-I 0 W/m 2,8 C 3,5 C 4,8 km/h (1 Bft) 100,00 %
11.01.2018 04:38 3,5 C 5,0 C 95 % 1013,2 hPa 0,0 l/m 4,1 km/h (1 Bft) O-SO 111 0 min 0,000 mm 0,0 UV-I 0 W/m 2,8 C 3,5 C 6,4 km/h (2 Bft) 100,00 %
11.01.2018 04:40 3,5 C 5,0 C 95 % 1013,2 hPa 0,0 l/m 2,8 km/h (1 Bft) SO 140 0 min 0,000 mm 0,0 UV-I 0 W/m 2,8 C 3,5 C 4,8 km/h (1 Bft) 100,00 %
11.01.2018 04:42 3,4 C 5,0 C 95 % 1013,2 hPa 0,0 l/m 1,2 km/h (1 Bft) SO 140 0 min 0,000 mm 0,0 UV-I 0 W/m 2,7 C 3,4 C 3,2 km/h (1 Bft) 97,87 %
11.01.2018 04:44 3,4 C 5,0 C 95 % 1013,2 hPa 0,0 l/m 0,2 km/h (0 Bft) SO 140 0 min 0,000 mm 0,0 UV-I 0 W/m 2,7 C 3,4 C 1,6 km/h (1 Bft) 100,00 %
11.01.2018 04:46 3,4 C 5,0 C 95 % 1013,2 hPa 0,0 l/m 0,0 km/h (0 Bft) SO 140 0 min 0,000 mm 0,0 UV-I 0 W/m 2,7 C 3,4 C 0,0 km/h (0 Bft) 100,00 %
11.01.2018 04:48 3,4 C 5,0 C 95 % 1013,1 hPa 0,0 l/m 0,4 km/h (0 Bft) SO 140 0 min 0,000 mm 0,0 UV-I 0 W/m 2,7 C 3,4 C 1,6 km/h (1 Bft) 100,00 %
11.01.2018 04:50 3,4 C 5,0 C 95 % 1013,1 hPa 0,0 l/m 4,4 km/h (1 Bft) SO 140 0 min 0,000 mm 0,0 UV-I 0 W/m 2,7 C 3,4 C 8,0 km/h (2 Bft) 100,00 %
11.01.2018 04:52 3,4 C 5,0 C 95 % 1013,1 hPa 0,0 l/m 1,7 km/h (1 Bft) SO 140 0 min 0,000 mm 0,0 UV-I 0 W/m 2,7 C 3,4 C 4,8 km/h (1 Bft) 100,00 %
11.01.2018 04:54 3,4 C 5,0 C 95 % 1013,1 hPa 0,0 l/m 2,9 km/h (1 Bft) S 172 0 min 0,000 mm 0,0 UV-I 0 W/m 2,7 C 3,4 C 6,4 km/h (2 Bft) 97,87 %
11.01.2018 04:56 3,4 C 5,0 C 95 % 1013,2 hPa 0,0 l/m 1,9 km/h (1 Bft) S 172 0 min 0,000 mm 0,0 UV-I 0 W/m 2,7 C 3,4 C 3,2 km/h (1 Bft) 97,87 %
11.01.2018 04:58 3,4 C 5,0 C 95 % 1013,2 hPa 0,0 l/m 0,4 km/h (0 Bft) S 172 0 min 0,000 mm 0,0 UV-I 0 W/m 2,7 C 3,4 C 1,6 km/h (1 Bft) 100,00 %
11.01.2018 05:00 3,4 C 5,0 C 95 % 1013,2 hPa 0,0 l/m 1,7 km/h (1 Bft) S 172 0 min 0,000 mm 0,0 UV-I 0 W/m 2,7 C 3,4 C 3,2 km/h (1 Bft) 100,00 %
11.01.2018 05:02 3,4 C 5,0 C 95 % 1013,2 hPa 0,0 l/m 2,2 km/h (1 Bft) S 172 0 min 0,000 mm 0,0 UV-I 0 W/m 2,7 C 3,4 C 4,8 km/h (1 Bft) 95,74 %
11.01.2018 05:04 3,4 C 5,0 C 95 % 1013,2 hPa 0,0 l/m 2,7 km/h (1 Bft) S 175 0 min 0,000 mm 0,0 UV-I 0 W/m 2,7 C 3,4 C 4,8 km/h (1 Bft) 100,00 %
11.01.2018 05:06 3,4 C 5,0 C 95 % 1013,2 hPa 0,0 l/m 1,0 km/h (0 Bft) S-SO 165 0 min 0,000 mm 0,0 UV-I 0 W/m 2,7 C 3,4 C 6,4 km/h (2 Bft) 100,00 %
11.01.2018 05:08 3,4 C 5,0 C 95 % 1013,2 hPa 0,0 l/m 5,6 km/h (1 Bft) O-NO 71 0 min 0,000 mm 0,0 UV-I 0 W/m 2,7 C 3,4 C 9,7 km/h (2 Bft) 100,00 %
11.01.2018 05:10 3,3 C 5,0 C 95 % 1013,2 hPa 0,0 l/m 4,6 km/h (1 Bft) O-NO 71 0 min 0,000 mm 0,0 UV-I 0 W/m 2,6 C 3,3 C 8,0 km/h (2 Bft) 97,44 %
11.01.2018 05:12 3,3 C 5,0 C 95 % 1013,2 hPa 0,0 l/m 0,0 km/h (0 Bft) O-NO 71 0 min 0,000 mm 0,0 UV-I 0 W/m 2,6 C 3,3 C 0,0 km/h (0 Bft) 100,00 %
11.01.2018 05:14 3,3 C 5,0 C 95 % 1013,2 hPa 0,0 l/m 0,7 km/h (0 Bft) O-NO 71 0 min 0,000 mm 0,0 UV-I 0 W/m 2,6 C 3,3 C 1,6 km/h (1 Bft) 100,00 %
11.01.2018 05:16 3,3 C 5,0 C 95 % 1013,2 hPa 0,0 l/m 0,4 km/h (0 Bft) O-NO 71 0 min 0,000 mm 0,0 UV-I 0 W/m 2,6 C 3,3 C 1,6 km/h (1 Bft) 97,87 %
11.01.2018 05:18 3,4 C 5,0 C 95 % 1013,2 hPa 0,0 l/m 1,7 km/h (1 Bft) O-NO 71 0 min 0,000 mm 0,0 UV-I 0 W/m 2,7 C 3,4 C 4,8 km/h (1 Bft) 100,00 %
11.01.2018 05:20 3,4 C 5,0 C 95 % 1013,2 hPa 0,0 l/m 1,7 km/h (1 Bft) O-NO 71 0 min 0,000 mm 0,0 UV-I 0 W/m 2,7 C 3,4 C 3,2 km/h (1 Bft) 100,00 %
11.01.2018 05:22 3,4 C 5,0 C 95 % 1013,2 hPa 0,0 l/m 2,7 km/h (1 Bft) O-NO 71 0 min 0,000 mm 0,0 UV-I 0 W/m 2,7 C 3,4 C 4,8 km/h (1 Bft) 100,00 %
11.01.2018 05:24 3,4 C 5,0 C 95 % 1013,3 hPa 0,0 l/m 1,0 km/h (0 Bft) O-NO 69 0 min 0,000 mm 0,0 UV-I 0 W/m 2,7 C 3,4 C 3,2 km/h (1 Bft) 100,00 %
11.01.2018 05:26 3,4 C 5,0 C 95 % 1013,3 hPa 0,0 l/m 1,4 km/h (1 Bft) N-NO 20 0 min 0,000 mm 0,0 UV-I 0 W/m 2,7 C 3,4 C 6,4 km/h (2 Bft) 100,00 %
11.01.2018 05:28 3,4 C 5,0 C 96 % 1013,2 hPa 0,0 l/m 3,5 km/h (1 Bft) N-NO 20 0 min 0,000 mm 0,0 UV-I 0 W/m 2,8 C 3,4 C 6,4 km/h (2 Bft) 100,00 %
11.01.2018 05:30 3,4 C 5,0 C 96 % 1013,2 hPa 0,0 l/m 0,0 km/h (0 Bft) N-NO 20 0 min 0,000 mm 0,0 UV-I 0 W/m 2,8 C 3,4 C 0,0 km/h (0 Bft) 100,00 %
11.01.2018 05:32 3,4 C 5,0 C 96 % 1013,2 hPa 0,0 l/m 0,1 km/h (0 Bft) N-NO 20 0 min 0,000 mm 0,0 UV-I 0 W/m 2,8 C 3,4 C 1,6 km/h (1 Bft) 100,00 %
11.01.2018 05:34 3,4 C 5,0 C 95 % 1013,3 hPa 0,0 l/m 0,4 km/h (0 Bft) N-NO 20 0 min 0,000 mm 0,0 UV-I 0 W/m 2,7 C 3,4 C 3,2 km/h (1 Bft) 100,00 %
11.01.2018 05:36 3,3 C 5,0 C 95 % 1013,3 hPa 0,0 l/m 2,3 km/h (1 Bft) N-NO 20 0 min 0,000 mm 0,0 UV-I 0 W/m 2,6 C 3,3 C 3,2 km/h (1 Bft) 100,00 %
11.01.2018 05:38 3,3 C 5,0 C 96 % 1013,3 hPa 0,0 l/m 0,0 km/h (0 Bft) N-NO 20 0 min 0,000 mm 0,0 UV-I 0 W/m 2,7 C 3,3 C 1,6 km/h (1 Bft) 100,00 %
11.01.2018 05:40 3,3 C 5,0 C 96 % 1013,3 hPa 0,0 l/m 0,0 km/h (0 Bft) N-NO 20 0 min 0,000 mm 0,0 UV-I 0 W/m 2,7 C 3,3 C 0,0 km/h (0 Bft) 100,00 %
11.01.2018 05:42 3,4 C 5,0 C 96 % 1013,3 hPa 0,0 l/m 0,6 km/h (0 Bft) N-NO 20 0 min 0,000 mm 0,0 UV-I 0 W/m 2,8 C 3,4 C 1,6 km/h (1 Bft) 97,87 %
11.01.2018 05:44 3,4 C 5,0 C 96 % 1013,4 hPa 0,0 l/m 0,3 km/h (0 Bft) N-NO 20 0 min 0,000 mm 0,0 UV-I 0 W/m 2,8 C 3,4 C 1,6 km/h (1 Bft) 96,30 %
11.01.2018 05:46 3,4 C 5,0 C 96 % 1013,4 hPa 0,0 l/m 2,4 km/h (1 Bft) N-NO 26 0 min 0,000 mm 0,0 UV-I 0 W/m 2,8 C 3,4 C 4,8 km/h (1 Bft) 98,44 %
11.01.2018 05:48 3,3 C 5,0 C 96 % 1013,4 hPa 0,0 l/m 0,8 km/h (0 Bft) N-NO 26 0 min 0,000 mm 0,0 UV-I 0 W/m 2,7 C 3,3 C 1,6 km/h (1 Bft) 98,00 %
11.01.2018 05:50 3,3 C 5,0 C 96 % 1013,4 hPa 0,0 l/m 0,2 km/h (0 Bft) N-NO 26 0 min 0,000 mm 0,0 UV-I 0 W/m 2,7 C 3,3 C 1,6 km/h (1 Bft) 97,44 %
11.01.2018 05:52 3,3 C 5,0 C 96 % 1013,6 hPa 0,0 l/m 0,2 km/h (0 Bft) N-NO 26 0 min 0,000 mm 0,0 UV-I 0 W/m 2,7 C 3,3 C 1,6 km/h (1 Bft) 97,87 %
11.01.2018 05:54 3,4 C 5,0 C 96 % 1013,5 hPa 0,0 l/m 0,0 km/h (0 Bft) N-NO 26 0 min 0,000 mm 0,0 UV-I 0 W/m 2,8 C 3,4 C 0,0 km/h (0 Bft) 96,00 %
11.01.2018 05:56 3,3 C 5,0 C 96 % 1013,5 hPa 0,0 l/m 0,0 km/h (0 Bft) N-NO 26 0 min 0,000 mm 0,0 UV-I 0 W/m 2,7 C 3,3 C 0,0 km/h (0 Bft) 97,87 %
11.01.2018 05:58 3,4 C 5,0 C 96 % 1013,5 hPa 0,0 l/m 0,5 km/h (0 Bft) N-NO 26 0 min 0,000 mm 0,0 UV-I 0 W/m 2,8 C 3,4 C 1,6 km/h (1 Bft) 96,00 %
11.01.2018 06:00 3,3 C 5,0 C 95 % 1013,6 hPa 0,0 l/m 1,5 km/h (1 Bft) O-NO 65 0 min 0,000 mm 0,0 UV-I 0 W/m 2,6 C 3,3 C 4,8 km/h (1 Bft) 96,00 %
11.01.2018 06:02 3,3 C 5,0 C 96 % 1013,6 hPa 0,0 l/m 2,4 km/h (1 Bft) O-NO 65 0 min 0,000 mm 0,0 UV-I 0 W/m 2,7 C 3,3 C 4,8 km/h (1 Bft) 97,14 %
11.01.2018 06:04 3,3 C 5,0 C 96 % 1013,5 hPa 0,0 l/m 4,0 km/h (1 Bft) O-SO 108 0 min 0,000 mm 0,0 UV-I 0 W/m 2,7 C 3,3 C 6,4 km/h (2 Bft) 96,23 %
11.01.2018 06:06 3,3 C 5,0 C 96 % 1013,6 hPa 0,0 l/m 3,6 km/h (1 Bft) SO 133 0 min 0,000 mm 0,0 UV-I 0 W/m 2,7 C 3,3 C 6,4 km/h (2 Bft) 97,87 %
11.01.2018 06:08 3,3 C 5,0 C 96 % 1013,6 hPa 0,0 l/m 1,2 km/h (1 Bft) SO 134 0 min 0,000 mm 0,0 UV-I 0 W/m 2,7 C 3,3 C 3,2 km/h (1 Bft) 95,12 %
11.01.2018 06:10 3,2 C 5,0 C 96 % 1013,6 hPa 0,0 l/m 1,9 km/h (1 Bft) SO 134 0 min 0,000 mm 0,0 UV-I 0 W/m 2,6 C 3,2 C 4,8 km/h (1 Bft) 96,00 %
11.01.2018 06:12 3,2 C 5,0 C 96 % 1013,6 hPa 0,0 l/m 3,5 km/h (1 Bft) O-SO 117 0 min 0,000 mm 0,0 UV-I 0 W/m 2,6 C 3,2 C 6,4 km/h (2 Bft) 97,87 %
11.01.2018 06:14 3,2 C 5,0 C 96 % 1013,6 hPa 0,0 l/m 2,6 km/h (1 Bft) S-SO 148 0 min 0,000 mm 0,0 UV-I 0 W/m 2,6 C 3,2 C 4,8 km/h (1 Bft) 95,74 %
11.01.2018 06:16 3,2 C 5,0 C 96 % 1013,7 hPa 0,0 l/m 2,2 km/h (1 Bft) SO 144 0 min 0,000 mm 0,0 UV-I 0 W/m 2,6 C 3,2 C 4,8 km/h (1 Bft) 96,00 %
11.01.2018 06:18 3,2 C 5,0 C 96 % 1013,6 hPa 0,0 l/m 1,6 km/h (1 Bft) SO 144 0 min 0,000 mm 0,0 UV-I 0 W/m 2,6 C 3,2 C 3,2 km/h (1 Bft) 97,56 %
11.01.2018 06:20 3,2 C 5,0 C 96 % 1013,7 hPa 0,0 l/m 1,2 km/h (1 Bft) SO 144 0 min 0,000 mm 0,0 UV-I 0 W/m 2,6 C 3,2 C 3,2 km/h (1 Bft) 100,00 %
11.01.2018 06:22 3,2 C 5,0 C 96 % 1013,7 hPa 0,0 l/m 1,3 km/h (1 Bft) SO 144 0 min 0,000 mm 0,0 UV-I 0 W/m 2,6 C 3,2 C 4,8 km/h (1 Bft) 100,00 %
11.01.2018 06:24 3,2 C 5,0 C 96 % 1013,8 hPa 0,0 l/m 1,8 km/h (1 Bft) SO 144 0 min 0,000 mm 0,0 UV-I 0 W/m 2,6 C 3,2 C 4,8 km/h (1 Bft) 100,00 %
11.01.2018 06:26 3,2 C 5,0 C 96 % 1013,7 hPa 0,0 l/m 1,2 km/h (1 Bft) SO 144 0 min 0,000 mm 0,0 UV-I 0 W/m 2,6 C 3,2 C 3,2 km/h (1 Bft) 100,00 %
11.01.2018 06:28 3,2 C 5,0 C 96 % 1013,8 hPa 0,0 l/m 2,0 km/h (1 Bft) SO 144 0 min 0,000 mm 0,0 UV-I 0 W/m 2,6 C 3,2 C 4,8 km/h (1 Bft) 100,00 %
11.01.2018 06:30 3,2 C 5,0 C 96 % 1013,8 hPa 0,0 l/m 2,6 km/h (1 Bft) SO 144 0 min 0,000 mm 0,0 UV-I 0 W/m 2,6 C 3,2 C 4,8 km/h (1 Bft) 98,00 %
11.01.2018 06:32 3,2 C 5,0 C 96 % 1013,8 hPa 0,0 l/m 2,0 km/h (1 Bft) SO 144 0 min 0,000 mm 0,0 UV-I 0 W/m 2,6 C 3,2 C 4,8 km/h (1 Bft) 100,00 %
11.01.2018 06:34 3,2 C 5,0 C 96 % 1013,9 hPa 0,0 l/m 2,1 km/h (1 Bft) SO 144 0 min 0,000 mm 0,0 UV-I 0 W/m 2,6 C 3,2 C 4,8 km/h (1 Bft) 100,00 %
11.01.2018 06:36 3,2 C 5,0 C 96 % 1013,9 hPa 0,0 l/m 1,6 km/h (1 Bft) SO 144 0 min 0,000 mm 0,0 UV-I 0 W/m 2,6 C 3,2 C 4,8 km/h (1 Bft) 96,00 %
11.01.2018 06:38 3,2 C 5,0 C 96 % 1013,9 hPa 0,0 l/m 0,6 km/h (0 Bft) SO 144 0 min 0,000 mm 0,0 UV-I 0 W/m 2,6 C 3,2 C 1,6 km/h (1 Bft) 97,87 %
11.01.2018 06:40 3,2 C 5,0 C 96 % 1013,9 hPa 0,0 l/m 0,5 km/h (0 Bft) SO 144 0 min 0,000 mm 0,0 UV-I 0 W/m 2,6 C 3,2 C 1,6 km/h (1 Bft) 97,87 %
11.01.2018 06:42 3,2 C 5,0 C 96 % 1013,9 hPa 0,0 l/m 1,3 km/h (1 Bft) SO 144 0 min 0,000 mm 0,0 UV-I 0 W/m 2,6 C 3,2 C 3,2 km/h (1 Bft) 100,00 %
11.01.2018 06:44 3,2 C 5,0 C 96 % 1013,9 hPa 0,0 l/m 0,6 km/h (0 Bft) SO 144 0 min 0,000 mm 0,0 UV-I 0 W/m 2,6 C 3,2 C 3,2 km/h (1 Bft) 97,87 %
11.01.2018 06:46 3,2 C 5,0 C 96 % 1013,9 hPa 0,0 l/m 1,9 km/h (1 Bft) SO 144 0 min 0,000 mm 0,0 UV-I 0 W/m 2,6 C 3,2 C 3,2 km/h (1 Bft) 97,87 %
11.01.2018 06:48 3,2 C 5,0 C 96 % 1013,9 hPa 0,0 l/m 2,5 km/h (1 Bft) SO 144 0 min 0,000 mm 0,0 UV-I 0 W/m 2,6 C 3,2 C 3,2 km/h (1 Bft) 100,00 %
11.01.2018 06:50 3,2 C 5,0 C 96 % 1013,9 hPa 0,0 l/m 1,7 km/h (1 Bft) SO 144 0 min 0,000 mm 0,0 UV-I 0 W/m 2,6 C 3,2 C 3,2 km/h (1 Bft) 100,00 %
11.01.2018 06:52 3,2 C 5,0 C 96 % 1014,0 hPa 0,0 l/m 1,3 km/h (1 Bft) SO 144 0 min 0,000 mm 0,0 UV-I 0 W/m 2,6 C 3,2 C 4,8 km/h (1 Bft) 100,00 %
11.01.2018 06:54 3,2 C 5,0 C 96 % 1014,0 hPa 0,0 l/m 3,4 km/h (1 Bft) SO 144 0 min 0,000 mm 0,0 UV-I 0 W/m 2,6 C 3,2 C 4,8 km/h (1 Bft) 98,00 %
11.01.2018 06:56 3,2 C 5,0 C 96 % 1014,0 hPa 0,0 l/m 3,5 km/h (1 Bft) O-SO 103 0 min 0,000 mm 0,0 UV-I 0 W/m 2,6 C 3,2 C 4,8 km/h (1 Bft) 100,00 %
11.01.2018 06:58 3,2 C 5,0 C 96 % 1014,1 hPa 0,0 l/m 2,6 km/h (1 Bft) O-SO 103 0 min 0,000 mm 0,0 UV-I 0 W/m 2,6 C 3,2 C 4,8 km/h (1 Bft) 100,00 %
11.01.2018 07:00 3,2 C 5,0 C 96 % 1014,1 hPa 0,0 l/m 2,7 km/h (1 Bft) O-SO 107 0 min 0,000 mm 0,0 UV-I 0 W/m 2,6 C 3,2 C 6,4 km/h (2 Bft) 100,00 %
11.01.2018 07:02 3,2 C 5,0 C 96 % 1014,1 hPa 0,0 l/m 3,7 km/h (1 Bft) SO 145 0 min 0,000 mm 0,0 UV-I 0 W/m 2,6 C 3,2 C 6,4 km/h (2 Bft) 100,00 %
11.01.2018 07:04 3,2 C 5,0 C 96 % 1014,1 hPa 0,0 l/m 1,0 km/h (0 Bft) SO 145 0 min 0,000 mm 0,0 UV-I 0 W/m 2,6 C 3,2 C 3,2 km/h (1 Bft) 100,00 %
11.01.2018 07:06 3,2 C 5,0 C 96 % 1014,1 hPa 0,0 l/m 0,9 km/h (0 Bft) SO 145 0 min 0,000 mm 0,0 UV-I 0 W/m 2,6 C 3,2 C 3,2 km/h (1 Bft) 100,00 %
11.01.2018 07:08 3,2 C 5,0 C 96 % 1014,1 hPa 0,0 l/m 0,2 km/h (0 Bft) SO 145 0 min 0,000 mm 0,0 UV-I 0 W/m 2,6 C 3,2 C 1,6 km/h (1 Bft) 98,00 %
11.01.2018 07:10 3,2 C 5,0 C 96 % 1014,1 hPa 0,0 l/m 0,0 km/h (0 Bft) SO 145 0 min 0,000 mm 0,0 UV-I 0 W/m 2,6 C 3,2 C 0,0 km/h (0 Bft) 100,00 %
11.01.2018 07:12 3,2 C 5,0 C 96 % 1014,1 hPa 0,0 l/m 0,8 km/h (0 Bft) SO 145 0 min 0,000 mm 0,0 UV-I 0 W/m 2,6 C 3,2 C 3,2 km/h (1 Bft) 98,00 %
11.01.2018 07:14 3,2 C 5,0 C 96 % 1014,1 hPa 0,0 l/m 1,3 km/h (1 Bft) SO 145 0 min 0,000 mm 0,0 UV-I 0 W/m 2,6 C 3,2 C 3,2 km/h (1 Bft) 97,87 %
11.01.2018 07:16 3,2 C 5,0 C 96 % 1014,2 hPa 0,0 l/m 2,1 km/h (1 Bft) SO 145 0 min 0,000 mm 0,0 UV-I 0 W/m 2,6 C 3,2 C 3,2 km/h (1 Bft) 91,49 %
11.01.2018 07:18 3,2 C 5,0 C 96 % 1014,2 hPa 0,0 l/m 4,0 km/h (1 Bft) O 94 0 min 0,000 mm 0,0 UV-I 0 W/m 2,6 C 3,2 C 6,4 km/h (2 Bft) 97,37 %
11.01.2018 07:20 3,2 C 5,0 C 96 % 1014,2 hPa 0,0 l/m 3,3 km/h (1 Bft) O 96 0 min 0,000 mm 0,0 UV-I 0 W/m 2,6 C 3,2 C 4,8 km/h (1 Bft) 96,23 %
11.01.2018 07:22 3,1 C 5,0 C 96 % 1014,2 hPa 0,0 l/m 5,7 km/h (1 Bft) O-SO 108 0 min 0,000 mm 0,0 UV-I 0 W/m 2,5 C 3,1 C 8,0 km/h (2 Bft) 97,87 %
11.01.2018 07:24 3,1 C 5,0 C 96 % 1014,2 hPa 0,0 l/m 5,8 km/h (2 Bft) O-SO 121 0 min 0,000 mm 0,0 UV-I 0 W/m 2,5 C 3,1 C 6,4 km/h (2 Bft) 97,56 %
11.01.2018 07:26 3,1 C 5,0 C 96 % 1014,3 hPa 0,0 l/m 3,7 km/h (1 Bft) O-SO 121 0 min 0,000 mm 0,0 UV-I 0 W/m 2,5 C 3,1 C 4,8 km/h (1 Bft) 100,00 %
11.01.2018 07:28 3,1 C 5,0 C 96 % 1014,3 hPa 0,0 l/m 2,6 km/h (1 Bft) SO 134 0 min 0,000 mm 0,0 UV-I 0 W/m 2,5 C 3,1 C 4,8 km/h (1 Bft) 97,14 %
11.01.2018 07:30 3,2 C 5,0 C 96 % 1014,3 hPa 0,0 l/m 0,7 km/h (0 Bft) SO 134 0 min 0,000 mm 0,0 UV-I 0 W/m 2,6 C 3,2 C 3,2 km/h (1 Bft) 98,00 %
11.01.2018 07:32 3,1 C 5,0 C 96 % 1014,3 hPa 0,0 l/m 1,9 km/h (1 Bft) SO 144 0 min 0,000 mm 0,0 UV-I 0 W/m 2,5 C 3,1 C 3,2 km/h (1 Bft) 98,21 %
11.01.2018 07:34 3,1 C 5,0 C 96 % 1014,3 hPa 0,0 l/m 1,6 km/h (1 Bft) SO 144 0 min 0,000 mm 0,0 UV-I 0 W/m 2,5 C 3,1 C 3,2 km/h (1 Bft) 94,74 %
11.01.2018 07:36 3,1 C 5,0 C 96 % 1014,4 hPa 0,0 l/m 1,6 km/h (1 Bft) SO 144 0 min 0,000 mm 0,0 UV-I 0 W/m 2,5 C 3,1 C 4,8 km/h (1 Bft) 98,00 %
11.01.2018 07:38 3,1 C 5,0 C 96 % 1014,4 hPa 0,0 l/m 1,1 km/h (1 Bft) SO 144 0 min 0,000 mm 0,0 UV-I 0 W/m 2,5 C 3,1 C 3,2 km/h (1 Bft) 96,23 %
11.01.2018 07:40 3,1 C 5,0 C 96 % 1014,4 hPa 0,0 l/m 2,3 km/h (1 Bft) SO 144 0 min 0,000 mm 0,0 UV-I 0 W/m 2,5 C 3,1 C 4,8 km/h (1 Bft) 94,74 %
11.01.2018 07:42 3,1 C 5,0 C 96 % 1014,4 hPa 0,0 l/m 5,6 km/h (1 Bft) O-NO 76 0 min 0,000 mm 0,0 UV-I 0 W/m 2,5 C 3,1 C 8,0 km/h (2 Bft) 97,92 %
11.01.2018 07:44 3,1 C 5,0 C 96 % 1014,4 hPa 0,0 l/m 5,4 km/h (1 Bft) O-NO 61 0 min 0,000 mm 0,0 UV-I 0 W/m 2,5 C 3,1 C 6,4 km/h (2 Bft) 95,74 %
11.01.2018 07:46 3,1 C 5,0 C 96 % 1014,5 hPa 0,0 l/m 6,1 km/h (2 Bft) O-NO 66 0 min 0,000 mm 0,0 UV-I 0 W/m 2,5 C 3,1 C 8,0 km/h (2 Bft) 98,18 %
11.01.2018 07:48 3,1 C 5,0 C 96 % 1014,5 hPa 0,0 l/m 7,7 km/h (2 Bft) O 83 0 min 0,000 mm 0,0 UV-I 0 W/m 2,5 C 1,9 C 11,3 km/h (2 Bft) 95,24 %
11.01.2018 07:50 3,0 C 5,0 C 96 % 1014,5 hPa 0,0 l/m 7,0 km/h (2 Bft) O-NO 63 0 min 0,000 mm 0,0 UV-I 0 W/m 2,4 C 2,4 C 11,3 km/h (2 Bft) 95,74 %
11.01.2018 07:52 3,0 C 5,0 C 96 % 1014,5 hPa 0,0 l/m 7,2 km/h (2 Bft) O 93 0 min 0,000 mm 0,0 UV-I 0 W/m 2,4 C 2,2 C 11,3 km/h (2 Bft) 95,74 %
11.01.2018 07:54 3,1 C 5,0 C 96 % 1014,5 hPa 0,0 l/m 4,5 km/h (1 Bft) O-NO 78 0 min 0,000 mm 0,0 UV-I 0 W/m 2,5 C 3,1 C 6,4 km/h (2 Bft) 95,12 %
11.01.2018 07:56 3,0 C 5,0 C 96 % 1014,5 hPa 0,0 l/m 3,7 km/h (1 Bft) O 92 0 min 0,000 mm 0,0 UV-I 0 W/m 2,4 C 3,0 C 4,8 km/h (1 Bft) 94,00 %
11.01.2018 07:58 3,0 C 5,0 C 96 % 1014,5 hPa 0,0 l/m 3,0 km/h (1 Bft) O-SO 102 0 min 0,000 mm 0,0 UV-I 3 W/m 2,4 C 3,0 C 6,4 km/h (2 Bft) 91,84 %
11.01.2018 08:00 3,0 C 5,0 C 96 % 1014,5 hPa 0,0 l/m 0,4 km/h (0 Bft) O-SO 102 0 min 0,000 mm 0,0 UV-I 5 W/m 2,4 C 3,0 C 1,6 km/h (1 Bft) 89,47 %
11.01.2018 08:02 3,0 C 5,0 C 96 % 1014,5 hPa 0,0 l/m 1,1 km/h (1 Bft) O-SO 102 0 min 0,000 mm 0,0 UV-I 5 W/m 2,4 C 3,0 C 3,2 km/h (1 Bft) 96,43 %
11.01.2018 08:04 3,1 C 5,0 C 96 % 1014,5 hPa 0,0 l/m 0,3 km/h (0 Bft) O-SO 102 0 min 0,000 mm 0,0 UV-I 5 W/m 2,5 C 3,1 C 1,6 km/h (1 Bft) 93,62 %
11.01.2018 08:06 3,1 C 5,0 C 96 % 1014,6 hPa 0,0 l/m 0,0 km/h (0 Bft) O-SO 102 0 min 0,000 mm 0,0 UV-I 5 W/m 2,5 C 3,1 C 0,0 km/h (0 Bft) 96,00 %
11.01.2018 08:08 3,1 C 5,0 C 96 % 1014,6 hPa 0,0 l/m 0,1 km/h (0 Bft) O-SO 102 0 min 0,000 mm 0,0 UV-I 5 W/m 2,5 C 3,1 C 1,6 km/h (1 Bft) 94,74 %
11.01.2018 08:10 3,1 C 5,0 C 96 % 1014,6 hPa 0,0 l/m 0,3 km/h (0 Bft) O-SO 102 0 min 0,000 mm 0,0 UV-I 5 W/m 2,5 C 3,1 C 1,6 km/h (1 Bft) 96,00 %
11.01.2018 08:12 3,1 C 5,0 C 96 % 1014,7 hPa 0,0 l/m 1,5 km/h (1 Bft) O-SO 102 0 min 0,000 mm 0,0 UV-I 5 W/m 2,5 C 3,1 C 3,2 km/h (1 Bft) 93,62 %
11.01.2018 08:14 3,1 C 5,0 C 96 % 1014,7 hPa 0,0 l/m 1,7 km/h (1 Bft) O-SO 117 0 min 0,000 mm 0,0 UV-I 5 W/m 2,5 C 3,1 C 3,2 km/h (1 Bft) 95,74 %
11.01.2018 08:16 3,1 C 5,0 C 96 % 1014,7 hPa 0,0 l/m 2,7 km/h (1 Bft) O-SO 119 0 min 0,000 mm 0,0 UV-I 7 W/m 2,5 C 3,1 C 4,8 km/h (1 Bft) 98,11 %
11.01.2018 08:18 3,0 C 5,0 C 96 % 1014,7 hPa 0,0 l/m 0,6 km/h (0 Bft) O-SO 119 0 min 0,000 mm 0,0 UV-I 7 W/m 2,4 C 3,0 C 3,2 km/h (1 Bft) 97,37 %
11.01.2018 08:20 3,0 C 5,0 C 96 % 1014,7 hPa 0,0 l/m 0,4 km/h (0 Bft) O-SO 119 0 min 0,000 mm 0,0 UV-I 6 W/m 2,4 C 3,0 C 1,6 km/h (1 Bft) 97,92 %
11.01.2018 08:22 3,0 C 5,0 C 96 % 1014,7 hPa 0,0 l/m 0,3 km/h (0 Bft) O-SO 119 0 min 0,000 mm 0,0 UV-I 5 W/m 2,4 C 3,0 C 3,2 km/h (1 Bft) 97,37 %
11.01.2018 08:24 3,0 C 5,0 C 96 % 1014,8 hPa 0,0 l/m 1,0 km/h (0 Bft) O-SO 119 0 min 0,000 mm 0,0 UV-I 5 W/m 2,4 C 3,0 C 4,8 km/h (1 Bft) 100,00 %
11.01.2018 08:26 3,0 C 5,0 C 96 % 1014,8 hPa 0,0 l/m 3,9 km/h (1 Bft) O-SO 117 0 min 0,000 mm 0,0 UV-I 5 W/m 2,4 C 3,0 C 6,4 km/h (2 Bft) 97,87 %
11.01.2018 08:28 3,0 C 5,0 C 96 % 1014,8 hPa 0,0 l/m 3,6 km/h (1 Bft) O-SO 117 0 min 0,000 mm 0,0 UV-I 5 W/m 2,4 C 3,0 C 4,8 km/h (1 Bft) 98,00 %
11.01.2018 08:30 3,1 C 5,0 C 96 % 1014,8 hPa 0,0 l/m 3,4 km/h (1 Bft) O-SO 117 0 min 0,000 mm 0,0 UV-I 5 W/m 2,5 C 3,1 C 6,4 km/h (2 Bft) 94,74 %
11.01.2018 08:32 3,0 C 5,0 C 96 % 1014,8 hPa 0,0 l/m 4,2 km/h (1 Bft) O-SO 113 0 min 0,000 mm 0,0 UV-I 6 W/m 2,4 C 3,0 C 6,4 km/h (2 Bft) 100,00 %
11.01.2018 08:34 3,0 C 5,0 C 96 % 1014,8 hPa 0,0 l/m 3,9 km/h (1 Bft) O-SO 111 0 min 0,000 mm 0,0 UV-I 6 W/m 2,4 C 3,0 C 9,7 km/h (2 Bft) 97,87 %
11.01.2018 08:36 2,9 C 5,0 C 96 % 1014,8 hPa 0,0 l/m 4,9 km/h (1 Bft) O-SO 110 0 min 0,000 mm 0,0 UV-I 7 W/m 2,3 C 2,9 C 6,4 km/h (2 Bft) 100,00 %
11.01.2018 08:38 2,9 C 5,0 C 96 % 1014,8 hPa 0,0 l/m 4,9 km/h (1 Bft) O-SO 121 0 min 0,000 mm 0,0 UV-I 7 W/m 2,3 C 2,9 C 9,7 km/h (2 Bft) 100,00 %
11.01.2018 08:40 3,0 C 5,0 C 96 % 1014,8 hPa 0,0 l/m 4,4 km/h (1 Bft) O-SO 106 0 min 0,000 mm 0,0 UV-I 7 W/m 2,4 C 3,0 C 8,0 km/h (2 Bft) 100,00 %
11.01.2018 08:42 2,9 C 5,0 C 96 % 1014,9 hPa 0,0 l/m 4,3 km/h (1 Bft) O 82 0 min 0,000 mm 0,0 UV-I 7 W/m 2,3 C 2,9 C 6,4 km/h (2 Bft) 100,00 %
11.01.2018 08:44 2,9 C 5,0 C 96 % 1014,8 hPa 0,0 l/m 2,6 km/h (1 Bft) O 82 0 min 0,000 mm 0,0 UV-I 7 W/m 2,3 C 2,9 C 3,2 km/h (1 Bft) 100,00 %
11.01.2018 08:46 2,9 C 5,0 C 96 % 1014,8 hPa 0,0 l/m 1,4 km/h (1 Bft) O 82 0 min 0,000 mm 0,0 UV-I 7 W/m 2,3 C 2,9 C 3,2 km/h (1 Bft) 97,87 %
11.01.2018 08:48 3,0 C 5,0 C 96 % 1014,9 hPa 0,0 l/m 0,7 km/h (0 Bft) O 82 0 min 0,000 mm 0,0 UV-I 7 W/m 2,4 C 3,0 C 3,2 km/h (1 Bft) 100,00 %
11.01.2018 08:50 2,9 C 5,0 C 96 % 1014,9 hPa 0,0 l/m 0,7 km/h (0 Bft) O 82 0 min 0,000 mm 0,0 UV-I 7 W/m 2,3 C 2,9 C 3,2 km/h (1 Bft) 100,00 %
11.01.2018 08:52 2,9 C 5,0 C 96 % 1014,9 hPa 0,0 l/m 2,8 km/h (1 Bft) O-SO 105 0 min 0,000 mm 0,0 UV-I 7 W/m 2,3 C 2,9 C 4,8 km/h (1 Bft) 100,00 %
11.01.2018 08:54 2,9 C 5,0 C 96 % 1014,9 hPa 0,0 l/m 3,9 km/h (1 Bft) SO 138 0 min 0,000 mm 0,0 UV-I 7 W/m 2,3 C 2,9 C 6,4 km/h (2 Bft) 100,00 %
11.01.2018 08:56 2,9 C 5,0 C 96 % 1015,0 hPa 0,0 l/m 3,5 km/h (1 Bft) SO 141 0 min 0,000 mm 0,0 UV-I 7 W/m 2,3 C 2,9 C 4,8 km/h (1 Bft) 100,00 %
11.01.2018 08:58 2,9 C 5,0 C 97 % 1015,0 hPa 0,0 l/m 1,8 km/h (1 Bft) SO 141 0 min 0,000 mm 0,0 UV-I 7 W/m 2,5 C 2,9 C 4,8 km/h (1 Bft) 100,00 %
11.01.2018 09:00 2,9 C 5,0 C 97 % 1015,0 hPa 0,0 l/m 2,9 km/h (1 Bft) SO 141 0 min 0,000 mm 0,0 UV-I 7 W/m 2,5 C 2,9 C 6,4 km/h (2 Bft) 98,04 %
11.01.2018 09:02 2,9 C 5,0 C 97 % 1015,0 hPa 0,0 l/m 3,3 km/h (1 Bft) SO 141 0 min 0,000 mm 0,0 UV-I 7 W/m 2,5 C 2,9 C 4,8 km/h (1 Bft) 100,00 %
11.01.2018 09:04 2,9 C 5,0 C 97 % 1015,0 hPa 0,0 l/m 4,3 km/h (1 Bft) SO 126 0 min 0,000 mm 0,0 UV-I 7 W/m 2,5 C 2,9 C 6,4 km/h (2 Bft) 98,00 %
11.01.2018 09:06 2,9 C 5,0 C 97 % 1015,1 hPa 0,0 l/m 5,0 km/h (1 Bft) O-SO 121 0 min 0,000 mm 0,0 UV-I 7 W/m 2,5 C 2,9 C 6,4 km/h (2 Bft) 100,00 %
11.01.2018 09:08 2,9 C 5,0 C 97 % 1015,1 hPa 0,0 l/m 4,1 km/h (1 Bft) O-SO 122 0 min 0,000 mm 0,0 UV-I 7 W/m 2,5 C 2,9 C 6,4 km/h (2 Bft) 100,00 %
11.01.2018 09:10 2,9 C 5,0 C 97 % 1015,1 hPa 0,0 l/m 4,0 km/h (1 Bft) SO 137 0 min 0,000 mm 0,0 UV-I 7 W/m 2,5 C 2,9 C 6,4 km/h (2 Bft) 97,87 %
11.01.2018 09:12 2,9 C 5,0 C 97 % 1015,2 hPa 0,0 l/m 5,5 km/h (1 Bft) O 92 0 min 0,000 mm 0,0 UV-I 8 W/m 2,5 C 2,9 C 9,7 km/h (2 Bft) 100,00 %
11.01.2018 09:14 2,9 C 5,0 C 97 % 1015,2 hPa 0,0 l/m 3,7 km/h (1 Bft) O 88 0 min 0,000 mm 0,0 UV-I 9 W/m 2,5 C 2,9 C 4,8 km/h (1 Bft) 100,00 %
11.01.2018 09:16 2,9 C 5,0 C 97 % 1015,2 hPa 0,0 l/m 3,9 km/h (1 Bft) O-NO 71 0 min 0,000 mm 0,0 UV-I 9 W/m 2,5 C 2,9 C 6,4 km/h (2 Bft) 100,00 %
11.01.2018 09:18 2,9 C 5,0 C 97 % 1015,2 hPa 0,0 l/m 2,6 km/h (1 Bft) O-NO 71 0 min 0,000 mm 0,0 UV-I 9 W/m 2,5 C 2,9 C 4,8 km/h (1 Bft) 97,37 %
11.01.2018 09:20 2,9 C 5,0 C 97 % 1015,2 hPa 0,0 l/m 1,2 km/h (1 Bft) O-NO 71 0 min 0,000 mm 0,0 UV-I 9 W/m 2,5 C 2,9 C 1,6 km/h (1 Bft) 100,00 %
11.01.2018 09:22 2,9 C 5,0 C 97 % 1015,2 hPa 0,0 l/m 1,7 km/h (1 Bft) O-NO 71 0 min 0,000 mm 0,0 UV-I 9 W/m 2,5 C 2,9 C 3,2 km/h (1 Bft) 100,00 %
11.01.2018 09:24 2,9 C 5,0 C 97 % 1015,1 hPa 0,0 l/m 2,8 km/h (1 Bft) NO 43 0 min 0,000 mm 0,0 UV-I 11 W/m 2,5 C 2,9 C 6,4 km/h (2 Bft) 96,00 %
11.01.2018 09:26 2,9 C 5,0 C 96 % 1015,1 hPa 0,0 l/m 2,4 km/h (1 Bft) NO 44 0 min 0,000 mm 0,0 UV-I 11 W/m 2,3 C 2,9 C 4,8 km/h (1 Bft) 100,00 %
11.01.2018 09:28 2,9 C 5,0 C 97 % 1015,1 hPa 0,0 l/m 0,4 km/h (0 Bft) O-NO 70 0 min 0,000 mm 0,0 UV-I 11 W/m 2,5 C 2,9 C 3,2 km/h (1 Bft) 98,00 %
11.01.2018 09:30 2,9 C 5,0 C 97 % 1015,1 hPa 0,0 l/m 2,3 km/h (1 Bft) O-NO 74 0 min 0,000 mm 0,0 UV-I 11 W/m 2,5 C 2,9 C 3,2 km/h (1 Bft) 100,00 %
11.01.2018 09:32 2,9 C 5,0 C 97 % 1015,2 hPa 0,0 l/m 3,5 km/h (1 Bft) O-SO 111 0 min 0,000 mm 0,0 UV-I 11 W/m 2,5 C 2,9 C 6,4 km/h (2 Bft) 100,00 %
11.01.2018 09:34 2,9 C 5,0 C 97 % 1015,2 hPa 0,0 l/m 2,4 km/h (1 Bft) O-SO 111 0 min 0,000 mm 0,0 UV-I 14 W/m 2,5 C 2,9 C 4,8 km/h (1 Bft) 100,00 %
11.01.2018 09:36 2,9 C 5,0 C 97 % 1015,2 hPa 0,0 l/m 2,6 km/h (1 Bft) O-SO 113 0 min 0,000 mm 0,0 UV-I 16 W/m 2,5 C 2,9 C 6,4 km/h (2 Bft) 100,00 %
11.01.2018 09:38 2,8 C 5,0 C 97 % 1015,2 hPa 0,0 l/m 1,6 km/h (1 Bft) O-SO 121 0 min 0,000 mm 0,0 UV-I 15 W/m 2,4 C 2,8 C 4,8 km/h (1 Bft) 98,00 %
11.01.2018 09:40 2,8 C 5,0 C 97 % 1015,2 hPa 0,0 l/m 2,2 km/h (1 Bft) O-SO 121 0 min 0,000 mm 0,0 UV-I 16 W/m 2,4 C 2,8 C 4,8 km/h (1 Bft) 100,00 %
11.01.2018 09:42 2,8 C 5,0 C 97 % 1015,2 hPa 0,0 l/m 1,9 km/h (1 Bft) O-SO 121 0 min 0,000 mm 0,0 UV-I 20 W/m 2,4 C 2,8 C 3,2 km/h (1 Bft) 100,00 %
11.01.2018 09:44 2,9 C 5,0 C 97 % 1015,2 hPa 0,0 l/m 2,5 km/h (1 Bft) O-NO 71 0 min 0,000 mm 0,0 UV-I 21 W/m 2,5 C 2,9 C 6,4 km/h (2 Bft) 100,00 %
11.01.2018 09:46 2,9 C 5,0 C 97 % 1015,2 hPa 0,0 l/m 3,4 km/h (1 Bft) O-NO 71 0 min 0,000 mm 0,0 UV-I 21 W/m 2,5 C 2,9 C 4,8 km/h (1 Bft) 100,00 %
11.01.2018 09:48 2,9 C 5,0 C 97 % 1015,2 hPa 0,0 l/m 3,9 km/h (1 Bft) O-SO 105 0 min 0,000 mm 0,0 UV-I 22 W/m 2,5 C 2,9 C 6,4 km/h (2 Bft) 100,00 %
11.01.2018 09:50 2,9 C 5,0 C 97 % 1015,3 hPa 0,0 l/m 4,7 km/h (1 Bft) O-SO 115 0 min 0,000 mm 0,0 UV-I 24 W/m 2,5 C 2,9 C 6,4 km/h (2 Bft) 98,00 %
11.01.2018 09:52 2,9 C 5,0 C 97 % 1015,2 hPa 0,0 l/m 3,8 km/h (1 Bft) O 90 0 min 0,000 mm 0,0 UV-I 27 W/m 2,5 C 2,9 C 11,3 km/h (2 Bft) 96,23 %
11.01.2018 09:54 2,9 C 5,0 C 97 % 1015,2 hPa 0,0 l/m 8,8 km/h (2 Bft) O 99 0 min 0,000 mm 0,0 UV-I 28 W/m 2,5 C 0,7 C 11,3 km/h (2 Bft) 97,37 %
11.01.2018 09:56 2,9 C 5,0 C 97 % 1015,2 hPa 0,0 l/m 7,7 km/h (2 Bft) O 80 0 min 0,000 mm 0,0 UV-I 28 W/m 2,5 C 1,7 C 12,9 km/h (3 Bft) 95,74 %
11.01.2018 09:58 2,9 C 5,0 C 97 % 1015,3 hPa 0,0 l/m 4,9 km/h (1 Bft) O-SO 106 0 min 0,000 mm 0,0 UV-I 28 W/m 2,5 C 2,9 C 6,4 km/h (2 Bft) 95,74 %
11.01.2018 10:00 2,8 C 5,0 C 97 % 1015,3 hPa 0,0 l/m 6,4 km/h (2 Bft) O 94 0 min 0,000 mm 0,0 UV-I 30 W/m 2,4 C 2,8 C 9,7 km/h (2 Bft) 98,21 %
11.01.2018 10:02 2,8 C 5,0 C 97 % 1015,3 hPa 0,0 l/m 6,2 km/h (2 Bft) O 98 0 min 0,000 mm 0,0 UV-I 28 W/m 2,4 C 2,8 C 11,3 km/h (2 Bft) 97,87 %
11.01.2018 10:04 2,8 C 5,0 C 97 % 1015,3 hPa 0,0 l/m 6,4 km/h (2 Bft) O-SO 115 0 min 0,000 mm 0,0 UV-I 28 W/m 2,4 C 2,8 C 11,3 km/h (2 Bft) 97,37 %
11.01.2018 10:06 2,9 C 5,0 C 97 % 1015,3 hPa 0,0 l/m 0,2 km/h (0 Bft) O-SO 115 0 min 0,000 mm 0,0 UV-I 28 W/m 2,5 C 2,9 C 1,6 km/h (1 Bft) 98,21 %
11.01.2018 10:08 2,9 C 5,0 C 97 % 1015,4 hPa 0,0 l/m 0,1 km/h (0 Bft) O-SO 115 0 min 0,000 mm 0,0 UV-I 26 W/m 2,5 C 2,9 C 1,6 km/h (1 Bft) 95,74 %
11.01.2018 10:10 2,9 C 5,0 C 97 % 1015,4 hPa 0,0 l/m 0,3 km/h (0 Bft) O-SO 115 0 min 0,000 mm 0,0 UV-I 27 W/m 2,5 C 2,9 C 1,6 km/h (1 Bft) 97,14 %
11.01.2018 10:12 2,9 C 5,0 C 97 % 1015,4 hPa 0,0 l/m 2,9 km/h (1 Bft) S-SO 153 0 min 0,000 mm 0,0 UV-I 28 W/m 2,5 C 2,9 C 8,0 km/h (2 Bft) 96,23 %
11.01.2018 10:14 2,9 C 5,0 C 97 % 1015,4 hPa 0,0 l/m 2,7 km/h (1 Bft) SO 132 0 min 0,000 mm 0,0 UV-I 30 W/m 2,5 C 2,9 C 8,0 km/h (2 Bft) 98,11 %
11.01.2018 10:16 2,9 C 5,0 C 97 % 1015,4 hPa 0,0 l/m 2,5 km/h (1 Bft) S-SO 148 0 min 0,000 mm 0,0 UV-I 32 W/m 2,5 C 2,9 C 6,4 km/h (2 Bft) 95,12 %
11.01.2018 10:18 2,9 C 5,0 C 97 % 1015,4 hPa 0,0 l/m 3,0 km/h (1 Bft) S-SO 148 0 min 0,000 mm 0,0 UV-I 30 W/m 2,5 C 2,9 C 4,8 km/h (1 Bft) 97,62 %
11.01.2018 10:20 2,9 C 5,0 C 97 % 1015,4 hPa 0,0 l/m 3,7 km/h (1 Bft) O-SO 119 0 min 0,000 mm 0,0 UV-I 30 W/m 2,5 C 2,9 C 4,8 km/h (1 Bft) 98,00 %
11.01.2018 10:22 2,9 C 5,0 C 97 % 1015,4 hPa 0,0 l/m 4,8 km/h (1 Bft) SO 139 0 min 0,000 mm 0,0 UV-I 32 W/m 2,5 C 2,9 C 6,4 km/h (2 Bft) 98,00 %
11.01.2018 10:24 2,9 C 5,0 C 97 % 1015,4 hPa 0,0 l/m 5,1 km/h (1 Bft) SO 133 0 min 0,000 mm 0,0 UV-I 30 W/m 2,5 C 2,9 C 8,0 km/h (2 Bft) 94,00 %
11.01.2018 10:26 2,9 C 5,0 C 97 % 1015,5 hPa 0,0 l/m 3,6 km/h (1 Bft) S-SO 160 0 min 0,000 mm 0,0 UV-I 30 W/m 2,5 C 2,9 C 6,4 km/h (2 Bft) 97,87 %
11.01.2018 10:28 2,9 C 5,0 C 97 % 1015,5 hPa 0,0 l/m 3,5 km/h (1 Bft) S-SO 159 0 min 0,000 mm 0,0 UV-I 30 W/m 2,5 C 2,9 C 6,4 km/h (2 Bft) 100,00 %
11.01.2018 10:30 2,9 C 5,0 C 97 % 1015,4 hPa 0,0 l/m 2,9 km/h (1 Bft) S-SO 159 0 min 0,000 mm 0,0 UV-I 30 W/m 2,5 C 2,9 C 3,2 km/h (1 Bft) 100,00 %
11.01.2018 10:32 2,9 C 5,0 C 97 % 1015,5 hPa 0,0 l/m 5,3 km/h (1 Bft) O-NO 71 0 min 0,000 mm 0,0 UV-I 30 W/m 2,5 C 2,9 C 8,0 km/h (2 Bft) 97,87 %
11.01.2018 10:34 2,9 C 5,0 C 97 % 1015,5 hPa 0,0 l/m 6,4 km/h (2 Bft) O-NO 69 0 min 0,000 mm 0,0 UV-I 30 W/m 2,5 C 2,9 C 9,7 km/h (2 Bft) 100,00 %
11.01.2018 10:36 2,9 C 5,0 C 97 % 1015,5 hPa 0,0 l/m 6,9 km/h (2 Bft) NO 51 0 min 0,000 mm 0,0 UV-I 30 W/m 2,5 C 2,4 C 9,7 km/h (2 Bft) 100,00 %
11.01.2018 10:38 2,9 C 5,0 C 97 % 1015,5 hPa 0,0 l/m 5,9 km/h (2 Bft) NO 45 0 min 0,000 mm 0,0 UV-I 30 W/m 2,5 C 2,9 C 8,0 km/h (2 Bft) 100,00 %
11.01.2018 10:40 2,9 C 5,0 C 97 % 1015,5 hPa 0,0 l/m 9,0 km/h (2 Bft) NO 54 0 min 0,000 mm 0,0 UV-I 30 W/m 2,5 C 0,5 C 11,3 km/h (2 Bft) 100,00 %
11.01.2018 10:42 2,9 C 5,0 C 97 % 1015,5 hPa 0,0 l/m 7,3 km/h (2 Bft) O-NO 71 0 min 0,000 mm 0,0 UV-I 32 W/m 2,5 C 2,0 C 8,0 km/h (2 Bft) 100,00 %
11.01.2018 10:44 2,9 C 5,0 C 97 % 1015,5 hPa 0,0 l/m 5,8 km/h (2 Bft) O 85 0 min 0,000 mm 0,0 UV-I 31 W/m 2,5 C 2,9 C 9,7 km/h (2 Bft) 100,00 %
11.01.2018 10:46 2,9 C 5,0 C 97 % 1015,5 hPa 0,0 l/m 5,3 km/h (1 Bft) O-NO 57 0 min 0,000 mm 0,0 UV-I 33 W/m 2,5 C 2,9 C 6,4 km/h (2 Bft) 100,00 %
11.01.2018 10:48 2,9 C 5,0 C 97 % 1015,5 hPa 0,0 l/m 4,8 km/h (1 Bft) O-NO 66 0 min 0,000 mm 0,0 UV-I 33 W/m 2,5 C 2,9 C 8,0 km/h (2 Bft) 98,00 %
11.01.2018 10:50 2,9 C 5,0 C 97 % 1015,5 hPa 0,0 l/m 5,0 km/h (1 Bft) O-NO 65 0 min 0,000 mm 0,0 UV-I 33 W/m 2,5 C 2,9 C 6,4 km/h (2 Bft) 100,00 %
11.01.2018 10:52 2,9 C 5,0 C 97 % 1015,5 hPa 0,0 l/m 3,7 km/h (1 Bft) O-NO 65 0 min 0,000 mm 0,0 UV-I 32 W/m 2,5 C 2,9 C 6,4 km/h (2 Bft) 100,00 %
11.01.2018 10:54 3,0 C 5,0 C 97 % 1015,5 hPa 0,0 l/m 5,6 km/h (1 Bft) NO 37 0 min 0,000 mm 0,0 UV-I 29 W/m 2,6 C 3,0 C 9,7 km/h (2 Bft) 97,87 %
11.01.2018 10:56 3,0 C 5,0 C 97 % 1015,5 hPa 0,0 l/m 7,4 km/h (2 Bft) O-SO 106 0 min 0,000 mm 0,0 UV-I 29 W/m 2,6 C 2,1 C 11,3 km/h (2 Bft) 97,62 %
11.01.2018 11:00 2,9 C 5,0 C 97 % 1015,5 hPa 0,0 l/m 8,0 km/h (2 Bft) O-NO 67 0 min 0,000 mm 0,0 UV-I 32 W/m 2,5 C 1,4 C 11,3 km/h (2 Bft) 94,74 %
11.01.2018 11:02 2,9 C 5,0 C 97 % 1015,5 hPa 0,0 l/m 7,4 km/h (2 Bft) NO 38 0 min 0,000 mm 0,0 UV-I 32 W/m 2,5 C 1,9 C 11,3 km/h (2 Bft) 98,59 %
11.01.2018 11:04 2,9 C 5,0 C 97 % 1015,5 hPa 0,0 l/m 9,8 km/h (2 Bft) NO 45 0 min 0,000 mm 0,0 UV-I 33 W/m 2,5 C -0,1 C 14,5 km/h (3 Bft) 100,00 %
11.01.2018 11:06 2,9 C 5,0 C 97 % 1015,5 hPa 0,0 l/m 8,1 km/h (2 Bft) NO 42 0 min 0,000 mm 0,0 UV-I 32 W/m 2,5 C 1,3 C 14,5 km/h (3 Bft) 97,87 %
11.01.2018 11:10 2,9 C 5,0 C 97 % 1015,5 hPa 0,0 l/m 8,0 km/h (2 Bft) NO 45 0 min 0,000 mm 0,0 UV-I 32 W/m 2,5 C 1,4 C 14,5 km/h (3 Bft) 100,00 %
11.01.2018 11:15 2,9 C 5,0 C 97 % 1015,5 hPa 0,0 l/m 8,0 km/h (2 Bft) NO 45 0 min 0,000 mm 0,0 UV-I 37 W/m 2,5 C 1,4 C 14,5 km/h (3 Bft) 100,00 %
11.01.2018 11:20 2,8 C 5,0 C 97 % 1015,5 hPa 0,0 l/m 9,3 km/h (2 Bft) NO 49 0 min 0,000 mm 0,0 UV-I 37 W/m 2,4 C 0,2 C 12,9 km/h (3 Bft) 97,24 %
11.01.2018 11:25 2,8 C 5,0 C 97 % 1015,5 hPa 0,0 l/m 8,0 km/h (2 Bft) O-NO 67 0 min 0,000 mm 0,0 UV-I 36 W/m 2,4 C 1,3 C 12,9 km/h (3 Bft) 100,00 %
11.01.2018 11:26 2,8 C 5,0 C 97 % 1015,5 hPa 0,0 l/m 8,4 km/h (2 Bft) NO 44 0 min 0,000 mm 0,0 UV-I 37 W/m 2,4 C 0,9 C 9,7 km/h (2 Bft) 97,83 %
11.01.2018 11:28 2,8 C 5,0 C 97 % 1015,5 hPa 0,0 l/m 8,5 km/h (2 Bft) O-NO 69 0 min 0,000 mm 0,0 UV-I 39 W/m 2,4 C 0,9 C 12,9 km/h (3 Bft) 96,36 %
11.01.2018 11:30 2,8 C 5,0 C 97 % 1015,5 hPa 0,0 l/m 7,8 km/h (2 Bft) NO 54 0 min 0,000 mm 0,0 UV-I 40 W/m 2,4 C 1,5 C 11,3 km/h (2 Bft) 97,44 %
11.01.2018 11:34 2,8 C 5,0 C 97 % 1015,5 hPa 0,0 l/m 6,4 km/h (2 Bft) NO 47 0 min 0,000 mm 0,0 UV-I 43 W/m 2,4 C 2,8 C 9,7 km/h (2 Bft) 98,02 %
11.01.2018 11:36 2,8 C 5,0 C 97 % 1015,6 hPa 0,0 l/m 6,2 km/h (2 Bft) NO 42 0 min 0,000 mm 0,0 UV-I 43 W/m 2,4 C 2,8 C 8,0 km/h (2 Bft) 97,56 %
11.01.2018 11:38 2,8 C 5,0 C 96 % 1015,6 hPa 0,0 l/m 6,4 km/h (2 Bft) NO 39 0 min 0,000 mm 0,0 UV-I 45 W/m 2,2 C 2,8 C 12,9 km/h (3 Bft) 91,49 %
11.01.2018 11:40 2,8 C 5,0 C 97 % 1015,5 hPa 0,0 l/m 8,4 km/h (2 Bft) N-NO 25 0 min 0,000 mm 0,0 UV-I 46 W/m 2,4 C 0,9 C 11,3 km/h (2 Bft) 94,00 %
11.01.2018 11:42 2,8 C 5,0 C 97 % 1015,5 hPa 0,0 l/m 6,1 km/h (2 Bft) N-NO 21 0 min 0,000 mm 0,0 UV-I 44 W/m 2,4 C 2,8 C 8,0 km/h (2 Bft) 100,00 %
11.01.2018 11:44 2,8 C 5,0 C 97 % 1015,5 hPa 0,0 l/m 1,8 km/h (1 Bft) N 9 0 min 0,000 mm 0,0 UV-I 43 W/m 2,4 C 2,8 C 3,2 km/h (1 Bft) 97,87 %
11.01.2018 11:46 2,9 C 5,0 C 97 % 1015,5 hPa 0,0 l/m 2,1 km/h (1 Bft) N-NO 28 0 min 0,000 mm 0,0 UV-I 42 W/m 2,5 C 2,9 C 6,4 km/h (2 Bft) 97,37 %
11.01.2018 11:48 2,9 C 5,0 C 97 % 1015,5 hPa 0,0 l/m 7,2 km/h (2 Bft) NO 34 0 min 0,000 mm 0,0 UV-I 40 W/m 2,5 C 2,1 C 12,9 km/h (3 Bft) 98,11 %
11.01.2018 11:50 2,8 C 5,0 C 97 % 1015,5 hPa 0,0 l/m 5,9 km/h (2 Bft) NO 54 0 min 0,000 mm 0,0 UV-I 40 W/m 2,4 C 2,8 C 9,7 km/h (2 Bft) 97,87 %
11.01.2018 11:52 2,8 C 5,0 C 97 % 1015,5 hPa 0,0 l/m 5,6 km/h (1 Bft) NO 45 0 min 0,000 mm 0,0 UV-I 41 W/m 2,4 C 2,8 C 9,7 km/h (2 Bft) 98,00 %
11.01.2018 11:54 2,8 C 5,0 C 97 % 1015,5 hPa 0,0 l/m 3,7 km/h (1 Bft) N-NO 15 0 min 0,000 mm 0,0 UV-I 40 W/m 2,4 C 2,8 C 6,4 km/h (2 Bft) 93,62 %
11.01.2018 11:56 2,9 C 5,0 C 97 % 1015,5 hPa 0,0 l/m 2,6 km/h (1 Bft) NO 40 0 min 0,000 mm 0,0 UV-I 36 W/m 2,5 C 2,9 C 6,4 km/h (2 Bft) 93,62 %
11.01.2018 11:58 2,9 C 5,0 C 97 % 1015,5 hPa 0,0 l/m 4,6 km/h (1 Bft) NO 35 0 min 0,000 mm 0,0 UV-I 35 W/m 2,5 C 2,9 C 8,0 km/h (2 Bft) 94,87 %
11.01.2018 12:00 2,8 C 5,0 C 97 % 1015,5 hPa 0,0 l/m 4,2 km/h (1 Bft) NO 34 0 min 0,025 mm 0,0 UV-I 36 W/m 2,4 C 2,8 C 6,4 km/h (2 Bft) 92,00 %
11.01.2018 12:02 2,8 C 5,0 C 97 % 1015,5 hPa 0,0 l/m 3,9 km/h (1 Bft) O-NO 58 0 min 0,000 mm 0,0 UV-I 37 W/m 2,4 C 2,8 C 6,4 km/h (2 Bft) 95,12 %
11.01.2018 12:04 2,8 C 5,0 C 97 % 1015,5 hPa 0,0 l/m 6,9 km/h (2 Bft) O-NO 69 0 min 0,000 mm 0,0 UV-I 37 W/m 2,4 C 2,3 C 12,9 km/h (3 Bft) 94,34 %
11.01.2018 12:06 2,7 C 5,0 C 97 % 1015,5 hPa 0,0 l/m 9,2 km/h (2 Bft) O-NO 63 0 min 0,000 mm 0,0 UV-I 39 W/m 2,3 C 0,2 C 12,9 km/h (3 Bft) 93,62 %
11.01.2018 12:08 2,7 C 5,0 C 96 % 1015,5 hPa 0,0 l/m 8,9 km/h (2 Bft) O 80 0 min 0,000 mm 0,0 UV-I 41 W/m 2,1 C 0,4 C 12,9 km/h (3 Bft) 93,62 %
11.01.2018 12:10 2,7 C 5,0 C 96 % 1015,5 hPa 0,0 l/m 7,3 km/h (2 Bft) O 84 0 min 0,000 mm 0,0 UV-I 43 W/m 2,1 C 1,8 C 11,3 km/h (2 Bft) 97,56 %
11.01.2018 12:12 2,7 C 5,0 C 96 % 1015,5 hPa 0,0 l/m 4,0 km/h (1 Bft) SO 133 0 min 0,000 mm 0,0 UV-I 42 W/m 2,1 C 2,7 C 6,4 km/h (2 Bft) 96,00 %
11.01.2018 12:14 2,7 C 5,0 C 96 % 1015,5 hPa 0,0 l/m 3,9 km/h (1 Bft) O-NO 71 0 min 0,000 mm 0,0 UV-I 40 W/m 2,1 C 2,7 C 4,8 km/h (1 Bft) 94,00 %
11.01.2018 12:16 2,8 C 5,0 C 96 % 1015,5 hPa 0,0 l/m 3,9 km/h (1 Bft) O-NO 71 0 min 0,000 mm 0,0 UV-I 39 W/m 2,2 C 2,8 C 6,4 km/h (2 Bft) 98,00 %
11.01.2018 12:18 2,7 C 5,0 C 96 % 1015,4 hPa 0,0 l/m 4,1 km/h (1 Bft) O-NO 71 0 min 0,000 mm 0,0 UV-I 40 W/m 2,1 C 2,7 C 4,8 km/h (1 Bft) 97,56 %
11.01.2018 12:20 2,8 C 5,0 C 97 % 1015,5 hPa 0,0 l/m 4,9 km/h (1 Bft) O 87 0 min 0,000 mm 0,0 UV-I 37 W/m 2,4 C 2,8 C 8,0 km/h (2 Bft) 97,87 %
11.01.2018 12:22 2,7 C 5,0 C 96 % 1015,5 hPa 0,0 l/m 6,0 km/h (2 Bft) O 90 0 min 0,000 mm 0,0 UV-I 34 W/m 2,1 C 2,7 C 8,0 km/h (2 Bft) 97,87 %
11.01.2018 12:24 2,7 C 5,0 C 96 % 1015,5 hPa 0,0 l/m 4,6 km/h (1 Bft) O-NO 69 0 min 0,000 mm 0,0 UV-I 35 W/m 2,1 C 2,7 C 9,7 km/h (2 Bft) 98,00 %
11.01.2018 12:26 2,8 C 5,0 C 97 % 1015,5 hPa 0,0 l/m 4,7 km/h (1 Bft) O-SO 111 0 min 0,000 mm 0,0 UV-I 37 W/m 2,4 C 2,8 C 6,4 km/h (2 Bft) 97,37 %
11.01.2018 12:28 2,8 C 5,0 C 97 % 1015,4 hPa 0,0 l/m 4,7 km/h (1 Bft) O 80 0 min 0,000 mm 0,0 UV-I 37 W/m 2,4 C 2,8 C 9,7 km/h (2 Bft) 100,00 %
11.01.2018 12:30 2,8 C 5,0 C 97 % 1015,5 hPa 0,0 l/m 4,0 km/h (1 Bft) O-NO 74 0 min 0,000 mm 0,0 UV-I 35 W/m 2,4 C 2,8 C 6,4 km/h (2 Bft) 100,00 %
11.01.2018 12:32 2,8 C 5,0 C 97 % 1015,5 hPa 0,0 l/m 5,0 km/h (1 Bft) O 88 0 min 0,000 mm 0,0 UV-I 35 W/m 2,4 C 2,8 C 11,3 km/h (2 Bft) 98,08 %
11.01.2018 12:34 2,8 C 5,0 C 97 % 1015,4 hPa 0,0 l/m 10,3 km/h (2 Bft) NO 53 0 min 0,000 mm 0,0 UV-I 34 W/m 2,4 C -0,6 C 14,5 km/h (3 Bft) 100,00 %
11.01.2018 12:36 2,7 C 5,0 C 96 % 1015,5 hPa 0,0 l/m 10,9 km/h (2 Bft) NO 56 0 min 0,000 mm 0,0 UV-I 36 W/m 2,1 C -1,1 C 16,1 km/h (3 Bft) 100,00 %
11.01.2018 12:38 2,7 C 5,0 C 96 % 1015,5 hPa 0,0 l/m 9,3 km/h (2 Bft) O-NO 72 0 min 0,000 mm 0,0 UV-I 37 W/m 2,1 C 0,1 C 12,9 km/h (3 Bft) 100,00 %
11.01.2018 12:40 2,7 C 5,0 C 96 % 1015,5 hPa 0,0 l/m 6,0 km/h (2 Bft) O-NO 57 0 min 0,000 mm 0,0 UV-I 38 W/m 2,1 C 2,7 C 11,3 km/h (2 Bft) 97,87 %
11.01.2018 12:42 2,7 C 5,0 C 96 % 1015,5 hPa 0,0 l/m 2,1 km/h (1 Bft) O-NO 57 0 min 0,000 mm 0,0 UV-I 38 W/m 2,1 C 2,7 C 4,8 km/h (1 Bft) 100,00 %
11.01.2018 12:44 2,7 C 5,0 C 97 % 1015,5 hPa 0,0 l/m 0,6 km/h (0 Bft) O-NO 57 0 min 0,000 mm 0,0 UV-I 36 W/m 2,3 C 2,7 C 1,6 km/h (1 Bft) 100,00 %
11.01.2018 12:46 2,7 C 5,0 C 97 % 1015,4 hPa 0,0 l/m 5,5 km/h (1 Bft) NO 35 0 min 0,000 mm 0,0 UV-I 36 W/m 2,3 C 2,7 C 11,3 km/h (2 Bft) 100,00 %
11.01.2018 12:48 2,8 C 5,0 C 97 % 1015,4 hPa 0,0 l/m 10,1 km/h (2 Bft) N-NO 32 0 min 0,000 mm 0,0 UV-I 38 W/m 2,4 C -0,4 C 14,5 km/h (3 Bft) 100,00 %
11.01.2018 12:50 2,8 C 5,0 C 97 % 1015,4 hPa 0,0 l/m 9,4 km/h (2 Bft) NO 40 0 min 0,000 mm 0,0 UV-I 34 W/m 2,4 C 0,1 C 14,5 km/h (3 Bft) 100,00 %
11.01.2018 12:52 2,8 C 5,0 C 97 % 1015,4 hPa 0,0 l/m 9,0 km/h (2 Bft) NO 55 0 min 0,000 mm 0,0 UV-I 30 W/m 2,4 C 0,4 C 11,3 km/h (2 Bft) 100,00 %
11.01.2018 12:54 2,8 C 5,0 C 97 % 1015,4 hPa 0,0 l/m 6,0 km/h (2 Bft) O-NO 66 0 min 0,000 mm 0,0 UV-I 26 W/m 2,4 C 2,8 C 9,7 km/h (2 Bft) 97,87 %
11.01.2018 12:56 2,8 C 5,0 C 96 % 1015,4 hPa 0,0 l/m 9,0 km/h (2 Bft) NO 41 0 min 0,000 mm 0,0 UV-I 24 W/m 2,2 C 0,4 C 11,3 km/h (2 Bft) 100,00 %
11.01.2018 12:58 2,7 C 5,0 C 96 % 1015,5 hPa 0,0 l/m 10,4 km/h (2 Bft) O-NO 62 0 min 0,000 mm 0,0 UV-I 23 W/m 2,1 C -0,8 C 14,5 km/h (3 Bft) 100,00 %
11.01.2018 13:00 2,7 C 5,0 C 96 % 1015,4 hPa 0,0 l/m 6,0 km/h (2 Bft) O 82 0 min 0,026 mm 0,0 UV-I 22 W/m 2,1 C 2,7 C 9,7 km/h (2 Bft) 97,37 %
11.01.2018 13:02 2,7 C 5,0 C 97 % 1015,5 hPa 0,0 l/m 3,9 km/h (1 Bft) O-NO 76 0 min 0,000 mm 0,0 UV-I 21 W/m 2,3 C 2,7 C 4,8 km/h (1 Bft) 100,00 %
11.01.2018 13:04 2,7 C 5,0 C 97 % 1015,4 hPa 0,0 l/m 8,0 km/h (2 Bft) O-NO 64 0 min 0,000 mm 0,0 UV-I 21 W/m 2,3 C 1,2 C 12,9 km/h (3 Bft) 100,00 %
11.01.2018 13:06 2,7 C 5,0 C 97 % 1015,5 hPa 0,0 l/m 5,7 km/h (1 Bft) O-NO 70 0 min 0,000 mm 0,0 UV-I 21 W/m 2,3 C 2,7 C 8,0 km/h (2 Bft) 98,00 %
11.01.2018 13:08 2,7 C 5,0 C 97 % 1015,4 hPa 0,0 l/m 8,3 km/h (2 Bft) NO 44 0 min 0,000 mm 0,0 UV-I 21 W/m 2,3 C 0,9 C 14,5 km/h (3 Bft) 100,00 %
11.01.2018 13:10 2,7 C 5,0 C 97 % 1015,5 hPa 0,0 l/m 7,2 km/h (2 Bft) O 81 0 min 0,000 mm 0,0 UV-I 24 W/m 2,3 C 1,9 C 14,5 km/h (3 Bft) 100,00 %
11.01.2018 13:12 2,7 C 5,0 C 97 % 1015,5 hPa 0,0 l/m 10,2 km/h (2 Bft) O-NO 71 0 min 0,000 mm 0,0 UV-I 27 W/m 2,3 C -0,6 C 16,1 km/h (3 Bft) 100,00 %
11.01.2018 13:14 2,6 C 5,0 C 97 % 1015,5 hPa 0,0 l/m 6,7 km/h (2 Bft) O 80 0 min 0,000 mm 0,0 UV-I 29 W/m 2,2 C 2,3 C 11,3 km/h (2 Bft) 100,00 %
11.01.2018 13:16 2,6 C 5,0 C 97 % 1015,5 hPa 0,0 l/m 5,1 km/h (1 Bft) O 101 0 min 0,000 mm 0,0 UV-I 32 W/m 2,2 C 2,6 C 9,7 km/h (2 Bft) 100,00 %
11.01.2018 13:18 2,6 C 5,0 C 97 % 1015,4 hPa 0,0 l/m 2,0 km/h (1 Bft) O 101 0 min 0,000 mm 0,0 UV-I 33 W/m 2,2 C 2,6 C 4,8 km/h (1 Bft) 100,00 %
11.01.2018 13:20 2,6 C 5,0 C 97 % 1015,4 hPa 0,0 l/m 2,0 km/h (1 Bft) O-NO 74 0 min 0,000 mm 0,0 UV-I 33 W/m 2,2 C 2,6 C 4,8 km/h (1 Bft) 95,74 %
11.01.2018 13:22 2,6 C 5,0 C 97 % 1015,4 hPa 0,0 l/m 3,6 km/h (1 Bft) O-NO 74 0 min 0,000 mm 0,0 UV-I 32 W/m 2,2 C 2,6 C 6,4 km/h (2 Bft) 100,00 %
11.01.2018 13:24 2,7 C 5,0 C 97 % 1015,4 hPa 0,0 l/m 4,2 km/h (1 Bft) O-SO 113 0 min 0,000 mm 0,0 UV-I 32 W/m 2,3 C 2,7 C 6,4 km/h (2 Bft) 100,00 %
11.01.2018 13:26 2,7 C 5,0 C 97 % 1015,4 hPa 0,0 l/m 5,6 km/h (1 Bft) O-NO 76 0 min 0,000 mm 0,0 UV-I 34 W/m 2,3 C 2,7 C 9,7 km/h (2 Bft) 100,00 %
11.01.2018 13:28 2,7 C 5,0 C 97 % 1015,4 hPa 0,0 l/m 7,1 km/h (2 Bft) O-NO 72 0 min 0,000 mm 0,0 UV-I 35 W/m 2,3 C 2,0 C 12,9 km/h (3 Bft) 98,00 %
11.01.2018 13:30 2,7 C 5,0 C 97 % 1015,3 hPa 0,0 l/m 6,8 km/h (2 Bft) O 98 0 min 0,000 mm 0,0 UV-I 36 W/m 2,3 C 2,3 C 11,3 km/h (2 Bft) 100,00 %
11.01.2018 13:32 2,7 C 5,0 C 97 % 1015,3 hPa 0,0 l/m 9,1 km/h (2 Bft) O-NO 59 0 min 0,000 mm 0,0 UV-I 33 W/m 2,3 C 0,2 C 12,9 km/h (3 Bft) 100,00 %
11.01.2018 13:34 2,7 C 5,0 C 97 % 1015,3 hPa 0,0 l/m 7,1 km/h (2 Bft) O-NO 64 0 min 0,000 mm 0,0 UV-I 33 W/m 2,3 C 2,0 C 9,7 km/h (2 Bft) 98,00 %
11.01.2018 13:36 2,7 C 5,0 C 97 % 1015,4 hPa 0,0 l/m 5,5 km/h (1 Bft) NO 56 0 min 0,000 mm 0,0 UV-I 33 W/m 2,3 C 2,7 C 8,0 km/h (2 Bft) 100,00 %
11.01.2018 13:38 2,7 C 5,0 C 97 % 1015,4 hPa 0,0 l/m 5,1 km/h (1 Bft) NO 40 0 min 0,000 mm 0,0 UV-I 33 W/m 2,3 C 2,7 C 8,0 km/h (2 Bft) 100,00 %
11.01.2018 13:40 2,7 C 5,0 C 97 % 1015,5 hPa 0,0 l/m 5,7 km/h (1 Bft) O-NO 59 0 min 0,000 mm 0,0 UV-I 33 W/m 2,3 C 2,7 C 6,4 km/h (2 Bft) 98,21 %
11.01.2018 13:42 2,7 C 5,0 C 97 % 1015,4 hPa 0,0 l/m 5,1 km/h (1 Bft) O-NO 60 0 min 0,000 mm 0,0 UV-I 35 W/m 2,3 C 2,7 C 8,0 km/h (2 Bft) 100,00 %
11.01.2018 13:44 2,8 C 5,0 C 97 % 1015,4 hPa 0,0 l/m 3,9 km/h (1 Bft) O-NO 60 0 min 0,000 mm 0,0 UV-I 33 W/m 2,4 C 2,8 C 6,4 km/h (2 Bft) 97,87 %
11.01.2018 13:46 2,8 C 5,0 C 97 % 1015,4 hPa 0,0 l/m 3,1 km/h (1 Bft) O-NO 60 0 min 0,000 mm 0,0 UV-I 33 W/m 2,4 C 2,8 C 4,8 km/h (1 Bft) 100,00 %
11.01.2018 13:48 2,7 C 5,0 C 97 % 1015,3 hPa 0,0 l/m 8,0 km/h (2 Bft) O-NO 69 0 min 0,000 mm 0,0 UV-I 32 W/m 2,3 C 1,2 C 14,5 km/h (3 Bft) 100,00 %
11.01.2018 13:50 2,7 C 5,0 C 97 % 1015,4 hPa 0,0 l/m 7,0 km/h (2 Bft) O-NO 63 0 min 0,000 mm 0,0 UV-I 32 W/m 2,3 C 2,1 C 9,7 km/h (2 Bft) 100,00 %
11.01.2018 13:52 2,6 C 5,0 C 97 % 1015,4 hPa 0,0 l/m 4,6 km/h (1 Bft) O-NO 70 0 min 0,000 mm 0,0 UV-I 31 W/m 2,2 C 2,6 C 6,4 km/h (2 Bft) 100,00 %
11.01.2018 13:54 2,7 C 5,0 C 97 % 1015,4 hPa 0,0 l/m 4,7 km/h (1 Bft) N-NO 19 0 min 0,000 mm 0,0 UV-I 30 W/m 2,3 C 2,7 C 6,4 km/h (2 Bft) 100,00 %
11.01.2018 13:56 2,7 C 5,0 C 97 % 1015,4 hPa 0,0 l/m 4,1 km/h (1 Bft) N-NO 15 0 min 0,000 mm 0,0 UV-I 30 W/m 2,3 C 2,7 C 8,0 km/h (2 Bft) 100,00 %
11.01.2018 13:58 2,7 C 5,0 C 97 % 1015,5 hPa 0,0 l/m 5,4 km/h (1 Bft) N-NO 26 0 min 0,000 mm 0,0 UV-I 30 W/m 2,3 C 2,7 C 8,0 km/h (2 Bft) 97,37 %
11.01.2018 14:00 2,7 C 5,0 C 97 % 1015,5 hPa 0,0 l/m 4,7 km/h (1 Bft) N-NO 28 0 min 0,000 mm 0,0 UV-I 32 W/m 2,3 C 2,7 C 9,7 km/h (2 Bft) 96,00 %
11.01.2018 14:02 2,7 C 5,0 C 97 % 1015,5 hPa 0,0 l/m 2,7 km/h (1 Bft) N-NO 28 0 min 0,000 mm 0,0 UV-I 31 W/m 2,3 C 2,7 C 6,4 km/h (2 Bft) 98,00 %
11.01.2018 14:04 2,7 C 5,0 C 97 % 1015,5 hPa 0,0 l/m 3,0 km/h (1 Bft) N-NO 26 0 min 0,000 mm 0,0 UV-I 29 W/m 2,3 C 2,7 C 6,4 km/h (2 Bft) 97,87 %
11.01.2018 14:06 2,8 C 5,0 C 97 % 1015,5 hPa 0,0 l/m 2,3 km/h (1 Bft) N-NO 22 0 min 0,000 mm 0,0 UV-I 28 W/m 2,4 C 2,8 C 4,8 km/h (1 Bft) 97,87 %
11.01.2018 14:08 2,7 C 5,0 C 97 % 1015,6 hPa 0,0 l/m 2,2 km/h (1 Bft) N-NO 26 0 min 0,000 mm 0,0 UV-I 28 W/m 2,3 C 2,7 C 4,8 km/h (1 Bft) 96,23 %
11.01.2018 14:10 2,7 C 5,0 C 97 % 1015,6 hPa 0,0 l/m 1,3 km/h (1 Bft) N-NO 25 0 min 0,000 mm 0,0 UV-I 29 W/m 2,3 C 2,7 C 6,4 km/h (2 Bft) 94,74 %
11.01.2018 14:12 2,7 C 5,0 C 97 % 1015,6 hPa 0,0 l/m 4,2 km/h (1 Bft) N-NO 30 0 min 0,000 mm 0,0 UV-I 29 W/m 2,3 C 2,7 C 6,4 km/h (2 Bft) 96,00 %
11.01.2018 14:14 2,7 C 5,0 C 97 % 1015,6 hPa 0,0 l/m 4,8 km/h (1 Bft) N-NO 24 0 min 0,000 mm 0,0 UV-I 28 W/m 2,3 C 2,7 C 6,4 km/h (2 Bft) 97,83 %
11.01.2018 14:16 2,7 C 5,0 C 97 % 1015,7 hPa 0,0 l/m 0,6 km/h (0 Bft) NW 325 0 min 0,000 mm 0,0 UV-I 26 W/m 2,3 C 2,7 C 3,2 km/h (1 Bft) 95,74 %
11.01.2018 14:18 2,7 C 5,0 C 97 % 1015,7 hPa 0,0 l/m 2,0 km/h (1 Bft) N-NO 28 0 min 0,000 mm 0,0 UV-I 22 W/m 2,3 C 2,7 C 8,0 km/h (2 Bft) 95,74 %
11.01.2018 14:20 2,7 C 5,0 C 97 % 1015,8 hPa 0,0 l/m 6,1 km/h (2 Bft) NO 49 0 min 0,000 mm 0,0 UV-I 19 W/m 2,3 C 2,7 C 8,0 km/h (2 Bft) 98,00 %
11.01.2018 14:23 2,6 C 5,0 C 97 % 1015,8 hPa 0,0 l/m 5,1 km/h (1 Bft) O 82 0 min 0,000 mm 0,0 UV-I 19 W/m 2,2 C 2,6 C 8,0 km/h (2 Bft) 93,24 %
11.01.2018 14:24 2,6 C 5,0 C 97 % 1015,8 hPa 0,0 l/m 6,2 km/h (2 Bft) NO 43 0 min 0,000 mm 0,0 UV-I 19 W/m 2,2 C 2,6 C 8,0 km/h (2 Bft) 100,00 %
11.01.2018 14:26 2,6 C 5,0 C 97 % 1015,8 hPa 0,0 l/m 9,0 km/h (2 Bft) N-NO 26 0 min 0,000 mm 0,0 UV-I 19 W/m 2,2 C 0,2 C 14,5 km/h (3 Bft) 97,37 %
11.01.2018 14:28 2,6 C 5,0 C 97 % 1015,8 hPa 0,0 l/m 9,8 km/h (2 Bft) O-NO 60 0 min 0,000 mm 0,0 UV-I 20 W/m 2,2 C -0,4 C 12,9 km/h (3 Bft) 96,43 %
11.01.2018 14:30 2,5 C 5,0 C 97 % 1015,9 hPa 0,0 l/m 5,4 km/h (1 Bft) NO 51 0 min 0,000 mm 0,0 UV-I 20 W/m 2,1 C 2,5 C 8,0 km/h (2 Bft) 100,00 %
11.01.2018 14:32 2,5 C 5,0 C 97 % 1015,9 hPa 0,0 l/m 4,3 km/h (1 Bft) N-NO 32 0 min 0,000 mm 0,0 UV-I 19 W/m 2,1 C 2,5 C 8,0 km/h (2 Bft) 100,00 %
11.01.2018 14:34 2,5 C 5,0 C 97 % 1015,9 hPa 0,0 l/m 4,7 km/h (1 Bft) N-NO 32 0 min 0,000 mm 0,0 UV-I 20 W/m 2,1 C 2,5 C 6,4 km/h (2 Bft) 100,00 %
11.01.2018 14:36 2,6 C 5,0 C 97 % 1016,0 hPa 0,0 l/m 3,4 km/h (1 Bft) N-NO 32 0 min 0,000 mm 0,0 UV-I 20 W/m 2,2 C 2,6 C 6,4 km/h (2 Bft) 98,11 %
11.01.2018 14:38 2,6 C 5,0 C 97 % 1016,0 hPa 0,0 l/m 1,3 km/h (1 Bft) N-NO 32 0 min 0,000 mm 0,0 UV-I 18 W/m 2,2 C 2,6 C 3,2 km/h (1 Bft) 100,00 %
11.01.2018 14:40 2,7 C 5,0 C 97 % 1016,0 hPa 0,0 l/m 3,4 km/h (1 Bft) N-NO 32 0 min 0,000 mm 0,0 UV-I 19 W/m 2,3 C 2,7 C 6,4 km/h (2 Bft) 100,00 %
11.01.2018 14:42 2,7 C 5,0 C 97 % 1016,0 hPa 0,0 l/m 3,0 km/h (1 Bft) N-NO 32 0 min 0,000 mm 0,0 UV-I 19 W/m 2,3 C 2,7 C 6,4 km/h (2 Bft) 100,00 %
11.01.2018 14:44 2,6 C 5,0 C 97 % 1016,0 hPa 0,0 l/m 0,3 km/h (0 Bft) N-NO 32 0 min 0,000 mm 0,0 UV-I 19 W/m 2,2 C 2,6 C 1,6 km/h (1 Bft) 97,14 %
11.01.2018 14:46 2,6 C 5,0 C 97 % 1016,1 hPa 0,0 l/m 0,7 km/h (0 Bft) N 11 0 min 0,000 mm 0,0 UV-I 19 W/m 2,2 C 2,6 C 3,2 km/h (1 Bft) 100,00 %
11.01.2018 14:48 2,6 C 5,0 C 97 % 1016,1 hPa 0,0 l/m 0,1 km/h (0 Bft) N 11 0 min 0,000 mm 0,0 UV-I 19 W/m 2,2 C 2,6 C 1,6 km/h (1 Bft) 100,00 %
11.01.2018 14:50 2,6 C 5,0 C 97 % 1016,1 hPa 0,0 l/m 4,0 km/h (1 Bft) O-SO 118 0 min 0,000 mm 0,0 UV-I 19 W/m 2,2 C 2,6 C 6,4 km/h (2 Bft) 98,00 %
11.01.2018 14:52 2,6 C 5,0 C 97 % 1016,1 hPa 0,0 l/m 3,9 km/h (1 Bft) O-SO 118 0 min 0,000 mm 0,0 UV-I 19 W/m 2,2 C 2,6 C 6,4 km/h (2 Bft) 97,14 %
11.01.2018 14:54 2,6 C 5,0 C 97 % 1016,1 hPa 0,0 l/m 2,6 km/h (1 Bft) O-SO 120 0 min 0,000 mm 0,0 UV-I 19 W/m 2,2 C 2,6 C 4,8 km/h (1 Bft) 98,21 %
11.01.2018 14:56 2,6 C 5,0 C 97 % 1016,2 hPa 0,0 l/m 2,0 km/h (1 Bft) O-SO 121 0 min 0,000 mm 0,0 UV-I 19 W/m 2,2 C 2,6 C 4,8 km/h (1 Bft) 97,37 %
11.01.2018 14:58 2,6 C 5,0 C 97 % 1016,2 hPa 0,0 l/m 2,1 km/h (1 Bft) O-SO 120 0 min 0,000 mm 0,0 UV-I 18 W/m 2,2 C 2,6 C 3,2 km/h (1 Bft) 98,31 %
11.01.2018 15:00 2,6 C 5,0 C 97 % 1016,2 hPa 0,0 l/m 1,1 km/h (1 Bft) O-SO 120 0 min 0,000 mm 0,0 UV-I 17 W/m 2,2 C 2,6 C 3,2 km/h (1 Bft) 97,37 %
11.01.2018 15:02 2,6 C 5,0 C 97 % 1016,2 hPa 0,0 l/m 0,3 km/h (0 Bft) O-SO 120 0 min 0,000 mm 0,0 UV-I 16 W/m 2,2 C 2,6 C 1,6 km/h (1 Bft) 95,74 %
11.01.2018 15:04 2,6 C 5,0 C 97 % 1016,2 hPa 0,0 l/m 0,1 km/h (0 Bft) O-SO 120 0 min 0,000 mm 0,0 UV-I 16 W/m 2,2 C 2,6 C 1,6 km/h (1 Bft) 96,00 %
11.01.2018 15:06 2,6 C 5,0 C 97 % 1016,3 hPa 0,0 l/m 0,0 km/h (0 Bft) O-SO 120 0 min 0,000 mm 0,0 UV-I 14 W/m 2,2 C 2,6 C 1,6 km/h (1 Bft) 95,74 %
11.01.2018 15:08 2,6 C 5,0 C 97 % 1016,3 hPa 0,0 l/m 0,6 km/h (0 Bft) O-SO 120 0 min 0,000 mm 0,0 UV-I 13 W/m 2,2 C 2,6 C 3,2 km/h (1 Bft) 97,44 %
11.01.2018 15:10 2,6 C 5,0 C 97 % 1016,3 hPa 0,0 l/m 0,0 km/h (0 Bft) O-SO 120 0 min 0,000 mm 0,0 UV-I 12 W/m 2,2 C 2,6 C 0,0 km/h (0 Bft) 98,00 %
11.01.2018 15:12 2,6 C 5,0 C 97 % 1016,3 hPa 0,0 l/m 1,8 km/h (1 Bft) S 184 0 min 0,000 mm 0,0 UV-I 12 W/m 2,2 C 2,6 C 4,8 km/h (1 Bft) 96,00 %
11.01.2018 15:14 2,6 C 5,0 C 97 % 1016,3 hPa 0,0 l/m 1,1 km/h (1 Bft) S 184 0 min 0,000 mm 0,0 UV-I 12 W/m 2,2 C 2,6 C 3,2 km/h (1 Bft) 98,00 %
11.01.2018 15:16 2,6 C 5,0 C 97 % 1016,3 hPa 0,0 l/m 1,1 km/h (1 Bft) S 184 0 min 0,000 mm 0,0 UV-I 12 W/m 2,2 C 2,6 C 3,2 km/h (1 Bft) 98,00 %
11.01.2018 15:18 2,6 C 5,0 C 97 % 1016,4 hPa 0,0 l/m 0,7 km/h (0 Bft) S 184 0 min 0,000 mm 0,0 UV-I 12 W/m 2,2 C 2,6 C 3,2 km/h (1 Bft) 95,74 %
11.01.2018 15:20 2,5 C 5,0 C 97 % 1016,4 hPa 0,0 l/m 1,1 km/h (1 Bft) S 182 0 min 0,000 mm 0,0 UV-I 12 W/m 2,1 C 2,5 C 3,2 km/h (1 Bft) 97,37 %
11.01.2018 15:22 2,5 C 5,0 C 97 % 1016,4 hPa 0,0 l/m 3,2 km/h (1 Bft) O-SO 117 0 min 0,000 mm 0,0 UV-I 12 W/m 2,1 C 2,5 C 4,8 km/h (1 Bft) 98,11 %
11.01.2018 15:24 2,5 C 5,0 C 97 % 1016,4 hPa 0,0 l/m 2,2 km/h (1 Bft) O-SO 117 0 min 0,000 mm 0,0 UV-I 12 W/m 2,1 C 2,5 C 4,8 km/h (1 Bft) 97,67 %
11.01.2018 15:26 2,5 C 5,0 C 97 % 1016,4 hPa 0,0 l/m 0,2 km/h (0 Bft) O-SO 117 0 min 0,000 mm 0,0 UV-I 11 W/m 2,1 C 2,5 C 1,6 km/h (1 Bft) 98,11 %
11.01.2018 15:28 2,5 C 5,0 C 97 % 1016,4 hPa 0,0 l/m 0,0 km/h (0 Bft) O-SO 117 0 min 0,000 mm 0,0 UV-I 11 W/m 2,1 C 2,5 C 1,6 km/h (1 Bft) 96,55 %
11.01.2018 15:30 2,5 C 5,0 C 97 % 1016,4 hPa 0,0 l/m 0,0 km/h (0 Bft) O-SO 117 0 min 0,000 mm 0,0 UV-I 11 W/m 2,1 C 2,5 C 0,0 km/h (0 Bft) 98,39 %
11.01.2018 15:32 2,5 C 5,0 C 97 % 1016,4 hPa 0,0 l/m 0,0 km/h (0 Bft) O-SO 117 0 min 0,000 mm 0,0 UV-I 11 W/m 2,1 C 2,5 C 1,6 km/h (1 Bft) 93,62 %
11.01.2018 15:34 2,6 C 5,0 C 97 % 1016,4 hPa 0,0 l/m 0,7 km/h (0 Bft) O-SO 117 0 min 0,000 mm 0,0 UV-I 11 W/m 2,2 C 2,6 C 1,6 km/h (1 Bft) 100,00 %
11.01.2018 15:36 2,6 C 5,0 C 97 % 1016,4 hPa 0,0 l/m 1,5 km/h (1 Bft) N-NO 13 0 min 0,000 mm 0,0 UV-I 11 W/m 2,2 C 2,6 C 3,2 km/h (1 Bft) 96,00 %
11.01.2018 15:38 2,6 C 5,0 C 97 % 1016,5 hPa 0,0 l/m 0,5 km/h (0 Bft) N-NO 14 0 min 0,000 mm 0,0 UV-I 11 W/m 2,2 C 2,6 C 3,2 km/h (1 Bft) 97,37 %
11.01.2018 15:40 2,6 C 5,0 C 97 % 1016,5 hPa 0,0 l/m 1,3 km/h (1 Bft) N 11 0 min 0,000 mm 0,0 UV-I 11 W/m 2,2 C 2,6 C 4,8 km/h (1 Bft) 98,11 %
11.01.2018 15:42 2,6 C 5,0 C 97 % 1016,5 hPa 0,0 l/m 1,9 km/h (1 Bft) N 11 0 min 0,000 mm 0,0 UV-I 11 W/m 2,2 C 2,6 C 4,8 km/h (1 Bft) 95,83 %
11.01.2018 15:44 2,6 C 5,0 C 97 % 1016,6 hPa 0,0 l/m 2,2 km/h (1 Bft) N-NW 340 0 min 0,000 mm 0,0 UV-I 11 W/m 2,2 C 2,6 C 4,8 km/h (1 Bft) 95,74 %
11.01.2018 15:46 2,6 C 5,0 C 97 % 1016,6 hPa 0,0 l/m 0,4 km/h (0 Bft) N-NW 338 0 min 0,000 mm 0,0 UV-I 11 W/m 2,2 C 2,6 C 1,6 km/h (1 Bft) 97,87 %
11.01.2018 15:48 2,6 C 5,0 C 97 % 1016,6 hPa 0,0 l/m 0,8 km/h (0 Bft) N-NW 338 0 min 0,000 mm 0,0 UV-I 10 W/m 2,2 C 2,6 C 3,2 km/h (1 Bft) 95,74 %
11.01.2018 15:50 2,6 C 5,0 C 97 % 1016,6 hPa 0,0 l/m 1,2 km/h (1 Bft) N 355 0 min 0,000 mm 0,0 UV-I 11 W/m 2,2 C 2,6 C 6,4 km/h (2 Bft) 98,00 %
11.01.2018 15:52 2,5 C 5,0 C 97 % 1016,7 hPa 0,0 l/m 1,6 km/h (1 Bft) N 355 0 min 0,000 mm 0,0 UV-I 11 W/m 2,1 C 2,5 C 3,2 km/h (1 Bft) 97,87 %
11.01.2018 15:54 2,5 C 5,0 C 96 % 1016,7 hPa 0,0 l/m 1,4 km/h (1 Bft) N 355 0 min 0,000 mm 0,0 UV-I 10 W/m 1,9 C 2,5 C 3,2 km/h (1 Bft) 96,00 %
11.01.2018 15:56 2,5 C 5,0 C 97 % 1016,8 hPa 0,0 l/m 0,1 km/h (0 Bft) N 355 0 min 0,000 mm 0,0 UV-I 9 W/m 2,1 C 2,5 C 1,6 km/h (1 Bft) 94,74 %
11.01.2018 15:58 2,6 C 5,0 C 97 % 1016,8 hPa 0,0 l/m 5,6 km/h (1 Bft) NO 56 0 min 0,000 mm 0,0 UV-I 9 W/m 2,2 C 2,6 C 8,0 km/h (2 Bft) 92,45 %
11.01.2018 16:00 2,5 C 5,0 C 96 % 1016,9 hPa 0,0 l/m 1,9 km/h (1 Bft) NO 56 0 min 0,000 mm 0,0 UV-I 9 W/m 1,9 C 2,5 C 4,8 km/h (1 Bft) 97,14 %
11.01.2018 16:02 2,5 C 5,0 C 96 % 1016,9 hPa 0,0 l/m 1,2 km/h (1 Bft) NO 56 0 min 0,000 mm 0,0 UV-I 9 W/m 1,9 C 2,5 C 3,2 km/h (1 Bft) 90,57 %
11.01.2018 16:04 2,5 C 5,0 C 96 % 1016,9 hPa 0,0 l/m 2,4 km/h (1 Bft) NO 56 0 min 0,000 mm 0,0 UV-I 9 W/m 1,9 C 2,5 C 4,8 km/h (1 Bft) 96,00 %
11.01.2018 16:06 2,6 C 5,0 C 96 % 1016,9 hPa 0,0 l/m 3,9 km/h (1 Bft) NO 55 0 min 0,000 mm 0,0 UV-I 7 W/m 2,0 C 2,6 C 6,4 km/h (2 Bft) 93,62 %
11.01.2018 16:08 2,6 C 5,0 C 96 % 1017,0 hPa 0,0 l/m 3,6 km/h (1 Bft) NO 55 0 min 0,000 mm 0,0 UV-I 7 W/m 2,0 C 2,6 C 4,8 km/h (1 Bft) 100,00 %
11.01.2018 16:10 2,6 C 5,0 C 96 % 1017,0 hPa 0,0 l/m 5,1 km/h (1 Bft) NO 37 0 min 0,000 mm 0,0 UV-I 7 W/m 2,0 C 2,6 C 8,0 km/h (2 Bft) 97,14 %
11.01.2018 16:12 2,6 C 5,0 C 96 % 1017,0 hPa 0,0 l/m 3,7 km/h (1 Bft) NO 38 0 min 0,000 mm 0,0 UV-I 7 W/m 2,0 C 2,6 C 8,0 km/h (2 Bft) 98,31 %
11.01.2018 16:15 2,6 C 5,0 C 96 % 1017,2 hPa 0,0 l/m 4,6 km/h (1 Bft) N-NO 21 0 min 0,000 mm 0,0 UV-I 7 W/m 2,0 C 2,6 C 8,0 km/h (2 Bft) 95,77 %
11.01.2018 16:16 2,7 C 5,0 C 96 % 1017,2 hPa 0,0 l/m 4,1 km/h (1 Bft) N 5 0 min 0,000 mm 0,0 UV-I 7 W/m 2,1 C 2,7 C 8,0 km/h (2 Bft) 95,65 %
11.01.2018 16:18 2,7 C 5,0 C 95 % 1017,2 hPa 0,0 l/m 5,1 km/h (1 Bft) N-NO 23 0 min 0,000 mm 0,0 UV-I 7 W/m 2,0 C 2,7 C 8,0 km/h (2 Bft) 97,22 %
11.01.2018 16:20 2,6 C 5,0 C 95 % 1017,2 hPa 0,0 l/m 3,8 km/h (1 Bft) N-NO 25 0 min 0,000 mm 0,0 UV-I 7 W/m 1,9 C 2,6 C 8,0 km/h (2 Bft) 98,04 %
11.01.2018 16:22 2,6 C 5,0 C 95 % 1017,2 hPa 0,0 l/m 3,3 km/h (1 Bft) N-NO 29 0 min 0,000 mm 0,0 UV-I 7 W/m 1,9 C 2,6 C 9,7 km/h (2 Bft) 94,34 %
11.01.2018 16:24 2,7 C 5,0 C 94 % 1017,3 hPa 0,0 l/m 4,1 km/h (1 Bft) NO 51 0 min 0,000 mm 0,0 UV-I 7 W/m 1,8 C 2,7 C 8,0 km/h (2 Bft) 94,87 %
11.01.2018 16:26 2,7 C 5,0 C 94 % 1017,3 hPa 0,0 l/m 3,0 km/h (1 Bft) NO 43 0 min 0,000 mm 0,0 UV-I 7 W/m 1,8 C 2,7 C 4,8 km/h (1 Bft) 97,87 %
11.01.2018 16:28 2,7 C 5,0 C 94 % 1017,3 hPa 0,0 l/m 0,2 km/h (0 Bft) NO 43 0 min 0,000 mm 0,0 UV-I 7 W/m 1,8 C 2,7 C 1,6 km/h (1 Bft) 98,00 %
11.01.2018 16:30 2,7 C 5,0 C 94 % 1017,3 hPa 0,0 l/m 4,4 km/h (1 Bft) NO 52 0 min 0,000 mm 0,0 UV-I 6 W/m 1,8 C 2,7 C 6,4 km/h (2 Bft) 97,87 %
11.01.2018 16:32 2,7 C 5,0 C 93 % 1017,4 hPa 0,0 l/m 5,9 km/h (2 Bft) NO 49 0 min 0,000 mm 0,0 UV-I 5 W/m 1,7 C 2,7 C 8,0 km/h (2 Bft) 97,73 %
11.01.2018 16:34 2,7 C 5,0 C 94 % 1017,3 hPa 0,0 l/m 5,7 km/h (1 Bft) NO 51 0 min 0,000 mm 0,0 UV-I 5 W/m 1,8 C 2,7 C 8,0 km/h (2 Bft) 98,00 %
11.01.2018 16:36 2,7 C 5,0 C 93 % 1017,3 hPa 0,0 l/m 3,4 km/h (1 Bft) NO 51 0 min 0,000 mm 0,0 UV-I 5 W/m 1,7 C 2,7 C 4,8 km/h (1 Bft) 100,00 %
11.01.2018 16:38 2,7 C 5,0 C 93 % 1017,4 hPa 0,0 l/m 3,3 km/h (1 Bft) NO 51 0 min 0,000 mm 0,0 UV-I 5 W/m 1,7 C 2,7 C 4,8 km/h (1 Bft) 100,00 %
11.01.2018 16:40 2,7 C 5,0 C 93 % 1017,4 hPa 0,0 l/m 3,0 km/h (1 Bft) O-SO 110 0 min 0,000 mm 0,0 UV-I 4 W/m 1,7 C 2,7 C 4,8 km/h (1 Bft) 98,00 %
11.01.2018 16:42 2,7 C 5,0 C 93 % 1017,3 hPa 0,0 l/m 1,1 km/h (1 Bft) O-SO 110 0 min 0,000 mm 0,0 UV-I 0 W/m 1,7 C 2,7 C 3,2 km/h (1 Bft) 100,00 %
11.01.2018 16:44 2,7 C 5,0 C 93 % 1017,4 hPa 0,0 l/m 1,6 km/h (1 Bft) O-SO 110 0 min 0,000 mm 0,0 UV-I 0 W/m 1,7 C 2,7 C 3,2 km/h (1 Bft) 100,00 %
11.01.2018 16:46 2,7 C 5,0 C 93 % 1017,4 hPa 0,0 l/m 3,3 km/h (1 Bft) O-SO 110 0 min 0,000 mm 0,0 UV-I 0 W/m 1,7 C 2,7 C 4,8 km/h (1 Bft) 97,37 %
11.01.2018 16:48 2,7 C 5,0 C 93 % 1017,4 hPa 0,0 l/m 2,1 km/h (1 Bft) O-SO 110 0 min 0,000 mm 0,0 UV-I 0 W/m 1,7 C 2,7 C 3,2 km/h (1 Bft) 100,00 %
11.01.2018 16:50 2,7 C 5,0 C 94 % 1017,4 hPa 0,0 l/m 2,8 km/h (1 Bft) O-SO 109 0 min 0,000 mm 0,0 UV-I 0 W/m 1,8 C 2,7 C 4,8 km/h (1 Bft) 100,00 %
11.01.2018 16:52 2,7 C 5,0 C 93 % 1017,4 hPa 0,0 l/m 2,3 km/h (1 Bft) O-SO 109 0 min 0,000 mm 0,0 UV-I 0 W/m 1,7 C 2,7 C 3,2 km/h (1 Bft) 100,00 %
11.01.2018 16:54 2,7 C 5,0 C 93 % 1017,5 hPa 0,0 l/m 1,4 km/h (1 Bft) O-SO 109 0 min 0,000 mm 0,0 UV-I 0 W/m 1,7 C 2,7 C 3,2 km/h (1 Bft) 97,87 %
11.01.2018 16:56 2,7 C 5,0 C 93 % 1017,5 hPa 0,0 l/m 2,0 km/h (1 Bft) O-SO 109 0 min 0,000 mm 0,0 UV-I 0 W/m 1,7 C 2,7 C 3,2 km/h (1 Bft) 100,00 %
11.01.2018 16:58 2,7 C 5,0 C 94 % 1017,6 hPa 0,0 l/m 2,2 km/h (1 Bft) O-SO 109 0 min 0,000 mm 0,0 UV-I 0 W/m 1,8 C 2,7 C 3,2 km/h (1 Bft) 100,00 %
11.01.2018 17:00 2,6 C 5,0 C 94 % 1017,5 hPa 0,0 l/m 1,9 km/h (1 Bft) O-SO 109 0 min 0,000 mm 0,0 UV-I 0 W/m 1,7 C 2,6 C 3,2 km/h (1 Bft) 100,00 %
11.01.2018 17:02 2,6 C 5,0 C 94 % 1017,6 hPa 0,0 l/m 1,1 km/h (1 Bft) O-SO 109 0 min 0,000 mm 0,0 UV-I 0 W/m 1,7 C 2,6 C 3,2 km/h (1 Bft) 97,73 %
11.01.2018 17:04 2,6 C 5,0 C 94 % 1017,7 hPa 0,0 l/m 0,1 km/h (0 Bft) O-SO 109 0 min 0,000 mm 0,0 UV-I 0 W/m 1,7 C 2,6 C 1,6 km/h (1 Bft) 96,23 %
11.01.2018 17:06 2,6 C 5,0 C 94 % 1017,7 hPa 0,0 l/m 0,3 km/h (0 Bft) O-SO 109 0 min 0,000 mm 0,0 UV-I 0 W/m 1,7 C 2,6 C 1,6 km/h (1 Bft) 97,87 %
11.01.2018 17:08 2,7 C 5,0 C 94 % 1017,7 hPa 0,0 l/m 1,3 km/h (1 Bft) O-SO 109 0 min 0,000 mm 0,0 UV-I 0 W/m 1,8 C 2,7 C 3,2 km/h (1 Bft) 100,00 %
11.01.2018 17:10 2,7 C 5,0 C 94 % 1017,7 hPa 0,0 l/m 1,7 km/h (1 Bft) O-SO 109 0 min 0,000 mm 0,0 UV-I 0 W/m 1,8 C 2,7 C 3,2 km/h (1 Bft) 100,00 %
11.01.2018 17:12 2,7 C 5,0 C 94 % 1017,7 hPa 0,0 l/m 1,8 km/h (1 Bft) O-SO 109 0 min 0,000 mm 0,0 UV-I 0 W/m 1,8 C 2,7 C 3,2 km/h (1 Bft) 100,00 %
11.01.2018 17:14 2,7 C 5,0 C 94 % 1017,7 hPa 0,0 l/m 0,5 km/h (0 Bft) O-SO 109 0 min 0,000 mm 0,0 UV-I 0 W/m 1,8 C 2,7 C 1,6 km/h (1 Bft) 100,00 %
11.01.2018 17:16 2,7 C 5,0 C 94 % 1017,7 hPa 0,0 l/m 0,5 km/h (0 Bft) O-SO 109 0 min 0,000 mm 0,0 UV-I 0 W/m 1,8 C 2,7 C 1,6 km/h (1 Bft) 100,00 %
11.01.2018 17:18 2,7 C 5,0 C 94 % 1017,8 hPa 0,0 l/m 1,6 km/h (1 Bft) O-SO 109 0 min 0,000 mm 0,0 UV-I 0 W/m 1,8 C 2,7 C 3,2 km/h (1 Bft) 100,00 %
11.01.2018 17:20 2,7 C 5,0 C 94 % 1017,8 hPa 0,0 l/m 1,3 km/h (1 Bft) O-SO 109 0 min 0,000 mm 0,0 UV-I 0 W/m 1,8 C 2,7 C 3,2 km/h (1 Bft) 100,00 %
11.01.2018 17:22 2,7 C 5,0 C 94 % 1017,8 hPa 0,0 l/m 0,8 km/h (0 Bft) O-SO 109 0 min 0,000 mm 0,0 UV-I 0 W/m 1,8 C 2,7 C 3,2 km/h (1 Bft) 97,37 %
11.01.2018 17:24 2,7 C 5,0 C 94 % 1017,8 hPa 0,0 l/m 0,0 km/h (0 Bft) O-SO 109 0 min 0,000 mm 0,0 UV-I 0 W/m 1,8 C 2,7 C 0,0 km/h (0 Bft) 100,00 %
11.01.2018 17:26 2,7 C 5,0 C 95 % 1017,8 hPa 0,0 l/m 0,9 km/h (0 Bft) O-SO 109 0 min 0,000 mm 0,0 UV-I 0 W/m 2,0 C 2,7 C 3,2 km/h (1 Bft) 100,00 %
11.01.2018 17:28 2,7 C 5,0 C 94 % 1017,8 hPa 0,0 l/m 1,5 km/h (1 Bft) O-SO 109 0 min 0,000 mm 0,0 UV-I 0 W/m 1,8 C 2,7 C 3,2 km/h (1 Bft) 100,00 %
11.01.2018 17:30 2,7 C 5,0 C 95 % 1017,9 hPa 0,0 l/m 0,8 km/h (0 Bft) O-SO 109 0 min 0,000 mm 0,0 UV-I 0 W/m 2,0 C 2,7 C 3,2 km/h (1 Bft) 100,00 %
11.01.2018 17:32 2,7 C 5,0 C 95 % 1017,9 hPa 0,0 l/m 0,5 km/h (0 Bft) O-SO 109 0 min 0,000 mm 0,0 UV-I 0 W/m 2,0 C 2,7 C 1,6 km/h (1 Bft) 100,00 %
11.01.2018 17:34 2,7 C 5,0 C 95 % 1017,9 hPa 0,0 l/m 0,5 km/h (0 Bft) O-SO 109 0 min 0,000 mm 0,0 UV-I 0 W/m 2,0 C 2,7 C 1,6 km/h (1 Bft) 100,00 %
11.01.2018 17:36 2,7 C 5,0 C 95 % 1017,9 hPa 0,0 l/m 1,1 km/h (1 Bft) O-SO 109 0 min 0,000 mm 0,0 UV-I 0 W/m 2,0 C 2,7 C 3,2 km/h (1 Bft) 97,87 %
11.01.2018 17:38 2,7 C 5,0 C 95 % 1017,9 hPa 0,0 l/m 1,0 km/h (0 Bft) O-SO 109 0 min 0,000 mm 0,0 UV-I 0 W/m 2,0 C 2,7 C 3,2 km/h (1 Bft) 98,00 %
11.01.2018 17:40 2,7 C 5,0 C 95 % 1017,9 hPa 0,0 l/m 2,6 km/h (1 Bft) O-SO 109 0 min 0,000 mm 0,0 UV-I 0 W/m 2,0 C 2,7 C 4,8 km/h (1 Bft) 97,92 %
11.01.2018 17:42 2,7 C 5,0 C 95 % 1017,9 hPa 0,0 l/m 2,3 km/h (1 Bft) O-SO 109 0 min 0,000 mm 0,0 UV-I 0 W/m 2,0 C 2,7 C 4,8 km/h (1 Bft) 100,00 %
11.01.2018 17:44 2,7 C 5,0 C 95 % 1017,9 hPa 0,0 l/m 2,7 km/h (1 Bft) O-SO 109 0 min 0,000 mm 0,0 UV-I 0 W/m 2,0 C 2,7 C 3,2 km/h (1 Bft) 100,00 %
11.01.2018 17:46 2,7 C 5,0 C 95 % 1017,9 hPa 0,0 l/m 1,1 km/h (1 Bft) O-SO 109 0 min 0,000 mm 0,0 UV-I 0 W/m 2,0 C 2,7 C 3,2 km/h (1 Bft) 100,00 %
11.01.2018 17:48 2,7 C 5,0 C 95 % 1017,9 hPa 0,0 l/m 0,1 km/h (0 Bft) O-SO 109 0 min 0,000 mm 0,0 UV-I 0 W/m 2,0 C 2,7 C 1,6 km/h (1 Bft) 97,87 %
11.01.2018 17:50 2,7 C 5,0 C 95 % 1018,0 hPa 0,0 l/m 1,2 km/h (1 Bft) O-SO 109 0 min 0,000 mm 0,0 UV-I 0 W/m 2,0 C 2,7 C 3,2 km/h (1 Bft) 100,00 %
11.01.2018 17:52 2,7 C 5,0 C 95 % 1018,0 hPa 0,0 l/m 0,1 km/h (0 Bft) O-SO 109 0 min 0,000 mm 0,0 UV-I 0 W/m 2,0 C 2,7 C 1,6 km/h (1 Bft) 97,87 %
11.01.2018 17:54 2,7 C 5,0 C 95 % 1018,0 hPa 0,0 l/m 0,0 km/h (0 Bft) O-SO 109 0 min 0,000 mm 0,0 UV-I 0 W/m 2,0 C 2,7 C 0,0 km/h (0 Bft) 100,00 %
11.01.2018 17:56 2,7 C 5,0 C 95 % 1018,0 hPa 0,0 l/m 0,4 km/h (0 Bft) O-SO 109 0 min 0,000 mm 0,0 UV-I 0 W/m 2,0 C 2,7 C 3,2 km/h (1 Bft) 100,00 %
11.01.2018 17:58 2,6 C 5,0 C 95 % 1018,1 hPa 0,0 l/m 0,6 km/h (0 Bft) O-SO 109 0 min 0,000 mm 0,0 UV-I 0 W/m 1,9 C 2,6 C 1,6 km/h (1 Bft) 100,00 %
11.01.2018 18:00 2,7 C 5,0 C 95 % 1018,0 hPa 0,0 l/m 0,2 km/h (0 Bft) O-SO 109 0 min 0,000 mm 0,0 UV-I 0 W/m 2,0 C 2,7 C 1,6 km/h (1 Bft) 100,00 %
11.01.2018 18:02 2,7 C 5,0 C 95 % 1018,0 hPa 0,0 l/m 1,3 km/h (1 Bft) O-SO 109 0 min 0,000 mm 0,0 UV-I 0 W/m 2,0 C 2,7 C 1,6 km/h (1 Bft) 94,64 %
11.01.2018 18:04 2,6 C 5,0 C 95 % 1018,0 hPa 0,0 l/m 2,1 km/h (1 Bft) O-SO 109 0 min 0,000 mm 0,0 UV-I 0 W/m 1,9 C 2,6 C 4,8 km/h (1 Bft) 95,74 %
11.01.2018 18:06 2,6 C 5,0 C 95 % 1018,1 hPa 0,0 l/m 0,8 km/h (0 Bft) O-SO 109 0 min 0,000 mm 0,0 UV-I 0 W/m 1,9 C 2,6 C 3,2 km/h (1 Bft) 97,87 %
11.01.2018 18:08 2,6 C 5,0 C 95 % 1018,1 hPa 0,0 l/m 0,8 km/h (0 Bft) O-SO 109 0 min 0,000 mm 0,0 UV-I 0 W/m 1,9 C 2,6 C 3,2 km/h (1 Bft) 97,87 %
11.01.2018 18:10 2,7 C 5,0 C 95 % 1018,2 hPa 0,0 l/m 0,0 km/h (0 Bft) O-SO 109 0 min 0,000 mm 0,0 UV-I 0 W/m 2,0 C 2,7 C 1,6 km/h (1 Bft) 97,14 %
11.01.2018 18:12 2,7 C 5,0 C 95 % 1018,2 hPa 0,0 l/m 0,0 km/h (0 Bft) O-SO 109 0 min 0,000 mm 0,0 UV-I 0 W/m 2,0 C 2,7 C 0,0 km/h (0 Bft) 98,04 %
11.01.2018 18:14 2,7 C 5,0 C 95 % 1018,2 hPa 0,0 l/m 0,0 km/h (0 Bft) O-SO 109 0 min 0,000 mm 0,0 UV-I 0 W/m 2,0 C 2,7 C 0,0 km/h (0 Bft) 98,08 %
11.01.2018 18:16 2,7 C 5,0 C 95 % 1018,2 hPa 0,0 l/m 0,2 km/h (0 Bft) O-SO 109 0 min 0,000 mm 0,0 UV-I 0 W/m 2,0 C 2,7 C 1,6 km/h (1 Bft) 95,74 %
11.01.2018 18:18 2,7 C 5,0 C 95 % 1018,2 hPa 0,0 l/m 0,1 km/h (0 Bft) O-SO 109 0 min 0,000 mm 0,0 UV-I 0 W/m 2,0 C 2,7 C 1,6 km/h (1 Bft) 100,00 %
11.01.2018 18:20 2,6 C 5,0 C 95 % 1018,2 hPa 0,0 l/m 0,0 km/h (0 Bft) O-SO 109 0 min 0,000 mm 0,0 UV-I 0 W/m 1,9 C 2,6 C 0,0 km/h (0 Bft) 95,74 %
11.01.2018 18:22 2,6 C 5,0 C 95 % 1018,2 hPa 0,0 l/m 0,0 km/h (0 Bft) O-SO 109 0 min 0,000 mm 0,0 UV-I 0 W/m 1,9 C 2,6 C 0,0 km/h (0 Bft) 98,11 %
11.01.2018 18:24 2,6 C 5,0 C 95 % 1018,2 hPa 0,0 l/m 0,1 km/h (0 Bft) O-SO 109 0 min 0,000 mm 0,0 UV-I 0 W/m 1,9 C 2,6 C 1,6 km/h (1 Bft) 97,87 %
11.01.2018 18:26 2,6 C 5,0 C 95 % 1018,2 hPa 0,0 l/m 0,3 km/h (0 Bft) O-SO 109 0 min 0,000 mm 0,0 UV-I 0 W/m 1,9 C 2,6 C 1,6 km/h (1 Bft) 97,37 %
11.01.2018 18:28 2,6 C 5,0 C 95 % 1018,3 hPa 0,0 l/m 0,7 km/h (0 Bft) O-SO 109 0 min 0,000 mm 0,0 UV-I 0 W/m 1,9 C 2,6 C 1,6 km/h (1 Bft) 96,23 %
11.01.2018 18:30 2,6 C 5,0 C 95 % 1018,2 hPa 0,0 l/m 0,0 km/h (0 Bft) O-SO 109 0 min 0,000 mm 0,0 UV-I 0 W/m 1,9 C 2,6 C 0,0 km/h (0 Bft) 98,00 %
11.01.2018 18:32 2,7 C 5,0 C 95 % 1018,2 hPa 0,0 l/m 0,0 km/h (0 Bft) O-SO 109 0 min 0,000 mm 0,0 UV-I 0 W/m 2,0 C 2,7 C 0,0 km/h (0 Bft) 92,00 %
11.01.2018 18:34 2,7 C 5,0 C 95 % 1018,3 hPa 0,0 l/m 0,0 km/h (0 Bft) O-SO 109 0 min 0,000 mm 0,0 UV-I 0 W/m 2,0 C 2,7 C 0,0 km/h (0 Bft) 100,00 %
11.01.2018 18:36 2,7 C 5,0 C 95 % 1018,3 hPa 0,0 l/m 0,0 km/h (0 Bft) O-SO 109 0 min 0,000 mm 0,0 UV-I 0 W/m 2,0 C 2,7 C 0,0 km/h (0 Bft) 100,00 %
11.01.2018 18:38 2,7 C 5,0 C 95 % 1018,3 hPa 0,0 l/m 0,0 km/h (0 Bft) O-SO 109 0 min 0,000 mm 0,0 UV-I 0 W/m 2,0 C 2,7 C 0,0 km/h (0 Bft) 100,00 %
11.01.2018 18:40 2,7 C 5,0 C 95 % 1018,3 hPa 0,0 l/m 0,0 km/h (0 Bft) O-SO 109 0 min 0,000 mm 0,0 UV-I 0 W/m 2,0 C 2,7 C 0,0 km/h (0 Bft) 100,00 %
11.01.2018 18:42 2,7 C 5,0 C 95 % 1018,3 hPa 0,0 l/m 0,0 km/h (0 Bft) O-SO 109 0 min 0,000 mm 0,0 UV-I 0 W/m 2,0 C 2,7 C 0,0 km/h (0 Bft) 100,00 %
11.01.2018 18:44 2,7 C 5,0 C 95 % 1018,3 hPa 0,0 l/m 0,0 km/h (0 Bft) O-SO 109 0 min 0,000 mm 0,0 UV-I 0 W/m 2,0 C 2,7 C 0,0 km/h (0 Bft) 100,00 %
11.01.2018 18:46 2,7 C 5,0 C 95 % 1018,3 hPa 0,0 l/m 1,2 km/h (1 Bft) O-SO 109 0 min 0,000 mm 0,0 UV-I 0 W/m 2,0 C 2,7 C 3,2 km/h (1 Bft) 100,00 %
11.01.2018 18:48 2,7 C 5,0 C 95 % 1018,3 hPa 0,0 l/m 2,3 km/h (1 Bft) O-SO 109 0 min 0,000 mm 0,0 UV-I 0 W/m 2,0 C 2,7 C 3,2 km/h (1 Bft) 100,00 %
11.01.2018 18:50 2,7 C 5,0 C 95 % 1018,3 hPa 0,0 l/m 2,1 km/h (1 Bft) O-SO 109 0 min 0,000 mm 0,0 UV-I 0 W/m 2,0 C 2,7 C 3,2 km/h (1 Bft) 100,00 %
11.01.2018 18:52 2,7 C 5,0 C 95 % 1018,3 hPa 0,0 l/m 0,4 km/h (0 Bft) O-SO 109 0 min 0,000 mm 0,0 UV-I 0 W/m 2,0 C 2,7 C 3,2 km/h (1 Bft) 100,00 %
11.01.2018 18:54 2,7 C 5,0 C 96 % 1018,4 hPa 0,0 l/m 0,0 km/h (0 Bft) O-SO 109 0 min 0,000 mm 0,0 UV-I 0 W/m 2,1 C 2,7 C 0,0 km/h (0 Bft) 100,00 %
11.01.2018 18:56 2,6 C 5,0 C 96 % 1018,4 hPa 0,0 l/m 0,0 km/h (0 Bft) O-SO 109 0 min 0,000 mm 0,0 UV-I 0 W/m 2,0 C 2,6 C 0,0 km/h (0 Bft) 97,44 %
11.01.2018 18:58 2,7 C 5,0 C 96 % 1018,3 hPa 0,0 l/m 0,4 km/h (0 Bft) O-SO 109 0 min 0,000 mm 0,0 UV-I 0 W/m 2,1 C 2,7 C 1,6 km/h (1 Bft) 96,00 %
11.01.2018 19:00 2,6 C 5,0 C 96 % 1018,4 hPa 0,0 l/m 2,9 km/h (1 Bft) O-SO 109 0 min 0,000 mm 0,0 UV-I 0 W/m 2,0 C 2,6 C 4,8 km/h (1 Bft) 98,00 %
11.01.2018 19:02 2,6 C 5,0 C 96 % 1018,3 hPa 0,0 l/m 3,7 km/h (1 Bft) O-SO 109 0 min 0,000 mm 0,0 UV-I 0 W/m 2,0 C 2,6 C 4,8 km/h (1 Bft) 98,00 %
11.01.2018 19:04 2,6 C 5,0 C 96 % 1018,3 hPa 0,0 l/m 4,0 km/h (1 Bft) S-SO 150 0 min 0,000 mm 0,0 UV-I 0 W/m 2,0 C 2,6 C 4,8 km/h (1 Bft) 94,74 %
11.01.2018 19:06 2,6 C 5,0 C 96 % 1018,3 hPa 0,0 l/m 4,6 km/h (1 Bft) S 191 0 min 0,000 mm 0,0 UV-I 0 W/m 2,0 C 2,6 C 6,4 km/h (2 Bft) 93,62 %
11.01.2018 19:08 2,6 C 5,0 C 96 % 1018,3 hPa 0,0 l/m 4,2 km/h (1 Bft) S-SW 194 0 min 0,000 mm 0,0 UV-I 0 W/m 2,0 C 2,6 C 6,4 km/h (2 Bft) 97,56 %
11.01.2018 19:10 2,5 C 5,0 C 96 % 1018,3 hPa 0,0 l/m 4,4 km/h (1 Bft) S-SW 194 0 min 0,000 mm 0,0 UV-I 0 W/m 1,9 C 2,5 C 6,4 km/h (2 Bft) 96,30 %
11.01.2018 19:12 2,5 C 5,0 C 96 % 1018,3 hPa 0,0 l/m 4,7 km/h (1 Bft) S-SW 194 0 min 0,000 mm 0,0 UV-I 0 W/m 1,9 C 2,5 C 6,4 km/h (2 Bft) 97,73 %
11.01.2018 19:14 2,4 C 5,0 C 96 % 1018,3 hPa 0,0 l/m 4,5 km/h (1 Bft) S-SW 194 0 min 0,000 mm 0,0 UV-I 0 W/m 1,8 C 2,4 C 6,4 km/h (2 Bft) 98,00 %
11.01.2018 19:16 2,4 C 5,0 C 96 % 1018,3 hPa 0,0 l/m 3,5 km/h (1 Bft) S-SW 194 0 min 0,000 mm 0,0 UV-I 0 W/m 1,8 C 2,4 C 6,4 km/h (2 Bft) 97,87 %
11.01.2018 19:18 2,4 C 5,0 C 96 % 1018,3 hPa 0,0 l/m 3,6 km/h (1 Bft) S 180 0 min 0,000 mm 0,0 UV-I 0 W/m 1,8 C 2,4 C 6,4 km/h (2 Bft) 98,11 %
11.01.2018 19:20 2,4 C 5,0 C 96 % 1018,3 hPa 0,0 l/m 4,1 km/h (1 Bft) S-SW 198 0 min 0,000 mm 0,0 UV-I 0 W/m 1,8 C 2,4 C 8,0 km/h (2 Bft) 97,37 %
11.01.2018 19:22 2,4 C 5,0 C 96 % 1018,3 hPa 0,0 l/m 2,4 km/h (1 Bft) S 178 0 min 0,000 mm 0,0 UV-I 0 W/m 1,8 C 2,4 C 6,4 km/h (2 Bft) 96,00 %
11.01.2018 19:24 2,4 C 5,0 C 96 % 1018,4 hPa 0,0 l/m 3,1 km/h (1 Bft) S 182 0 min 0,000 mm 0,0 UV-I 0 W/m 1,8 C 2,4 C 4,8 km/h (1 Bft) 97,37 %
11.01.2018 19:26 2,3 C 5,0 C 96 % 1018,4 hPa 0,0 l/m 3,7 km/h (1 Bft) S 185 0 min 0,000 mm 0,0 UV-I 0 W/m 1,7 C 2,3 C 4,8 km/h (1 Bft) 98,11 %
11.01.2018 19:28 2,3 C 5,0 C 96 % 1018,4 hPa 0,0 l/m 4,7 km/h (1 Bft) S-SW 194 0 min 0,000 mm 0,0 UV-I 0 W/m 1,7 C 2,3 C 6,4 km/h (2 Bft) 97,92 %
11.01.2018 19:30 2,3 C 5,0 C 96 % 1018,4 hPa 0,0 l/m 4,0 km/h (1 Bft) S-SW 194 0 min 0,000 mm 0,0 UV-I 0 W/m 1,7 C 2,3 C 4,8 km/h (1 Bft) 95,74 %
11.01.2018 19:32 2,2 C 5,0 C 96 % 1018,4 hPa 0,0 l/m 3,4 km/h (1 Bft) S-SW 194 0 min 0,000 mm 0,0 UV-I 0 W/m 1,6 C 2,2 C 4,8 km/h (1 Bft) 96,00 %
11.01.2018 19:34 2,2 C 5,0 C 96 % 1018,4 hPa 0,0 l/m 3,3 km/h (1 Bft) S-SW 194 0 min 0,000 mm 0,0 UV-I 0 W/m 1,6 C 2,2 C 6,4 km/h (2 Bft) 95,12 %
11.01.2018 19:36 2,2 C 5,0 C 96 % 1018,4 hPa 0,0 l/m 2,0 km/h (1 Bft) S-SW 194 0 min 0,000 mm 0,0 UV-I 0 W/m 1,6 C 2,2 C 3,2 km/h (1 Bft) 98,00 %
11.01.2018 19:38 2,2 C 5,0 C 96 % 1018,4 hPa 0,0 l/m 0,9 km/h (0 Bft) S-SW 194 0 min 0,000 mm 0,0 UV-I 0 W/m 1,6 C 2,2 C 3,2 km/h (1 Bft) 95,74 %
11.01.2018 19:40 2,2 C 5,0 C 96 % 1018,4 hPa 0,0 l/m 2,3 km/h (1 Bft) S-SW 194 0 min 0,000 mm 0,0 UV-I 0 W/m 1,6 C 2,2 C 3,2 km/h (1 Bft) 97,56 %
11.01.2018 19:42 2,2 C 5,0 C 96 % 1018,5 hPa 0,0 l/m 1,5 km/h (1 Bft) S-SW 194 0 min 0,000 mm 0,0 UV-I 0 W/m 1,6 C 2,2 C 3,2 km/h (1 Bft) 96,23 %
11.01.2018 19:44 2,2 C 5,0 C 96 % 1018,5 hPa 0,0 l/m 1,0 km/h (0 Bft) S-SW 194 0 min 0,000 mm 0,0 UV-I 0 W/m 1,6 C 2,2 C 1,6 km/h (1 Bft) 92,00 %
11.01.2018 19:46 2,2 C 5,0 C 96 % 1018,5 hPa 0,0 l/m 0,2 km/h (0 Bft) S-SW 194 0 min 0,000 mm 0,0 UV-I 0 W/m 1,6 C 2,2 C 1,6 km/h (1 Bft) 98,00 %
11.01.2018 19:48 2,2 C 5,0 C 96 % 1018,6 hPa 0,0 l/m 0,2 km/h (0 Bft) S-SW 194 0 min 0,000 mm 0,0 UV-I 0 W/m 1,6 C 2,2 C 1,6 km/h (1 Bft) 97,37 %
11.01.2018 19:50 2,1 C 5,0 C 96 % 1018,7 hPa 0,0 l/m 0,6 km/h (0 Bft) S-SW 194 0 min 0,000 mm 0,0 UV-I 0 W/m 1,5 C 2,1 C 1,6 km/h (1 Bft) 98,00 %
11.01.2018 19:52 2,0 C 5,0 C 96 % 1018,7 hPa 0,0 l/m 0,2 km/h (0 Bft) S-SW 194 0 min 0,000 mm 0,0 UV-I 0 W/m 1,4 C 2,0 C 1,6 km/h (1 Bft) 93,62 %
11.01.2018 19:54 1,9 C 5,0 C 96 % 1018,7 hPa 0,0 l/m 0,0 km/h (0 Bft) S-SW 194 0 min 0,000 mm 0,0 UV-I 0 W/m 1,3 C 1,9 C 0,0 km/h (0 Bft) 100,00 %
11.01.2018 19:56 1,9 C 5,0 C 96 % 1018,7 hPa 0,0 l/m 0,0 km/h (0 Bft) S-SW 194 0 min 0,000 mm 0,0 UV-I 0 W/m 1,3 C 1,9 C 0,0 km/h (0 Bft) 96,43 %
11.01.2018 19:58 1,9 C 5,0 C 97 % 1018,7 hPa 0,0 l/m 0,0 km/h (0 Bft) S-SW 194 0 min 0,000 mm 0,0 UV-I 0 W/m 1,5 C 1,9 C 0,0 km/h (0 Bft) 100,00 %
11.01.2018 20:00 1,9 C 5,0 C 97 % 1018,7 hPa 0,0 l/m 0,0 km/h (0 Bft) S-SW 194 0 min 0,000 mm 0,0 UV-I 0 W/m 1,5 C 1,9 C 0,0 km/h (0 Bft) 100,00 %
11.01.2018 20:02 1,9 C 5,0 C 97 % 1018,8 hPa 0,0 l/m 0,0 km/h (0 Bft) S-SW 194 0 min 0,000 mm 0,0 UV-I 0 W/m 1,5 C 1,9 C 0,0 km/h (0 Bft) 97,87 %
11.01.2018 20:04 1,9 C 5,0 C 97 % 1018,8 hPa 0,0 l/m 0,6 km/h (0 Bft) S-SW 194 0 min 0,000 mm 0,0 UV-I 0 W/m 1,5 C 1,9 C 1,6 km/h (1 Bft) 97,87 %
11.01.2018 20:06 1,9 C 5,0 C 97 % 1018,8 hPa 0,0 l/m 0,9 km/h (0 Bft) S-SW 194 0 min 0,000 mm 0,0 UV-I 0 W/m 1,5 C 1,9 C 3,2 km/h (1 Bft) 98,00 %
11.01.2018 20:08 1,9 C 5,0 C 97 % 1018,8 hPa 0,0 l/m 0,4 km/h (0 Bft) S-SW 194 0 min 0,000 mm 0,0 UV-I 0 W/m 1,5 C 1,9 C 1,6 km/h (1 Bft) 96,23 %
11.01.2018 20:10 1,8 C 5,0 C 97 % 1018,8 hPa 0,0 l/m 1,3 km/h (1 Bft) S-SW 194 0 min 0,000 mm 0,0 UV-I 0 W/m 1,4 C 1,8 C 3,2 km/h (1 Bft) 97,22 %
11.01.2018 20:12 1,8 C 5,0 C 97 % 1018,8 hPa 0,0 l/m 0,1 km/h (0 Bft) S-SW 194 0 min 0,000 mm 0,0 UV-I 0 W/m 1,4 C 1,8 C 1,6 km/h (1 Bft) 96,30 %
11.01.2018 20:14 1,8 C 5,0 C 97 % 1018,8 hPa 0,0 l/m 0,3 km/h (0 Bft) S-SW 194 0 min 0,000 mm 0,0 UV-I 0 W/m 1,4 C 1,8 C 1,6 km/h (1 Bft) 98,00 %
11.01.2018 20:16 1,9 C 5,0 C 97 % 1018,9 hPa 0,0 l/m 0,7 km/h (0 Bft) S-SW 194 0 min 0,000 mm 0,0 UV-I 0 W/m 1,5 C 1,9 C 3,2 km/h (1 Bft) 95,45 %
11.01.2018 20:18 1,8 C 5,0 C 97 % 1018,9 hPa 0,0 l/m 0,8 km/h (0 Bft) S-SW 194 0 min 0,000 mm 0,0 UV-I 0 W/m 1,4 C 1,8 C 3,2 km/h (1 Bft) 94,00 %
11.01.2018 20:20 1,8 C 5,0 C 97 % 1018,9 hPa 0,0 l/m 0,6 km/h (0 Bft) S-SW 194 0 min 0,000 mm 0,0 UV-I 0 W/m 1,4 C 1,8 C 3,2 km/h (1 Bft) 94,74 %
11.01.2018 20:22 1,8 C 5,0 C 97 % 1018,9 hPa 0,0 l/m 1,2 km/h (1 Bft) S-SW 194 0 min 0,000 mm 0,0 UV-I 0 W/m 1,4 C 1,8 C 3,2 km/h (1 Bft) 98,00 %
11.01.2018 20:24 1,9 C 5,0 C 97 % 1019,0 hPa 0,0 l/m 0,2 km/h (0 Bft) S-SW 194 0 min 0,000 mm 0,0 UV-I 0 W/m 1,5 C 1,9 C 3,2 km/h (1 Bft) 94,00 %
11.01.2018 20:26 1,8 C 5,0 C 97 % 1019,0 hPa 0,0 l/m 0,4 km/h (0 Bft) S-SW 194 0 min 0,000 mm 0,0 UV-I 0 W/m 1,4 C 1,8 C 3,2 km/h (1 Bft) 98,00 %
11.01.2018 20:28 1,9 C 5,0 C 97 % 1019,0 hPa 0,0 l/m 0,9 km/h (0 Bft) S-SW 194 0 min 0,000 mm 0,0 UV-I 0 W/m 1,5 C 1,9 C 3,2 km/h (1 Bft) 97,87 %
11.01.2018 20:30 1,8 C 5,0 C 97 % 1019,1 hPa 0,0 l/m 1,1 km/h (1 Bft) W-NW 292 0 min 0,000 mm 0,0 UV-I 0 W/m 1,4 C 1,8 C 3,2 km/h (1 Bft) 95,74 %
11.01.2018 20:32 1,9 C 5,0 C 97 % 1019,1 hPa 0,0 l/m 1,7 km/h (1 Bft) W-NW 302 0 min 0,000 mm 0,0 UV-I 0 W/m 1,5 C 1,9 C 4,8 km/h (1 Bft) 97,44 %
11.01.2018 20:34 1,9 C 5,0 C 97 % 1019,1 hPa 0,0 l/m 0,1 km/h (0 Bft) W-NW 302 0 min 0,000 mm 0,0 UV-I 0 W/m 1,5 C 1,9 C 1,6 km/h (1 Bft) 97,87 %
11.01.2018 20:36 1,9 C 5,0 C 97 % 1019,1 hPa 0,0 l/m 0,0 km/h (0 Bft) W-NW 302 0 min 0,000 mm 0,0 UV-I 0 W/m 1,5 C 1,9 C 0,0 km/h (0 Bft) 94,34 %
11.01.2018 20:38 1,9 C 5,0 C 97 % 1019,1 hPa 0,0 l/m 0,0 km/h (0 Bft) W-NW 302 0 min 0,000 mm 0,0 UV-I 0 W/m 1,5 C 1,9 C 0,0 km/h (0 Bft) 100,00 %
11.01.2018 20:40 1,8 C 5,0 C 97 % 1019,1 hPa 0,0 l/m 0,7 km/h (0 Bft) W-NW 302 0 min 0,000 mm 0,0 UV-I 0 W/m 1,4 C 1,8 C 3,2 km/h (1 Bft) 100,00 %
11.01.2018 20:42 1,8 C 5,0 C 97 % 1019,1 hPa 0,0 l/m 0,8 km/h (0 Bft) W-NW 302 0 min 0,000 mm 0,0 UV-I 0 W/m 1,4 C 1,8 C 3,2 km/h (1 Bft) 98,00 %
11.01.2018 20:44 1,8 C 5,0 C 97 % 1019,1 hPa 0,0 l/m 0,2 km/h (0 Bft) W-NW 302 0 min 0,000 mm 0,0 UV-I 0 W/m 1,4 C 1,8 C 1,6 km/h (1 Bft) 97,87 %
11.01.2018 20:46 1,8 C 5,0 C 97 % 1019,1 hPa 0,0 l/m 0,1 km/h (0 Bft) W-NW 302 0 min 0,000 mm 0,0 UV-I 0 W/m 1,4 C 1,8 C 1,6 km/h (1 Bft) 97,92 %
11.01.2018 20:48 1,8 C 5,0 C 97 % 1019,2 hPa 0,0 l/m 0,0 km/h (0 Bft) W-NW 302 0 min 0,000 mm 0,0 UV-I 0 W/m 1,4 C 1,8 C 0,0 km/h (0 Bft) 100,00 %
11.01.2018 20:50 1,7 C 5,0 C 97 % 1019,2 hPa 0,0 l/m 0,0 km/h (0 Bft) W-NW 302 0 min 0,000 mm 0,0 UV-I 0 W/m 1,3 C 1,7 C 0,0 km/h (0 Bft) 100,00 %
11.01.2018 20:52 1,7 C 5,0 C 97 % 1019,2 hPa 0,0 l/m 0,0 km/h (0 Bft) W-NW 302 0 min 0,000 mm 0,0 UV-I 0 W/m 1,3 C 1,7 C 0,0 km/h (0 Bft) 100,00 %
11.01.2018 20:54 1,6 C 5,0 C 97 % 1019,2 hPa 0,0 l/m 0,0 km/h (0 Bft) W-NW 302 0 min 0,000 mm 0,0 UV-I 0 W/m 1,2 C 1,6 C 0,0 km/h (0 Bft) 100,00 %
11.01.2018 20:56 1,6 C 5,0 C 97 % 1019,3 hPa 0,0 l/m 0,0 km/h (0 Bft) W-NW 302 0 min 0,000 mm 0,0 UV-I 0 W/m 1,2 C 1,6 C 0,0 km/h (0 Bft) 100,00 %
11.01.2018 20:58 1,4 C 5,0 C 97 % 1019,3 hPa 0,0 l/m 0,0 km/h (0 Bft) W-NW 302 0 min 0,000 mm 0,0 UV-I 0 W/m 1,0 C 1,4 C 0,0 km/h (0 Bft) 98,00 %
11.01.2018 21:00 1,3 C 5,0 C 97 % 1019,3 hPa 0,0 l/m 0,0 km/h (0 Bft) W-NW 302 0 min 0,000 mm 0,0 UV-I 0 W/m 0,9 C 1,3 C 0,0 km/h (0 Bft) 100,00 %
11.01.2018 21:02 1,3 C 5,0 C 97 % 1019,3 hPa 0,0 l/m 0,0 km/h (0 Bft) W-NW 302 0 min 0,000 mm 0,0 UV-I 0 W/m 0,9 C 1,3 C 0,0 km/h (0 Bft) 100,00 %
11.01.2018 21:04 1,2 C 5,0 C 97 % 1019,3 hPa 0,0 l/m 0,0 km/h (0 Bft) W-NW 302 0 min 0,000 mm 0,0 UV-I 0 W/m 0,8 C 1,2 C 0,0 km/h (0 Bft) 100,00 %
11.01.2018 21:06 1,2 C 5,0 C 97 % 1019,3 hPa 0,0 l/m 0,0 km/h (0 Bft) W-NW 302 0 min 0,000 mm 0,0 UV-I 0 W/m 0,8 C 1,2 C 1,6 km/h (1 Bft) 100,00 %
11.01.2018 21:08 1,1 C 5,0 C 97 % 1019,3 hPa 0,0 l/m 0,0 km/h (0 Bft) W-NW 302 0 min 0,000 mm 0,0 UV-I 0 W/m 0,7 C 1,1 C 0,0 km/h (0 Bft) 100,00 %
11.01.2018 21:10 1,0 C 5,0 C 97 % 1019,3 hPa 0,0 l/m 0,0 km/h (0 Bft) W-NW 302 0 min 0,000 mm 0,0 UV-I 0 W/m 0,6 C 1,0 C 0,0 km/h (0 Bft) 100,00 %
11.01.2018 21:12 0,9 C 5,0 C 97 % 1019,3 hPa 0,0 l/m 0,0 km/h (0 Bft) W-NW 302 0 min 0,000 mm 0,0 UV-I 0 W/m 0,5 C 0,9 C 0,0 km/h (0 Bft) 100,00 %
11.01.2018 21:14 0,9 C 5,0 C 97 % 1019,3 hPa 0,0 l/m 0,0 km/h (0 Bft) W-NW 302 0 min 0,000 mm 0,0 UV-I 0 W/m 0,5 C 0,9 C 0,0 km/h (0 Bft) 100,00 %
11.01.2018 21:16 0,9 C 5,0 C 97 % 1019,4 hPa 0,0 l/m 0,0 km/h (0 Bft) W-NW 302 0 min 0,000 mm 0,0 UV-I 0 W/m 0,5 C 0,9 C 0,0 km/h (0 Bft) 98,00 %
11.01.2018 21:18 0,9 C 5,0 C 97 % 1019,4 hPa 0,0 l/m 0,0 km/h (0 Bft) W-NW 302 0 min 0,000 mm 0,0 UV-I 0 W/m 0,5 C 0,9 C 0,0 km/h (0 Bft) 100,00 %
11.01.2018 21:20 1,0 C 5,0 C 97 % 1019,4 hPa 0,0 l/m 0,0 km/h (0 Bft) W-NW 302 0 min 0,000 mm 0,0 UV-I 0 W/m 0,6 C 1,0 C 1,6 km/h (1 Bft) 97,14 %
11.01.2018 21:22 1,1 C 5,0 C 97 % 1019,4 hPa 0,0 l/m 1,7 km/h (1 Bft) W-NW 302 0 min 0,000 mm 0,0 UV-I 0 W/m 0,7 C 1,1 C 3,2 km/h (1 Bft) 100,00 %
11.01.2018 21:24 1,1 C 5,0 C 97 % 1019,4 hPa 0,0 l/m 2,1 km/h (1 Bft) W-NW 302 0 min 0,000 mm 0,0 UV-I 0 W/m 0,7 C 1,1 C 3,2 km/h (1 Bft) 100,00 %
11.01.2018 21:26 1,1 C 5,0 C 97 % 1019,4 hPa 0,0 l/m 2,0 km/h (1 Bft) W-NW 302 0 min 0,000 mm 0,0 UV-I 0 W/m 0,7 C 1,1 C 3,2 km/h (1 Bft) 100,00 %
11.01.2018 21:28 1,1 C 5,0 C 97 % 1019,5 hPa 0,0 l/m 1,5 km/h (1 Bft) W-NW 302 0 min 0,000 mm 0,0 UV-I 0 W/m 0,7 C 1,1 C 3,2 km/h (1 Bft) 100,00 %
11.01.2018 21:30 0,9 C 4,4 C 97 % 1019,5 hPa 0,0 l/m 1,3 km/h (1 Bft) W-NW 302 0 min 0,000 mm 0,0 UV-I 0 W/m 0,5 C 0,9 C 3,2 km/h (1 Bft) 100,00 %
11.01.2018 21:32 0,9 C 4,4 C 97 % 1019,5 hPa 0,0 l/m 1,8 km/h (1 Bft) W-NW 302 0 min 0,000 mm 0,0 UV-I 0 W/m 0,5 C 0,9 C 3,2 km/h (1 Bft) 100,00 %
11.01.2018 21:34 0,9 C 4,4 C 97 % 1019,5 hPa 0,0 l/m 3,0 km/h (1 Bft) W-NW 300 0 min 0,000 mm 0,0 UV-I 0 W/m 0,5 C 0,9 C 4,8 km/h (1 Bft) 100,00 %
11.01.2018 21:36 1,1 C 4,4 C 97 % 1019,5 hPa 0,0 l/m 2,8 km/h (1 Bft) W-NW 300 0 min 0,000 mm 0,0 UV-I 0 W/m 0,7 C 1,1 C 4,8 km/h (1 Bft) 100,00 %
11.01.2018 21:38 1,1 C 4,4 C 97 % 1019,5 hPa 0,0 l/m 2,1 km/h (1 Bft) W-NW 300 0 min 0,000 mm 0,0 UV-I 0 W/m 0,7 C 1,1 C 3,2 km/h (1 Bft) 100,00 %
11.01.2018 21:40 1,1 C 4,4 C 97 % 1019,5 hPa 0,0 l/m 1,3 km/h (1 Bft) W-NW 300 0 min 0,000 mm 0,0 UV-I 0 W/m 0,7 C 1,1 C 3,2 km/h (1 Bft) 97,87 %
11.01.2018 21:42 1,2 C 5,0 C 97 % 1019,6 hPa 0,0 l/m 2,4 km/h (1 Bft) W-NW 300 0 min 0,000 mm 0,0 UV-I 0 W/m 0,8 C 1,2 C 3,2 km/h (1 Bft) 100,00 %
11.01.2018 21:44 1,2 C 4,4 C 97 % 1019,6 hPa 0,0 l/m 2,9 km/h (1 Bft) W-NW 300 0 min 0,000 mm 0,0 UV-I 0 W/m 0,8 C 1,2 C 4,8 km/h (1 Bft) 100,00 %
11.01.2018 21:46 1,3 C 4,4 C 97 % 1019,6 hPa 0,0 l/m 1,4 km/h (1 Bft) W-NW 300 0 min 0,000 mm 0,0 UV-I 0 W/m 0,9 C 1,3 C 3,2 km/h (1 Bft) 97,50 %
11.01.2018 21:48 1,4 C 5,0 C 97 % 1019,6 hPa 0,0 l/m 1,5 km/h (1 Bft) W-NW 300 0 min 0,000 mm 0,0 UV-I 0 W/m 1,0 C 1,4 C 3,2 km/h (1 Bft) 100,00 %
11.01.2018 21:50 1,4 C 5,0 C 97 % 1019,6 hPa 0,0 l/m 2,0 km/h (1 Bft) W-NW 300 0 min 0,000 mm 0,0 UV-I 0 W/m 1,0 C 1,4 C 3,2 km/h (1 Bft) 100,00 %
11.01.2018 21:52 1,3 C 5,0 C 97 % 1019,6 hPa 0,0 l/m 1,9 km/h (1 Bft) W-NW 300 0 min 0,000 mm 0,0 UV-I 0 W/m 0,9 C 1,3 C 3,2 km/h (1 Bft) 100,00 %
11.01.2018 21:54 1,3 C 5,0 C 97 % 1019,6 hPa 0,0 l/m 2,2 km/h (1 Bft) W-NW 300 0 min 0,000 mm 0,0 UV-I 0 W/m 0,9 C 1,3 C 3,2 km/h (1 Bft) 100,00 %
11.01.2018 21:56 1,3 C 5,0 C 97 % 1019,6 hPa 0,0 l/m 1,1 km/h (1 Bft) W-NW 300 0 min 0,000 mm 0,0 UV-I 0 W/m 0,9 C 1,3 C 1,6 km/h (1 Bft) 100,00 %
11.01.2018 21:58 1,3 C 5,0 C 97 % 1019,5 hPa 0,0 l/m 1,3 km/h (1 Bft) W-NW 300 0 min 0,000 mm 0,0 UV-I 0 W/m 0,9 C 1,3 C 3,2 km/h (1 Bft) 100,00 %
11.01.2018 22:00 1,4 C 5,0 C 97 % 1019,6 hPa 0,0 l/m 2,2 km/h (1 Bft) W-NW 300 0 min 0,000 mm 0,0 UV-I 0 W/m 1,0 C 1,4 C 3,2 km/h (1 Bft) 100,00 %
11.01.2018 22:02 1,4 C 5,0 C 97 % 1019,6 hPa 0,0 l/m 1,3 km/h (1 Bft) W-NW 300 0 min 0,000 mm 0,0 UV-I 0 W/m 1,0 C 1,4 C 3,2 km/h (1 Bft) 100,00 %
11.01.2018 22:04 1,5 C 5,0 C 98 % 1019,6 hPa 0,0 l/m 1,7 km/h (1 Bft) W-NW 300 0 min 0,000 mm 0,0 UV-I 0 W/m 1,2 C 1,5 C 3,2 km/h (1 Bft) 100,00 %
11.01.2018 22:06 1,4 C 5,0 C 97 % 1019,6 hPa 0,0 l/m 1,7 km/h (1 Bft) W-NW 300 0 min 0,000 mm 0,0 UV-I 0 W/m 1,0 C 1,4 C 3,2 km/h (1 Bft) 97,87 %
11.01.2018 22:08 1,4 C 5,0 C 97 % 1019,6 hPa 0,0 l/m 0,4 km/h (0 Bft) W-NW 300 0 min 0,000 mm 0,0 UV-I 0 W/m 1,0 C 1,4 C 1,6 km/h (1 Bft) 100,00 %
11.01.2018 22:10 1,3 C 4,4 C 97 % 1019,7 hPa 0,0 l/m 1,8 km/h (1 Bft) W-NW 300 0 min 0,000 mm 0,0 UV-I 0 W/m 0,9 C 1,3 C 3,2 km/h (1 Bft) 100,00 %
11.01.2018 22:12 1,3 C 4,4 C 97 % 1019,7 hPa 0,0 l/m 1,9 km/h (1 Bft) W-NW 300 0 min 0,000 mm 0,0 UV-I 0 W/m 0,9 C 1,3 C 3,2 km/h (1 Bft) 100,00 %
11.01.2018 22:14 1,3 C 5,0 C 97 % 1019,7 hPa 0,0 l/m 1,8 km/h (1 Bft) W-NW 300 0 min 0,000 mm 0,0 UV-I 0 W/m 0,9 C 1,3 C 3,2 km/h (1 Bft) 97,87 %
11.01.2018 22:16 1,3 C 5,0 C 97 % 1019,8 hPa 0,0 l/m 1,1 km/h (1 Bft) W-NW 300 0 min 0,000 mm 0,0 UV-I 0 W/m 0,9 C 1,3 C 3,2 km/h (1 Bft) 97,87 %
11.01.2018 22:18 1,4 C 5,0 C 97 % 1019,8 hPa 0,0 l/m 2,2 km/h (1 Bft) W-NW 300 0 min 0,000 mm 0,0 UV-I 0 W/m 1,0 C 1,4 C 4,8 km/h (1 Bft) 95,74 %
11.01.2018 22:20 1,4 C 5,0 C 97 % 1019,8 hPa 0,0 l/m 1,7 km/h (1 Bft) W-NW 300 0 min 0,000 mm 0,0 UV-I 0 W/m 1,0 C 1,4 C 3,2 km/h (1 Bft) 100,00 %
11.01.2018 22:22 1,4 C 5,0 C 97 % 1019,8 hPa 0,0 l/m 0,5 km/h (0 Bft) W-NW 300 0 min 0,000 mm 0,0 UV-I 0 W/m 1,0 C 1,4 C 1,6 km/h (1 Bft) 96,00 %
11.01.2018 22:24 1,4 C 5,0 C 97 % 1019,8 hPa 0,0 l/m 1,4 km/h (1 Bft) W-NW 300 0 min 0,000 mm 0,0 UV-I 0 W/m 1,0 C 1,4 C 3,2 km/h (1 Bft) 98,00 %
11.01.2018 22:26 1,4 C 4,4 C 97 % 1019,9 hPa 0,0 l/m 1,1 km/h (1 Bft) W-NW 300 0 min 0,000 mm 0,0 UV-I 0 W/m 1,0 C 1,4 C 3,2 km/h (1 Bft) 95,12 %
11.01.2018 22:28 1,5 C 4,4 C 97 % 1019,9 hPa 0,0 l/m 1,0 km/h (0 Bft) W-NW 300 0 min 0,000 mm 0,0 UV-I 0 W/m 1,1 C 1,5 C 3,2 km/h (1 Bft) 94,00 %
11.01.2018 22:30 1,4 C 4,4 C 97 % 1020,0 hPa 0,0 l/m 2,0 km/h (1 Bft) W-NW 300 0 min 0,000 mm 0,0 UV-I 0 W/m 1,0 C 1,4 C 3,2 km/h (1 Bft) 93,62 %
11.01.2018 22:32 1,4 C 4,4 C 97 % 1020,0 hPa 0,0 l/m 1,5 km/h (1 Bft) W-NW 300 0 min 0,000 mm 0,0 UV-I 0 W/m 1,0 C 1,4 C 3,2 km/h (1 Bft) 96,00 %
11.01.2018 22:34 1,4 C 4,4 C 97 % 1020,0 hPa 0,0 l/m 0,3 km/h (0 Bft) W-NW 300 0 min 0,000 mm 0,0 UV-I 0 W/m 1,0 C 1,4 C 1,6 km/h (1 Bft) 97,87 %
11.01.2018 22:36 1,5 C 5,0 C 97 % 1020,0 hPa 0,0 l/m 0,1 km/h (0 Bft) W-NW 300 0 min 0,000 mm 0,0 UV-I 0 W/m 1,1 C 1,5 C 1,6 km/h (1 Bft) 97,87 %
11.01.2018 22:38 1,5 C 5,0 C 97 % 1020,0 hPa 0,0 l/m 1,1 km/h (1 Bft) W-NW 300 0 min 0,000 mm 0,0 UV-I 0 W/m 1,1 C 1,5 C 4,8 km/h (1 Bft) 95,74 %
11.01.2018 22:40 1,5 C 4,4 C 97 % 1020,1 hPa 0,0 l/m 2,1 km/h (1 Bft) W-NW 300 0 min 0,000 mm 0,0 UV-I 0 W/m 1,1 C 1,5 C 3,2 km/h (1 Bft) 97,67 %
11.01.2018 22:42 1,6 C 4,4 C 97 % 1020,1 hPa 0,0 l/m 0,3 km/h (0 Bft) W-NW 300 0 min 0,000 mm 0,0 UV-I 0 W/m 1,2 C 1,6 C 3,2 km/h (1 Bft) 98,00 %
11.01.2018 22:44 1,6 C 5,0 C 97 % 1020,2 hPa 0,0 l/m 0,1 km/h (0 Bft) W-NW 300 0 min 0,000 mm 0,0 UV-I 0 W/m 1,2 C 1,6 C 1,6 km/h (1 Bft) 96,00 %
11.01.2018 22:46 1,6 C 4,4 C 97 % 1020,2 hPa 0,0 l/m 1,1 km/h (1 Bft) W-NW 300 0 min 0,000 mm 0,0 UV-I 0 W/m 1,2 C 1,6 C 3,2 km/h (1 Bft) 93,75 %
11.01.2018 22:48 1,7 C 5,0 C 97 % 1020,2 hPa 0,0 l/m 1,6 km/h (1 Bft) W-NW 300 0 min 0,000 mm 0,0 UV-I 0 W/m 1,3 C 1,7 C 3,2 km/h (1 Bft) 95,74 %
11.01.2018 22:50 1,7 C 5,0 C 97 % 1020,2 hPa 0,0 l/m 1,3 km/h (1 Bft) W-NW 300 0 min 0,000 mm 0,0 UV-I 0 W/m 1,3 C 1,7 C 3,2 km/h (1 Bft) 91,49 %
11.01.2018 22:52 1,7 C 4,4 C 97 % 1020,2 hPa 0,0 l/m 1,7 km/h (1 Bft) W-NW 300 0 min 0,000 mm 0,0 UV-I 0 W/m 1,3 C 1,7 C 3,2 km/h (1 Bft) 94,74 %
11.01.2018 22:54 1,7 C 4,4 C 97 % 1020,3 hPa 0,0 l/m 0,5 km/h (0 Bft) W-NW 300 0 min 0,000 mm 0,0 UV-I 0 W/m 1,3 C 1,7 C 1,6 km/h (1 Bft) 98,11 %
11.01.2018 22:56 1,7 C 5,0 C 97 % 1020,3 hPa 0,0 l/m 0,9 km/h (0 Bft) W-NW 300 0 min 0,000 mm 0,0 UV-I 0 W/m 1,3 C 1,7 C 3,2 km/h (1 Bft) 94,29 %
11.01.2018 22:58 1,7 C 5,0 C 97 % 1020,3 hPa 0,0 l/m 1,3 km/h (1 Bft) W-NW 300 0 min 0,000 mm 0,0 UV-I 0 W/m 1,3 C 1,7 C 1,6 km/h (1 Bft) 98,11 %
11.01.2018 23:00 1,7 C 4,4 C 97 % 1020,3 hPa 0,0 l/m 1,7 km/h (1 Bft) W-NW 300 0 min 0,000 mm 0,0 UV-I 0 W/m 1,3 C 1,7 C 3,2 km/h (1 Bft) 97,87 %
11.01.2018 23:02 1,6 C 4,4 C 97 % 1020,3 hPa 0,0 l/m 0,3 km/h (0 Bft) W-NW 300 0 min 0,000 mm 0,0 UV-I 0 W/m 1,2 C 1,6 C 1,6 km/h (1 Bft) 98,00 %
11.01.2018 23:04 1,6 C 4,4 C 97 % 1020,4 hPa 0,0 l/m 1,5 km/h (1 Bft) W-NW 300 0 min 0,000 mm 0,0 UV-I 0 W/m 1,2 C 1,6 C 3,2 km/h (1 Bft) 93,62 %
11.01.2018 23:06 1,4 C 4,4 C 97 % 1020,4 hPa 0,0 l/m 0,1 km/h (0 Bft) W-NW 300 0 min 0,000 mm 0,0 UV-I 0 W/m 1,0 C 1,4 C 1,6 km/h (1 Bft) 98,00 %
11.01.2018 23:08 1,4 C 4,4 C 97 % 1020,4 hPa 0,0 l/m 1,3 km/h (1 Bft) W-NW 300 0 min 0,000 mm 0,0 UV-I 0 W/m 1,0 C 1,4 C 3,2 km/h (1 Bft) 97,37 %
11.01.2018 23:10 1,3 C 4,4 C 97 % 1020,4 hPa 0,0 l/m 1,5 km/h (1 Bft) W-NW 300 0 min 0,000 mm 0,0 UV-I 0 W/m 0,9 C 1,3 C 3,2 km/h (1 Bft) 96,00 %
11.01.2018 23:12 1,3 C 5,0 C 97 % 1020,4 hPa 0,0 l/m 2,0 km/h (1 Bft) W-NW 300 0 min 0,000 mm 0,0 UV-I 0 W/m 0,9 C 1,3 C 3,2 km/h (1 Bft) 97,87 %
11.01.2018 23:14 1,2 C 5,0 C 97 % 1020,4 hPa 0,0 l/m 2,0 km/h (1 Bft) W-NW 300 0 min 0,000 mm 0,0 UV-I 0 W/m 0,8 C 1,2 C 3,2 km/h (1 Bft) 95,74 %
11.01.2018 23:16 1,3 C 4,4 C 97 % 1020,5 hPa 0,0 l/m 2,9 km/h (1 Bft) W-NW 300 0 min 0,000 mm 0,0 UV-I 0 W/m 0,9 C 1,3 C 3,2 km/h (1 Bft) 96,23 %
11.01.2018 23:18 1,3 C 4,4 C 97 % 1020,5 hPa 0,0 l/m 2,5 km/h (1 Bft) W-NW 300 0 min 0,000 mm 0,0 UV-I 0 W/m 0,9 C 1,3 C 3,2 km/h (1 Bft) 97,44 %
11.01.2018 23:20 1,2 C 5,0 C 97 % 1020,5 hPa 0,0 l/m 2,0 km/h (1 Bft) W-NW 300 0 min 0,000 mm 0,0 UV-I 0 W/m 0,8 C 1,2 C 3,2 km/h (1 Bft) 98,11 %
11.01.2018 23:22 1,2 C 4,4 C 97 % 1020,5 hPa 0,0 l/m 1,1 km/h (1 Bft) W-NW 300 0 min 0,000 mm 0,0 UV-I 0 W/m 0,8 C 1,2 C 3,2 km/h (1 Bft) 97,37 %
11.01.2018 23:24 1,3 C 4,4 C 97 % 1020,5 hPa 0,0 l/m 1,7 km/h (1 Bft) W-NW 300 0 min 0,000 mm 0,0 UV-I 0 W/m 0,9 C 1,3 C 3,2 km/h (1 Bft) 98,00 %
11.01.2018 23:26 1,3 C 4,4 C 97 % 1020,6 hPa 0,0 l/m 0,7 km/h (0 Bft) W-NW 300 0 min 0,000 mm 0,0 UV-I 0 W/m 0,9 C 1,3 C 1,6 km/h (1 Bft) 96,00 %
11.01.2018 23:28 1,3 C 4,4 C 97 % 1020,5 hPa 0,0 l/m 0,0 km/h (0 Bft) W-NW 300 0 min 0,000 mm 0,0 UV-I 0 W/m 0,9 C 1,3 C 0,0 km/h (0 Bft) 95,74 %
11.01.2018 23:30 1,3 C 4,4 C 97 % 1020,6 hPa 0,0 l/m 1,2 km/h (1 Bft) W-NW 300 0 min 0,000 mm 0,0 UV-I 0 W/m 0,9 C 1,3 C 1,6 km/h (1 Bft) 94,00 %
11.01.2018 23:32 1,3 C 4,4 C 97 % 1020,5 hPa 0,0 l/m 1,7 km/h (1 Bft) W-NW 300 0 min 0,000 mm 0,0 UV-I 0 W/m 0,9 C 1,3 C 3,2 km/h (1 Bft) 97,87 %
11.01.2018 23:34 1,3 C 4,4 C 97 % 1020,6 hPa 0,0 l/m 1,7 km/h (1 Bft) W-NW 300 0 min 0,000 mm 0,0 UV-I 0 W/m 0,9 C 1,3 C 3,2 km/h (1 Bft) 97,37 %
11.01.2018 23:36 1,3 C 4,4 C 97 % 1020,6 hPa 0,0 l/m 0,6 km/h (0 Bft) W-NW 300 0 min 0,000 mm 0,0 UV-I 0 W/m 0,9 C 1,3 C 1,6 km/h (1 Bft) 92,00 %
11.01.2018 23:38 1,3 C 4,4 C 97 % 1020,6 hPa 0,0 l/m 0,4 km/h (0 Bft) W-NW 300 0 min 0,000 mm 0,0 UV-I 0 W/m 0,9 C 1,3 C 1,6 km/h (1 Bft) 97,87 %
11.01.2018 23:40 1,3 C 4,4 C 97 % 1020,6 hPa 0,0 l/m 0,0 km/h (0 Bft) W-NW 300 0 min 0,000 mm 0,0 UV-I 0 W/m 0,9 C 1,3 C 1,6 km/h (1 Bft) 97,56 %
11.01.2018 23:42 1,3 C 4,4 C 97 % 1020,7 hPa 0,0 l/m 0,0 km/h (0 Bft) W-NW 300 0 min 0,000 mm 0,0 UV-I 0 W/m 0,9 C 1,3 C 0,0 km/h (0 Bft) 96,00 %
11.01.2018 23:45 1,2 C 4,4 C 97 % 1020,7 hPa 0,0 l/m 1,4 km/h (1 Bft) W-NW 300 0 min 0,000 mm 0,0 UV-I 0 W/m 0,8 C 1,2 C 3,2 km/h (1 Bft) 96,10 %
11.01.2018 23:46 1,2 C 4,4 C 97 % 1020,7 hPa 0,0 l/m 2,6 km/h (1 Bft) W-NW 300 0 min 0,000 mm 0,0 UV-I 0 W/m 0,8 C 1,2 C 3,2 km/h (1 Bft) 100,00 %
11.01.2018 23:48 1,3 C 4,4 C 97 % 1020,6 hPa 0,0 l/m 3,4 km/h (1 Bft) W-NW 300 0 min 0,000 mm 0,0 UV-I 0 W/m 0,9 C 1,3 C 4,8 km/h (1 Bft) 96,08 %
11.01.2018 23:50 1,3 C 4,4 C 97 % 1020,6 hPa 0,0 l/m 3,8 km/h (1 Bft) W-NW 296 0 min 0,000 mm 0,0 UV-I 0 W/m 0,9 C 1,3 C 4,8 km/h (1 Bft) 96,00 %
11.01.2018 23:52 1,3 C 4,4 C 97 % 1020,6 hPa 0,0 l/m 3,9 km/h (1 Bft) W-NW 296 0 min 0,000 mm 0,0 UV-I 0 W/m 0,9 C 1,3 C 4,8 km/h (1 Bft) 97,56 %
11.01.2018 23:54 1,4 C 4,4 C 97 % 1020,6 hPa 0,0 l/m 1,5 km/h (1 Bft) W-NW 290 0 min 0,000 mm 0,0 UV-I 0 W/m 1,0 C 1,4 C 4,8 km/h (1 Bft) 98,11 %
11.01.2018 23:56 1,4 C 4,4 C 97 % 1020,5 hPa 0,0 l/m 1,6 km/h (1 Bft) S 171 0 min 0,000 mm 0,0 UV-I 0 W/m 1,0 C 1,4 C 3,2 km/h (1 Bft) 100,00 %
11.01.2018 23:58 1,4 C 4,4 C 97 % 1020,6 hPa 0,0 l/m 1,1 km/h (1 Bft) S 171 0 min 0,000 mm 0,0 UV-I 0 W/m 1,0 C 1,4 C 3,2 km/h (1 Bft) 100,00 %
_ Min-Zeit 21:12 21:30 00:04 00:02 - 01:56 - - - - - - 21:12 12:36 01:56 00:02
Minimum _ 0,9 C 4,4 C 83 % 1012,7 hPa - 0,0 km/h (0 Bft) - - - - - - 0,5 C -1,1 C 0,0 km/h (0 Bft) 11,11 %
_ Max-Zeit 00:04 00:00 22:04 23:42 00:00 12:36 - - 00:00 13:00 00:00 11:40 00:00 00:04 12:36 00:08
Maximum _ 5,3 C 5,0 C 98 % 1020,7 hPa 0,0 l/m 10,9 km/h
NO (2 Bft)
- - 0 min 0,026 mm 0,0 UV-I 46 W/m 3,4 C 5,3 C 16,1 km/h
O (3 Bft)
100,00 %
Durchschnitt _ 2,8 C 5,0 C 96 % 1015,9 hPa #0,0 l/m 2,7 km/h (1 Bft) O-SO - #0 min. #0,051 mm 0,0 UV-I 22 W/m 2,2 C 2,7 C 4,9 km/h (1 Bft) 97,84 %